<?xml version="1.0" encoding="UTF-8" standalone="no" ?>
<gpx xmlns="http://www.topografix.com/GPX/1/1" xmlns:xsi="http://www.w3.org/2001/XMLSchema-instance" xsi:schemaLocation="http://www.topografix.com/GPX/1/1 http://www.topografix.com/GPX/1/1/gpx.xsd" version="1.1" creator="VisuGPX - https://www.visugpx.com">
  <metadata>
    <name>Joyeux Randonneurs à La Jemaye</name>
    <desc><![CDATA[Toutes les randonnées proposées sont accessible à tous. Il existe pratiquement toujours des possibilités  pour raccourcir le circuit à environ  6km.]]></desc>
  </metadata>
  <trk>
    <name><![CDATA[Tracé 17 mai 2016 13:49:08 La Jemaye]]></name>
    <trkseg>
      <trkpt lat="45.16075" lon="0.27876">
        <ele>89</ele>
        <time>2016-05-17T12:16:39Z</time>
      </trkpt>
      <trkpt lat="45.16073" lon="0.27874">
        <ele>86</ele>
        <time>2016-05-17T12:16:55Z</time>
      </trkpt>
      <trkpt lat="45.16074" lon="0.2786">
        <ele>84</ele>
        <time>2016-05-17T12:17:00Z</time>
      </trkpt>
      <trkpt lat="45.16078" lon="0.27857">
        <ele>86</ele>
        <time>2016-05-17T12:17:12Z</time>
      </trkpt>
      <trkpt lat="45.16082" lon="0.27855">
        <ele>84</ele>
        <time>2016-05-17T12:17:17Z</time>
      </trkpt>
      <trkpt lat="45.16086" lon="0.27856">
        <ele>84</ele>
        <time>2016-05-17T12:17:21Z</time>
      </trkpt>
      <trkpt lat="45.16092" lon="0.27858">
        <ele>85</ele>
        <time>2016-05-17T12:17:26Z</time>
      </trkpt>
      <trkpt lat="45.16097" lon="0.27857">
        <ele>85</ele>
        <time>2016-05-17T12:17:31Z</time>
      </trkpt>
      <trkpt lat="45.16102" lon="0.27859">
        <ele>84</ele>
        <time>2016-05-17T12:17:35Z</time>
      </trkpt>
      <trkpt lat="45.16103" lon="0.27865">
        <ele>87</ele>
        <time>2016-05-17T12:17:41Z</time>
      </trkpt>
      <trkpt lat="45.16109" lon="0.27868">
        <ele>89</ele>
        <time>2016-05-17T12:17:46Z</time>
      </trkpt>
      <trkpt lat="45.16112" lon="0.27871">
        <ele>91</ele>
        <time>2016-05-17T12:17:50Z</time>
      </trkpt>
      <trkpt lat="45.16117" lon="0.27872">
        <ele>92</ele>
        <time>2016-05-17T12:17:54Z</time>
      </trkpt>
      <trkpt lat="45.1612" lon="0.27879">
        <ele>93</ele>
        <time>2016-05-17T12:17:58Z</time>
      </trkpt>
      <trkpt lat="45.16124" lon="0.27882">
        <ele>94</ele>
        <time>2016-05-17T12:18:02Z</time>
      </trkpt>
      <trkpt lat="45.1613" lon="0.27886">
        <ele>94</ele>
        <time>2016-05-17T12:18:07Z</time>
      </trkpt>
      <trkpt lat="45.16134" lon="0.27888">
        <ele>95</ele>
        <time>2016-05-17T12:18:11Z</time>
      </trkpt>
      <trkpt lat="45.1614" lon="0.27889">
        <ele>94</ele>
        <time>2016-05-17T12:18:15Z</time>
      </trkpt>
      <trkpt lat="45.16145" lon="0.27892">
        <ele>96</ele>
        <time>2016-05-17T12:18:20Z</time>
      </trkpt>
      <trkpt lat="45.16148" lon="0.27896">
        <ele>98</ele>
        <time>2016-05-17T12:18:25Z</time>
      </trkpt>
      <trkpt lat="45.16154" lon="0.27899">
        <ele>97</ele>
        <time>2016-05-17T12:18:30Z</time>
      </trkpt>
      <trkpt lat="45.16157" lon="0.27903">
        <ele>99</ele>
        <time>2016-05-17T12:18:35Z</time>
      </trkpt>
      <trkpt lat="45.16164" lon="0.27906">
        <ele>97</ele>
        <time>2016-05-17T12:18:39Z</time>
      </trkpt>
      <trkpt lat="45.16168" lon="0.27908">
        <ele>96</ele>
        <time>2016-05-17T12:18:44Z</time>
      </trkpt>
      <trkpt lat="45.16173" lon="0.27909">
        <ele>96</ele>
        <time>2016-05-17T12:18:48Z</time>
      </trkpt>
      <trkpt lat="45.16178" lon="0.27909">
        <ele>97</ele>
        <time>2016-05-17T12:18:52Z</time>
      </trkpt>
      <trkpt lat="45.16183" lon="0.27908">
        <ele>98</ele>
        <time>2016-05-17T12:18:56Z</time>
      </trkpt>
      <trkpt lat="45.16188" lon="0.27907">
        <ele>98</ele>
        <time>2016-05-17T12:19:00Z</time>
      </trkpt>
      <trkpt lat="45.16194" lon="0.27907">
        <ele>98</ele>
        <time>2016-05-17T12:19:04Z</time>
      </trkpt>
      <trkpt lat="45.16199" lon="0.27907">
        <ele>97</ele>
        <time>2016-05-17T12:19:08Z</time>
      </trkpt>
      <trkpt lat="45.16203" lon="0.27909">
        <ele>97</ele>
        <time>2016-05-17T12:19:12Z</time>
      </trkpt>
      <trkpt lat="45.16208" lon="0.27912">
        <ele>97</ele>
        <time>2016-05-17T12:19:16Z</time>
      </trkpt>
      <trkpt lat="45.16214" lon="0.27915">
        <ele>97</ele>
        <time>2016-05-17T12:19:21Z</time>
      </trkpt>
      <trkpt lat="45.16218" lon="0.27918">
        <ele>97</ele>
        <time>2016-05-17T12:19:25Z</time>
      </trkpt>
      <trkpt lat="45.16223" lon="0.27921">
        <ele>97</ele>
        <time>2016-05-17T12:19:29Z</time>
      </trkpt>
      <trkpt lat="45.16226" lon="0.27924">
        <ele>97</ele>
        <time>2016-05-17T12:19:33Z</time>
      </trkpt>
      <trkpt lat="45.16232" lon="0.27927">
        <ele>96</ele>
        <time>2016-05-17T12:19:38Z</time>
      </trkpt>
      <trkpt lat="45.16237" lon="0.27931">
        <ele>97</ele>
        <time>2016-05-17T12:19:43Z</time>
      </trkpt>
      <trkpt lat="45.16241" lon="0.27932">
        <ele>97</ele>
        <time>2016-05-17T12:19:47Z</time>
      </trkpt>
      <trkpt lat="45.16245" lon="0.27932">
        <ele>96</ele>
        <time>2016-05-17T12:19:54Z</time>
      </trkpt>
      <trkpt lat="45.16249" lon="0.27934">
        <ele>96</ele>
        <time>2016-05-17T12:19:59Z</time>
      </trkpt>
      <trkpt lat="45.16252" lon="0.27938">
        <ele>97</ele>
        <time>2016-05-17T12:20:03Z</time>
      </trkpt>
      <trkpt lat="45.16256" lon="0.2794">
        <ele>98</ele>
        <time>2016-05-17T12:20:08Z</time>
      </trkpt>
      <trkpt lat="45.16259" lon="0.27943">
        <ele>100</ele>
        <time>2016-05-17T12:20:13Z</time>
      </trkpt>
      <trkpt lat="45.16262" lon="0.27947">
        <ele>103</ele>
        <time>2016-05-17T12:20:18Z</time>
      </trkpt>
      <trkpt lat="45.16265" lon="0.2795">
        <ele>105</ele>
        <time>2016-05-17T12:20:24Z</time>
      </trkpt>
      <trkpt lat="45.16269" lon="0.27952">
        <ele>106</ele>
        <time>2016-05-17T12:20:29Z</time>
      </trkpt>
      <trkpt lat="45.16274" lon="0.27953">
        <ele>104</ele>
        <time>2016-05-17T12:20:33Z</time>
      </trkpt>
      <trkpt lat="45.16279" lon="0.27957">
        <ele>104</ele>
        <time>2016-05-17T12:20:38Z</time>
      </trkpt>
      <trkpt lat="45.16282" lon="0.2796">
        <ele>104</ele>
        <time>2016-05-17T12:20:42Z</time>
      </trkpt>
      <trkpt lat="45.16287" lon="0.27963">
        <ele>105</ele>
        <time>2016-05-17T12:20:47Z</time>
      </trkpt>
      <trkpt lat="45.1629" lon="0.27967">
        <ele>106</ele>
        <time>2016-05-17T12:20:52Z</time>
      </trkpt>
      <trkpt lat="45.16295" lon="0.27969">
        <ele>108</ele>
        <time>2016-05-17T12:20:57Z</time>
      </trkpt>
      <trkpt lat="45.163" lon="0.27971">
        <ele>108</ele>
        <time>2016-05-17T12:21:01Z</time>
      </trkpt>
      <trkpt lat="45.16303" lon="0.27972">
        <ele>109</ele>
        <time>2016-05-17T12:21:06Z</time>
      </trkpt>
      <trkpt lat="45.16308" lon="0.27973">
        <ele>111</ele>
        <time>2016-05-17T12:21:10Z</time>
      </trkpt>
      <trkpt lat="45.16313" lon="0.27974">
        <ele>114</ele>
        <time>2016-05-17T12:21:15Z</time>
      </trkpt>
      <trkpt lat="45.16318" lon="0.27973">
        <ele>114</ele>
        <time>2016-05-17T12:21:20Z</time>
      </trkpt>
      <trkpt lat="45.16326" lon="0.2797">
        <ele>110</ele>
        <time>2016-05-17T12:21:24Z</time>
      </trkpt>
      <trkpt lat="45.16334" lon="0.27969">
        <ele>106</ele>
        <time>2016-05-17T12:21:29Z</time>
      </trkpt>
      <trkpt lat="45.16339" lon="0.27967">
        <ele>104</ele>
        <time>2016-05-17T12:21:33Z</time>
      </trkpt>
      <trkpt lat="45.16343" lon="0.27963">
        <ele>104</ele>
        <time>2016-05-17T12:21:38Z</time>
      </trkpt>
      <trkpt lat="45.16348" lon="0.2796">
        <ele>103</ele>
        <time>2016-05-17T12:21:42Z</time>
      </trkpt>
      <trkpt lat="45.16351" lon="0.27956">
        <ele>105</ele>
        <time>2016-05-17T12:21:46Z</time>
      </trkpt>
      <trkpt lat="45.16355" lon="0.27954">
        <ele>109</ele>
        <time>2016-05-17T12:21:50Z</time>
      </trkpt>
      <trkpt lat="45.16358" lon="0.27951">
        <ele>109</ele>
        <time>2016-05-17T12:21:54Z</time>
      </trkpt>
      <trkpt lat="45.16361" lon="0.27942">
        <ele>108</ele>
        <time>2016-05-17T12:21:58Z</time>
      </trkpt>
      <trkpt lat="45.16365" lon="0.2794">
        <ele>110</ele>
        <time>2016-05-17T12:22:03Z</time>
      </trkpt>
      <trkpt lat="45.16368" lon="0.27937">
        <ele>111</ele>
        <time>2016-05-17T12:22:07Z</time>
      </trkpt>
      <trkpt lat="45.16373" lon="0.27932">
        <ele>112</ele>
        <time>2016-05-17T12:22:12Z</time>
      </trkpt>
      <trkpt lat="45.16376" lon="0.27928">
        <ele>111</ele>
        <time>2016-05-17T12:22:16Z</time>
      </trkpt>
      <trkpt lat="45.1638" lon="0.27922">
        <ele>111</ele>
        <time>2016-05-17T12:22:21Z</time>
      </trkpt>
      <trkpt lat="45.16384" lon="0.27918">
        <ele>112</ele>
        <time>2016-05-17T12:22:25Z</time>
      </trkpt>
      <trkpt lat="45.16389" lon="0.27911">
        <ele>112</ele>
        <time>2016-05-17T12:22:30Z</time>
      </trkpt>
      <trkpt lat="45.16393" lon="0.27907">
        <ele>115</ele>
        <time>2016-05-17T12:22:35Z</time>
      </trkpt>
      <trkpt lat="45.16398" lon="0.27903">
        <ele>114</ele>
        <time>2016-05-17T12:22:39Z</time>
      </trkpt>
      <trkpt lat="45.16403" lon="0.27899">
        <ele>113</ele>
        <time>2016-05-17T12:22:43Z</time>
      </trkpt>
      <trkpt lat="45.16408" lon="0.27894">
        <ele>112</ele>
        <time>2016-05-17T12:22:47Z</time>
      </trkpt>
      <trkpt lat="45.16412" lon="0.27889">
        <ele>111</ele>
        <time>2016-05-17T12:22:51Z</time>
      </trkpt>
      <trkpt lat="45.16416" lon="0.27884">
        <ele>112</ele>
        <time>2016-05-17T12:22:56Z</time>
      </trkpt>
      <trkpt lat="45.16423" lon="0.2788">
        <ele>111</ele>
        <time>2016-05-17T12:23:01Z</time>
      </trkpt>
      <trkpt lat="45.16427" lon="0.27874">
        <ele>111</ele>
        <time>2016-05-17T12:23:05Z</time>
      </trkpt>
      <trkpt lat="45.1643" lon="0.27869">
        <ele>111</ele>
        <time>2016-05-17T12:23:09Z</time>
      </trkpt>
      <trkpt lat="45.16436" lon="0.27866">
        <ele>111</ele>
        <time>2016-05-17T12:23:13Z</time>
      </trkpt>
      <trkpt lat="45.16441" lon="0.27863">
        <ele>109</ele>
        <time>2016-05-17T12:23:17Z</time>
      </trkpt>
      <trkpt lat="45.16444" lon="0.27859">
        <ele>109</ele>
        <time>2016-05-17T12:23:21Z</time>
      </trkpt>
      <trkpt lat="45.16449" lon="0.27854">
        <ele>110</ele>
        <time>2016-05-17T12:23:26Z</time>
      </trkpt>
      <trkpt lat="45.16452" lon="0.27845">
        <ele>106</ele>
        <time>2016-05-17T12:23:30Z</time>
      </trkpt>
      <trkpt lat="45.16457" lon="0.27841">
        <ele>105</ele>
        <time>2016-05-17T12:23:35Z</time>
      </trkpt>
      <trkpt lat="45.16461" lon="0.27838">
        <ele>105</ele>
        <time>2016-05-17T12:23:40Z</time>
      </trkpt>
      <trkpt lat="45.16466" lon="0.27835">
        <ele>104</ele>
        <time>2016-05-17T12:23:44Z</time>
      </trkpt>
      <trkpt lat="45.1647" lon="0.27831">
        <ele>104</ele>
        <time>2016-05-17T12:23:48Z</time>
      </trkpt>
      <trkpt lat="45.16474" lon="0.27827">
        <ele>104</ele>
        <time>2016-05-17T12:23:52Z</time>
      </trkpt>
      <trkpt lat="45.16477" lon="0.27822">
        <ele>103</ele>
        <time>2016-05-17T12:23:56Z</time>
      </trkpt>
      <trkpt lat="45.16481" lon="0.27817">
        <ele>104</ele>
        <time>2016-05-17T12:24:01Z</time>
      </trkpt>
      <trkpt lat="45.16486" lon="0.27814">
        <ele>104</ele>
        <time>2016-05-17T12:24:05Z</time>
      </trkpt>
      <trkpt lat="45.16491" lon="0.2781">
        <ele>104</ele>
        <time>2016-05-17T12:24:10Z</time>
      </trkpt>
      <trkpt lat="45.16496" lon="0.27805">
        <ele>104</ele>
        <time>2016-05-17T12:24:15Z</time>
      </trkpt>
      <trkpt lat="45.16499" lon="0.27804">
        <ele>104</ele>
        <time>2016-05-17T12:24:19Z</time>
      </trkpt>
      <trkpt lat="45.16503" lon="0.27801">
        <ele>104</ele>
        <time>2016-05-17T12:24:23Z</time>
      </trkpt>
      <trkpt lat="45.16508" lon="0.27802">
        <ele>105</ele>
        <time>2016-05-17T12:24:27Z</time>
      </trkpt>
      <trkpt lat="45.16514" lon="0.278">
        <ele>107</ele>
        <time>2016-05-17T12:24:32Z</time>
      </trkpt>
      <trkpt lat="45.1652" lon="0.278">
        <ele>107</ele>
        <time>2016-05-17T12:24:36Z</time>
      </trkpt>
      <trkpt lat="45.16526" lon="0.27801">
        <ele>107</ele>
        <time>2016-05-17T12:24:41Z</time>
      </trkpt>
      <trkpt lat="45.16531" lon="0.27798">
        <ele>107</ele>
        <time>2016-05-17T12:24:46Z</time>
      </trkpt>
      <trkpt lat="45.16535" lon="0.27796">
        <ele>107</ele>
        <time>2016-05-17T12:24:51Z</time>
      </trkpt>
      <trkpt lat="45.1654" lon="0.27796">
        <ele>107</ele>
        <time>2016-05-17T12:24:55Z</time>
      </trkpt>
      <trkpt lat="45.16547" lon="0.27796">
        <ele>105</ele>
        <time>2016-05-17T12:25:00Z</time>
      </trkpt>
      <trkpt lat="45.16551" lon="0.27796">
        <ele>105</ele>
        <time>2016-05-17T12:25:05Z</time>
      </trkpt>
      <trkpt lat="45.16555" lon="0.27799">
        <ele>107</ele>
        <time>2016-05-17T12:25:10Z</time>
      </trkpt>
      <trkpt lat="45.16559" lon="0.278">
        <ele>107</ele>
        <time>2016-05-17T12:25:14Z</time>
      </trkpt>
      <trkpt lat="45.16563" lon="0.278">
        <ele>107</ele>
        <time>2016-05-17T12:25:18Z</time>
      </trkpt>
      <trkpt lat="45.16568" lon="0.278">
        <ele>110</ele>
        <time>2016-05-17T12:25:23Z</time>
      </trkpt>
      <trkpt lat="45.16571" lon="0.27799">
        <ele>110</ele>
        <time>2016-05-17T12:25:28Z</time>
      </trkpt>
      <trkpt lat="45.16576" lon="0.27797">
        <ele>107</ele>
        <time>2016-05-17T12:25:36Z</time>
      </trkpt>
      <trkpt lat="45.16579" lon="0.27798">
        <ele>103</ele>
        <time>2016-05-17T12:25:48Z</time>
      </trkpt>
      <trkpt lat="45.16583" lon="0.27796">
        <ele>105</ele>
        <time>2016-05-17T12:26:03Z</time>
      </trkpt>
      <trkpt lat="45.16585" lon="0.27791">
        <ele>107</ele>
        <time>2016-05-17T12:26:31Z</time>
      </trkpt>
      <trkpt lat="45.16589" lon="0.2779">
        <ele>107</ele>
        <time>2016-05-17T12:26:35Z</time>
      </trkpt>
      <trkpt lat="45.16598" lon="0.27784">
        <ele>108</ele>
        <time>2016-05-17T12:26:40Z</time>
      </trkpt>
      <trkpt lat="45.16606" lon="0.27781">
        <ele>109</ele>
        <time>2016-05-17T12:26:45Z</time>
      </trkpt>
      <trkpt lat="45.16609" lon="0.27776">
        <ele>112</ele>
        <time>2016-05-17T12:26:49Z</time>
      </trkpt>
      <trkpt lat="45.16615" lon="0.2777">
        <ele>112</ele>
        <time>2016-05-17T12:26:54Z</time>
      </trkpt>
      <trkpt lat="45.1662" lon="0.2776">
        <ele>110</ele>
        <time>2016-05-17T12:26:59Z</time>
      </trkpt>
      <trkpt lat="45.16623" lon="0.27757">
        <ele>113</ele>
        <time>2016-05-17T12:27:04Z</time>
      </trkpt>
      <trkpt lat="45.16626" lon="0.27754">
        <ele>113</ele>
        <time>2016-05-17T12:27:08Z</time>
      </trkpt>
      <trkpt lat="45.1663" lon="0.27751">
        <ele>113</ele>
        <time>2016-05-17T12:27:13Z</time>
      </trkpt>
      <trkpt lat="45.16635" lon="0.27744">
        <ele>112</ele>
        <time>2016-05-17T12:27:17Z</time>
      </trkpt>
      <trkpt lat="45.16639" lon="0.27734">
        <ele>111</ele>
        <time>2016-05-17T12:27:22Z</time>
      </trkpt>
      <trkpt lat="45.16643" lon="0.27724">
        <ele>110</ele>
        <time>2016-05-17T12:27:27Z</time>
      </trkpt>
      <trkpt lat="45.16647" lon="0.27716">
        <ele>109</ele>
        <time>2016-05-17T12:27:31Z</time>
      </trkpt>
      <trkpt lat="45.16651" lon="0.27714">
        <ele>113</ele>
        <time>2016-05-17T12:27:36Z</time>
      </trkpt>
      <trkpt lat="45.16655" lon="0.27711">
        <ele>111</ele>
        <time>2016-05-17T12:27:40Z</time>
      </trkpt>
      <trkpt lat="45.16655" lon="0.27701">
        <ele>109</ele>
        <time>2016-05-17T12:27:44Z</time>
      </trkpt>
      <trkpt lat="45.16657" lon="0.27695">
        <ele>110</ele>
        <time>2016-05-17T12:27:48Z</time>
      </trkpt>
      <trkpt lat="45.1666" lon="0.27684">
        <ele>106</ele>
        <time>2016-05-17T12:27:52Z</time>
      </trkpt>
      <trkpt lat="45.16663" lon="0.27678">
        <ele>106</ele>
        <time>2016-05-17T12:27:56Z</time>
      </trkpt>
      <trkpt lat="45.16666" lon="0.27672">
        <ele>106</ele>
        <time>2016-05-17T12:28:00Z</time>
      </trkpt>
      <trkpt lat="45.16669" lon="0.27668">
        <ele>108</ele>
        <time>2016-05-17T12:28:05Z</time>
      </trkpt>
      <trkpt lat="45.16669" lon="0.27658">
        <ele>102</ele>
        <time>2016-05-17T12:28:09Z</time>
      </trkpt>
      <trkpt lat="45.16671" lon="0.2765">
        <ele>99</ele>
        <time>2016-05-17T12:28:13Z</time>
      </trkpt>
      <trkpt lat="45.16674" lon="0.27645">
        <ele>98</ele>
        <time>2016-05-17T12:28:18Z</time>
      </trkpt>
      <trkpt lat="45.16676" lon="0.27639">
        <ele>97</ele>
        <time>2016-05-17T12:28:22Z</time>
      </trkpt>
      <trkpt lat="45.16678" lon="0.27634">
        <ele>97</ele>
        <time>2016-05-17T12:28:26Z</time>
      </trkpt>
      <trkpt lat="45.16683" lon="0.27632">
        <ele>98</ele>
        <time>2016-05-17T12:28:31Z</time>
      </trkpt>
      <trkpt lat="45.16685" lon="0.27628">
        <ele>98</ele>
        <time>2016-05-17T12:28:37Z</time>
      </trkpt>
      <trkpt lat="45.16689" lon="0.27629">
        <ele>100</ele>
        <time>2016-05-17T12:28:43Z</time>
      </trkpt>
      <trkpt lat="45.16695" lon="0.27626">
        <ele>102</ele>
        <time>2016-05-17T12:28:48Z</time>
      </trkpt>
      <trkpt lat="45.167" lon="0.2762">
        <ele>103</ele>
        <time>2016-05-17T12:28:53Z</time>
      </trkpt>
      <trkpt lat="45.16705" lon="0.2762">
        <ele>104</ele>
        <time>2016-05-17T12:28:57Z</time>
      </trkpt>
      <trkpt lat="45.1671" lon="0.27616">
        <ele>103</ele>
        <time>2016-05-17T12:29:02Z</time>
      </trkpt>
      <trkpt lat="45.16716" lon="0.27614">
        <ele>104</ele>
        <time>2016-05-17T12:29:07Z</time>
      </trkpt>
      <trkpt lat="45.16718" lon="0.27609">
        <ele>104</ele>
        <time>2016-05-17T12:29:11Z</time>
      </trkpt>
      <trkpt lat="45.1672" lon="0.27602">
        <ele>100</ele>
        <time>2016-05-17T12:29:15Z</time>
      </trkpt>
      <trkpt lat="45.16726" lon="0.27599">
        <ele>99</ele>
        <time>2016-05-17T12:29:19Z</time>
      </trkpt>
      <trkpt lat="45.16723" lon="0.2759">
        <ele>99</ele>
        <time>2016-05-17T12:29:23Z</time>
      </trkpt>
      <trkpt lat="45.16728" lon="0.27587">
        <ele>101</ele>
        <time>2016-05-17T12:29:27Z</time>
      </trkpt>
      <trkpt lat="45.1673" lon="0.27585">
        <ele>100</ele>
        <time>2016-05-17T12:29:32Z</time>
      </trkpt>
      <trkpt lat="45.16734" lon="0.27578">
        <ele>100</ele>
        <time>2016-05-17T12:29:37Z</time>
      </trkpt>
      <trkpt lat="45.16738" lon="0.27576">
        <ele>102</ele>
        <time>2016-05-17T12:29:42Z</time>
      </trkpt>
      <trkpt lat="45.16745" lon="0.27576">
        <ele>99</ele>
        <time>2016-05-17T12:29:46Z</time>
      </trkpt>
      <trkpt lat="45.16749" lon="0.2757">
        <ele>99</ele>
        <time>2016-05-17T12:29:51Z</time>
      </trkpt>
      <trkpt lat="45.16752" lon="0.27567">
        <ele>99</ele>
        <time>2016-05-17T12:29:56Z</time>
      </trkpt>
      <trkpt lat="45.16759" lon="0.27559">
        <ele>93</ele>
        <time>2016-05-17T12:30:00Z</time>
      </trkpt>
      <trkpt lat="45.16763" lon="0.27551">
        <ele>91</ele>
        <time>2016-05-17T12:30:04Z</time>
      </trkpt>
      <trkpt lat="45.16767" lon="0.27547">
        <ele>92</ele>
        <time>2016-05-17T12:30:08Z</time>
      </trkpt>
      <trkpt lat="45.16771" lon="0.27547">
        <ele>95</ele>
        <time>2016-05-17T12:30:13Z</time>
      </trkpt>
      <trkpt lat="45.16775" lon="0.27546">
        <ele>96</ele>
        <time>2016-05-17T12:30:21Z</time>
      </trkpt>
      <trkpt lat="45.16777" lon="0.27541">
        <ele>97</ele>
        <time>2016-05-17T12:30:35Z</time>
      </trkpt>
      <trkpt lat="45.16779" lon="0.27536">
        <ele>95</ele>
        <time>2016-05-17T12:30:47Z</time>
      </trkpt>
      <trkpt lat="45.16783" lon="0.27532">
        <ele>95</ele>
        <time>2016-05-17T12:30:51Z</time>
      </trkpt>
      <trkpt lat="45.16784" lon="0.27526">
        <ele>96</ele>
        <time>2016-05-17T12:30:56Z</time>
      </trkpt>
      <trkpt lat="45.16786" lon="0.27521">
        <ele>99</ele>
        <time>2016-05-17T12:31:05Z</time>
      </trkpt>
      <trkpt lat="45.16789" lon="0.27516">
        <ele>104</ele>
        <time>2016-05-17T12:31:12Z</time>
      </trkpt>
      <trkpt lat="45.16792" lon="0.27511">
        <ele>107</ele>
        <time>2016-05-17T12:31:17Z</time>
      </trkpt>
      <trkpt lat="45.16794" lon="0.27511">
        <ele>106</ele>
        <time>2016-05-17T12:31:25Z</time>
      </trkpt>
      <trkpt lat="45.16806" lon="0.27504">
        <ele>105</ele>
        <time>2016-05-17T12:31:29Z</time>
      </trkpt>
      <trkpt lat="45.16812" lon="0.27502">
        <ele>104</ele>
        <time>2016-05-17T12:31:33Z</time>
      </trkpt>
      <trkpt lat="45.16818" lon="0.27495">
        <ele>103</ele>
        <time>2016-05-17T12:31:37Z</time>
      </trkpt>
      <trkpt lat="45.16825" lon="0.27494">
        <ele>96</ele>
        <time>2016-05-17T12:31:41Z</time>
      </trkpt>
      <trkpt lat="45.16823" lon="0.27488">
        <ele>96</ele>
        <time>2016-05-17T12:31:45Z</time>
      </trkpt>
      <trkpt lat="45.16825" lon="0.27485">
        <ele>97</ele>
        <time>2016-05-17T12:31:50Z</time>
      </trkpt>
      <trkpt lat="45.1683" lon="0.27474">
        <ele>93</ele>
        <time>2016-05-17T12:31:55Z</time>
      </trkpt>
      <trkpt lat="45.16833" lon="0.27471">
        <ele>95</ele>
        <time>2016-05-17T12:32:03Z</time>
      </trkpt>
      <trkpt lat="45.16839" lon="0.2747">
        <ele>98</ele>
        <time>2016-05-17T12:32:08Z</time>
      </trkpt>
      <trkpt lat="45.16843" lon="0.2747">
        <ele>95</ele>
        <time>2016-05-17T12:32:13Z</time>
      </trkpt>
      <trkpt lat="45.1685" lon="0.27467">
        <ele>92</ele>
        <time>2016-05-17T12:32:17Z</time>
      </trkpt>
      <trkpt lat="45.1686" lon="0.27456">
        <ele>90</ele>
        <time>2016-05-17T12:32:21Z</time>
      </trkpt>
      <trkpt lat="45.16865" lon="0.2745">
        <ele>91</ele>
        <time>2016-05-17T12:32:25Z</time>
      </trkpt>
      <trkpt lat="45.16868" lon="0.27449">
        <ele>94</ele>
        <time>2016-05-17T12:32:35Z</time>
      </trkpt>
      <trkpt lat="45.16873" lon="0.27449">
        <ele>96</ele>
        <time>2016-05-17T12:32:39Z</time>
      </trkpt>
      <trkpt lat="45.16879" lon="0.27447">
        <ele>96</ele>
        <time>2016-05-17T12:32:44Z</time>
      </trkpt>
      <trkpt lat="45.16885" lon="0.27444">
        <ele>94</ele>
        <time>2016-05-17T12:32:49Z</time>
      </trkpt>
      <trkpt lat="45.16891" lon="0.27441">
        <ele>96</ele>
        <time>2016-05-17T12:32:53Z</time>
      </trkpt>
      <trkpt lat="45.16895" lon="0.27442">
        <ele>98</ele>
        <time>2016-05-17T12:32:57Z</time>
      </trkpt>
      <trkpt lat="45.16898" lon="0.27441">
        <ele>101</ele>
        <time>2016-05-17T12:33:02Z</time>
      </trkpt>
      <trkpt lat="45.16903" lon="0.27436">
        <ele>97</ele>
        <time>2016-05-17T12:33:06Z</time>
      </trkpt>
      <trkpt lat="45.16909" lon="0.27431">
        <ele>95</ele>
        <time>2016-05-17T12:33:10Z</time>
      </trkpt>
      <trkpt lat="45.16915" lon="0.27426">
        <ele>93</ele>
        <time>2016-05-17T12:33:15Z</time>
      </trkpt>
      <trkpt lat="45.1692" lon="0.27427">
        <ele>91</ele>
        <time>2016-05-17T12:33:20Z</time>
      </trkpt>
      <trkpt lat="45.16923" lon="0.27429">
        <ele>95</ele>
        <time>2016-05-17T12:33:24Z</time>
      </trkpt>
      <trkpt lat="45.16929" lon="0.2743">
        <ele>95</ele>
        <time>2016-05-17T12:33:28Z</time>
      </trkpt>
      <trkpt lat="45.16933" lon="0.27427">
        <ele>95</ele>
        <time>2016-05-17T12:33:32Z</time>
      </trkpt>
      <trkpt lat="45.1694" lon="0.27423">
        <ele>90</ele>
        <time>2016-05-17T12:33:36Z</time>
      </trkpt>
      <trkpt lat="45.16945" lon="0.27419">
        <ele>92</ele>
        <time>2016-05-17T12:33:40Z</time>
      </trkpt>
      <trkpt lat="45.16948" lon="0.2741">
        <ele>93</ele>
        <time>2016-05-17T12:33:45Z</time>
      </trkpt>
      <trkpt lat="45.16951" lon="0.27407">
        <ele>94</ele>
        <time>2016-05-17T12:33:51Z</time>
      </trkpt>
      <trkpt lat="45.16954" lon="0.27406">
        <ele>93</ele>
        <time>2016-05-17T12:33:58Z</time>
      </trkpt>
      <trkpt lat="45.16958" lon="0.27396">
        <ele>95</ele>
        <time>2016-05-17T12:34:02Z</time>
      </trkpt>
      <trkpt lat="45.16961" lon="0.27387">
        <ele>96</ele>
        <time>2016-05-17T12:34:07Z</time>
      </trkpt>
      <trkpt lat="45.16964" lon="0.27373">
        <ele>91</ele>
        <time>2016-05-17T12:34:11Z</time>
      </trkpt>
      <trkpt lat="45.16966" lon="0.27366">
        <ele>92</ele>
        <time>2016-05-17T12:34:15Z</time>
      </trkpt>
      <trkpt lat="45.16964" lon="0.2736">
        <ele>90</ele>
        <time>2016-05-17T12:34:20Z</time>
      </trkpt>
      <trkpt lat="45.16965" lon="0.27353">
        <ele>94</ele>
        <time>2016-05-17T12:34:25Z</time>
      </trkpt>
      <trkpt lat="45.16967" lon="0.27346">
        <ele>94</ele>
        <time>2016-05-17T12:34:29Z</time>
      </trkpt>
      <trkpt lat="45.16968" lon="0.2734">
        <ele>93</ele>
        <time>2016-05-17T12:34:34Z</time>
      </trkpt>
      <trkpt lat="45.16968" lon="0.27335">
        <ele>93</ele>
        <time>2016-05-17T12:34:42Z</time>
      </trkpt>
      <trkpt lat="45.16968" lon="0.27329">
        <ele>91</ele>
        <time>2016-05-17T12:34:48Z</time>
      </trkpt>
      <trkpt lat="45.16972" lon="0.27327">
        <ele>94</ele>
        <time>2016-05-17T12:34:55Z</time>
      </trkpt>
      <trkpt lat="45.16975" lon="0.27324">
        <ele>92</ele>
        <time>2016-05-17T12:35:03Z</time>
      </trkpt>
      <trkpt lat="45.16984" lon="0.27323">
        <ele>93</ele>
        <time>2016-05-17T12:35:07Z</time>
      </trkpt>
      <trkpt lat="45.1699" lon="0.27322">
        <ele>96</ele>
        <time>2016-05-17T12:35:12Z</time>
      </trkpt>
      <trkpt lat="45.16996" lon="0.27319">
        <ele>95</ele>
        <time>2016-05-17T12:35:16Z</time>
      </trkpt>
      <trkpt lat="45.17004" lon="0.27315">
        <ele>93</ele>
        <time>2016-05-17T12:35:21Z</time>
      </trkpt>
      <trkpt lat="45.17003" lon="0.27307">
        <ele>95</ele>
        <time>2016-05-17T12:35:25Z</time>
      </trkpt>
      <trkpt lat="45.17005" lon="0.273">
        <ele>92</ele>
        <time>2016-05-17T12:35:30Z</time>
      </trkpt>
      <trkpt lat="45.17008" lon="0.27294">
        <ele>90</ele>
        <time>2016-05-17T12:35:34Z</time>
      </trkpt>
      <trkpt lat="45.17012" lon="0.27293">
        <ele>91</ele>
        <time>2016-05-17T12:35:40Z</time>
      </trkpt>
      <trkpt lat="45.17016" lon="0.27292">
        <ele>90</ele>
        <time>2016-05-17T12:35:45Z</time>
      </trkpt>
      <trkpt lat="45.1702" lon="0.2729">
        <ele>93</ele>
        <time>2016-05-17T12:35:49Z</time>
      </trkpt>
      <trkpt lat="45.17027" lon="0.27287">
        <ele>92</ele>
        <time>2016-05-17T12:35:53Z</time>
      </trkpt>
      <trkpt lat="45.17031" lon="0.27286">
        <ele>92</ele>
        <time>2016-05-17T12:35:58Z</time>
      </trkpt>
      <trkpt lat="45.17034" lon="0.27284">
        <ele>94</ele>
        <time>2016-05-17T12:36:03Z</time>
      </trkpt>
      <trkpt lat="45.1704" lon="0.27282">
        <ele>94</ele>
        <time>2016-05-17T12:36:08Z</time>
      </trkpt>
      <trkpt lat="45.17043" lon="0.27277">
        <ele>93</ele>
        <time>2016-05-17T12:36:12Z</time>
      </trkpt>
      <trkpt lat="45.17047" lon="0.27276">
        <ele>93</ele>
        <time>2016-05-17T12:36:17Z</time>
      </trkpt>
      <trkpt lat="45.17057" lon="0.27268">
        <ele>93</ele>
        <time>2016-05-17T12:36:22Z</time>
      </trkpt>
      <trkpt lat="45.17059" lon="0.27261">
        <ele>90</ele>
        <time>2016-05-17T12:36:27Z</time>
      </trkpt>
      <trkpt lat="45.17063" lon="0.27261">
        <ele>89</ele>
        <time>2016-05-17T12:36:31Z</time>
      </trkpt>
      <trkpt lat="45.17067" lon="0.27258">
        <ele>90</ele>
        <time>2016-05-17T12:36:35Z</time>
      </trkpt>
      <trkpt lat="45.17074" lon="0.27258">
        <ele>90</ele>
        <time>2016-05-17T12:36:39Z</time>
      </trkpt>
      <trkpt lat="45.17078" lon="0.27256">
        <ele>95</ele>
        <time>2016-05-17T12:36:45Z</time>
      </trkpt>
      <trkpt lat="45.17082" lon="0.27255">
        <ele>97</ele>
        <time>2016-05-17T12:36:51Z</time>
      </trkpt>
      <trkpt lat="45.17084" lon="0.27252">
        <ele>96</ele>
        <time>2016-05-17T12:36:55Z</time>
      </trkpt>
      <trkpt lat="45.17088" lon="0.27246">
        <ele>92</ele>
        <time>2016-05-17T12:37:00Z</time>
      </trkpt>
      <trkpt lat="45.17092" lon="0.27244">
        <ele>94</ele>
        <time>2016-05-17T12:37:05Z</time>
      </trkpt>
      <trkpt lat="45.17101" lon="0.27242">
        <ele>94</ele>
        <time>2016-05-17T12:37:09Z</time>
      </trkpt>
      <trkpt lat="45.17107" lon="0.27235">
        <ele>93</ele>
        <time>2016-05-17T12:37:13Z</time>
      </trkpt>
      <trkpt lat="45.17114" lon="0.27227">
        <ele>89</ele>
        <time>2016-05-17T12:37:18Z</time>
      </trkpt>
      <trkpt lat="45.1712" lon="0.27224">
        <ele>90</ele>
        <time>2016-05-17T12:37:23Z</time>
      </trkpt>
      <trkpt lat="45.17125" lon="0.2722">
        <ele>90</ele>
        <time>2016-05-17T12:37:27Z</time>
      </trkpt>
      <trkpt lat="45.17129" lon="0.27219">
        <ele>93</ele>
        <time>2016-05-17T12:37:31Z</time>
      </trkpt>
      <trkpt lat="45.17134" lon="0.27216">
        <ele>91</ele>
        <time>2016-05-17T12:37:35Z</time>
      </trkpt>
      <trkpt lat="45.1714" lon="0.27214">
        <ele>89</ele>
        <time>2016-05-17T12:37:39Z</time>
      </trkpt>
      <trkpt lat="45.17144" lon="0.27213">
        <ele>89</ele>
        <time>2016-05-17T12:37:43Z</time>
      </trkpt>
      <trkpt lat="45.1715" lon="0.27209">
        <ele>90</ele>
        <time>2016-05-17T12:37:48Z</time>
      </trkpt>
      <trkpt lat="45.17155" lon="0.27209">
        <ele>91</ele>
        <time>2016-05-17T12:37:52Z</time>
      </trkpt>
      <trkpt lat="45.17161" lon="0.27202">
        <ele>92</ele>
        <time>2016-05-17T12:37:57Z</time>
      </trkpt>
      <trkpt lat="45.17167" lon="0.27196">
        <ele>95</ele>
        <time>2016-05-17T12:38:02Z</time>
      </trkpt>
      <trkpt lat="45.17171" lon="0.27197">
        <ele>92</ele>
        <time>2016-05-17T12:38:06Z</time>
      </trkpt>
      <trkpt lat="45.17175" lon="0.27195">
        <ele>91</ele>
        <time>2016-05-17T12:38:10Z</time>
      </trkpt>
      <trkpt lat="45.17183" lon="0.27187">
        <ele>91</ele>
        <time>2016-05-17T12:38:15Z</time>
      </trkpt>
      <trkpt lat="45.17187" lon="0.27187">
        <ele>86</ele>
        <time>2016-05-17T12:38:19Z</time>
      </trkpt>
      <trkpt lat="45.17191" lon="0.27185">
        <ele>86</ele>
        <time>2016-05-17T12:38:24Z</time>
      </trkpt>
      <trkpt lat="45.17196" lon="0.27183">
        <ele>85</ele>
        <time>2016-05-17T12:38:28Z</time>
      </trkpt>
      <trkpt lat="45.17202" lon="0.2718">
        <ele>87</ele>
        <time>2016-05-17T12:38:33Z</time>
      </trkpt>
      <trkpt lat="45.17207" lon="0.27178">
        <ele>87</ele>
        <time>2016-05-17T12:38:37Z</time>
      </trkpt>
      <trkpt lat="45.17211" lon="0.27176">
        <ele>91</ele>
        <time>2016-05-17T12:38:42Z</time>
      </trkpt>
      <trkpt lat="45.17215" lon="0.27172">
        <ele>92</ele>
        <time>2016-05-17T12:38:46Z</time>
      </trkpt>
      <trkpt lat="45.17221" lon="0.27172">
        <ele>94</ele>
        <time>2016-05-17T12:38:51Z</time>
      </trkpt>
      <trkpt lat="45.17226" lon="0.27174">
        <ele>93</ele>
        <time>2016-05-17T12:38:56Z</time>
      </trkpt>
      <trkpt lat="45.1723" lon="0.27173">
        <ele>94</ele>
        <time>2016-05-17T12:39:03Z</time>
      </trkpt>
      <trkpt lat="45.17237" lon="0.27168">
        <ele>96</ele>
        <time>2016-05-17T12:39:07Z</time>
      </trkpt>
      <trkpt lat="45.17242" lon="0.27167">
        <ele>98</ele>
        <time>2016-05-17T12:39:11Z</time>
      </trkpt>
      <trkpt lat="45.17246" lon="0.27167">
        <ele>97</ele>
        <time>2016-05-17T12:39:15Z</time>
      </trkpt>
      <trkpt lat="45.17249" lon="0.27168">
        <ele>99</ele>
        <time>2016-05-17T12:39:20Z</time>
      </trkpt>
      <trkpt lat="45.17253" lon="0.27167">
        <ele>99</ele>
        <time>2016-05-17T12:39:24Z</time>
      </trkpt>
      <trkpt lat="45.17257" lon="0.27167">
        <ele>100</ele>
        <time>2016-05-17T12:39:28Z</time>
      </trkpt>
      <trkpt lat="45.17264" lon="0.27162">
        <ele>95</ele>
        <time>2016-05-17T12:39:33Z</time>
      </trkpt>
      <trkpt lat="45.17274" lon="0.27159">
        <ele>92</ele>
        <time>2016-05-17T12:39:38Z</time>
      </trkpt>
      <trkpt lat="45.17278" lon="0.27161">
        <ele>92</ele>
        <time>2016-05-17T12:39:42Z</time>
      </trkpt>
      <trkpt lat="45.17281" lon="0.2716">
        <ele>91</ele>
        <time>2016-05-17T12:39:46Z</time>
      </trkpt>
      <trkpt lat="45.17286" lon="0.27162">
        <ele>89</ele>
        <time>2016-05-17T12:39:50Z</time>
      </trkpt>
      <trkpt lat="45.17292" lon="0.27162">
        <ele>89</ele>
        <time>2016-05-17T12:39:54Z</time>
      </trkpt>
      <trkpt lat="45.17296" lon="0.27163">
        <ele>95</ele>
        <time>2016-05-17T12:40:00Z</time>
      </trkpt>
      <trkpt lat="45.17301" lon="0.27163">
        <ele>96</ele>
        <time>2016-05-17T12:40:04Z</time>
      </trkpt>
      <trkpt lat="45.17304" lon="0.27167">
        <ele>99</ele>
        <time>2016-05-17T12:40:09Z</time>
      </trkpt>
      <trkpt lat="45.1731" lon="0.27167">
        <ele>96</ele>
        <time>2016-05-17T12:40:13Z</time>
      </trkpt>
      <trkpt lat="45.17316" lon="0.27164">
        <ele>95</ele>
        <time>2016-05-17T12:40:18Z</time>
      </trkpt>
      <trkpt lat="45.17324" lon="0.27165">
        <ele>97</ele>
        <time>2016-05-17T12:40:22Z</time>
      </trkpt>
      <trkpt lat="45.17328" lon="0.27167">
        <ele>103</ele>
        <time>2016-05-17T12:40:27Z</time>
      </trkpt>
      <trkpt lat="45.17331" lon="0.27173">
        <ele>103</ele>
        <time>2016-05-17T12:40:31Z</time>
      </trkpt>
      <trkpt lat="45.17341" lon="0.27176">
        <ele>96</ele>
        <time>2016-05-17T12:40:36Z</time>
      </trkpt>
      <trkpt lat="45.17347" lon="0.27177">
        <ele>95</ele>
        <time>2016-05-17T12:40:40Z</time>
      </trkpt>
      <trkpt lat="45.17353" lon="0.27179">
        <ele>89</ele>
        <time>2016-05-17T12:40:44Z</time>
      </trkpt>
      <trkpt lat="45.17359" lon="0.27182">
        <ele>85</ele>
        <time>2016-05-17T12:40:48Z</time>
      </trkpt>
      <trkpt lat="45.17364" lon="0.27184">
        <ele>83</ele>
        <time>2016-05-17T12:40:52Z</time>
      </trkpt>
      <trkpt lat="45.17372" lon="0.27188">
        <ele>79</ele>
        <time>2016-05-17T12:40:57Z</time>
      </trkpt>
      <trkpt lat="45.17375" lon="0.2719">
        <ele>76</ele>
        <time>2016-05-17T12:41:02Z</time>
      </trkpt>
      <trkpt lat="45.1738" lon="0.27195">
        <ele>75</ele>
        <time>2016-05-17T12:41:07Z</time>
      </trkpt>
      <trkpt lat="45.17385" lon="0.27194">
        <ele>77</ele>
        <time>2016-05-17T12:41:11Z</time>
      </trkpt>
      <trkpt lat="45.1739" lon="0.27199">
        <ele>76</ele>
        <time>2016-05-17T12:41:16Z</time>
      </trkpt>
      <trkpt lat="45.17394" lon="0.27203">
        <ele>75</ele>
        <time>2016-05-17T12:41:20Z</time>
      </trkpt>
      <trkpt lat="45.17399" lon="0.27204">
        <ele>78</ele>
        <time>2016-05-17T12:41:24Z</time>
      </trkpt>
      <trkpt lat="45.17405" lon="0.27207">
        <ele>78</ele>
        <time>2016-05-17T12:41:28Z</time>
      </trkpt>
      <trkpt lat="45.17408" lon="0.27211">
        <ele>79</ele>
        <time>2016-05-17T12:41:33Z</time>
      </trkpt>
      <trkpt lat="45.17412" lon="0.27217">
        <ele>81</ele>
        <time>2016-05-17T12:41:38Z</time>
      </trkpt>
      <trkpt lat="45.17417" lon="0.27221">
        <ele>79</ele>
        <time>2016-05-17T12:41:42Z</time>
      </trkpt>
      <trkpt lat="45.17422" lon="0.27222">
        <ele>83</ele>
        <time>2016-05-17T12:41:46Z</time>
      </trkpt>
      <trkpt lat="45.17427" lon="0.27224">
        <ele>85</ele>
        <time>2016-05-17T12:41:51Z</time>
      </trkpt>
      <trkpt lat="45.1743" lon="0.27227">
        <ele>85</ele>
        <time>2016-05-17T12:41:55Z</time>
      </trkpt>
      <trkpt lat="45.17436" lon="0.27228">
        <ele>83</ele>
        <time>2016-05-17T12:41:59Z</time>
      </trkpt>
      <trkpt lat="45.1744" lon="0.2723">
        <ele>83</ele>
        <time>2016-05-17T12:42:03Z</time>
      </trkpt>
      <trkpt lat="45.17444" lon="0.27229">
        <ele>81</ele>
        <time>2016-05-17T12:42:08Z</time>
      </trkpt>
      <trkpt lat="45.17449" lon="0.27229">
        <ele>82</ele>
        <time>2016-05-17T12:42:12Z</time>
      </trkpt>
      <trkpt lat="45.17453" lon="0.27231">
        <ele>83</ele>
        <time>2016-05-17T12:42:18Z</time>
      </trkpt>
      <trkpt lat="45.17457" lon="0.27231">
        <ele>87</ele>
        <time>2016-05-17T12:42:25Z</time>
      </trkpt>
      <trkpt lat="45.17461" lon="0.27231">
        <ele>88</ele>
        <time>2016-05-17T12:42:29Z</time>
      </trkpt>
      <trkpt lat="45.17467" lon="0.27234">
        <ele>86</ele>
        <time>2016-05-17T12:42:33Z</time>
      </trkpt>
      <trkpt lat="45.17474" lon="0.27235">
        <ele>85</ele>
        <time>2016-05-17T12:42:38Z</time>
      </trkpt>
      <trkpt lat="45.17481" lon="0.27241">
        <ele>83</ele>
        <time>2016-05-17T12:42:42Z</time>
      </trkpt>
      <trkpt lat="45.17489" lon="0.27243">
        <ele>79</ele>
        <time>2016-05-17T12:42:47Z</time>
      </trkpt>
      <trkpt lat="45.17492" lon="0.27246">
        <ele>82</ele>
        <time>2016-05-17T12:42:52Z</time>
      </trkpt>
      <trkpt lat="45.17499" lon="0.27247">
        <ele>75</ele>
        <time>2016-05-17T12:42:56Z</time>
      </trkpt>
      <trkpt lat="45.17502" lon="0.27249">
        <ele>77</ele>
        <time>2016-05-17T12:43:00Z</time>
      </trkpt>
      <trkpt lat="45.17506" lon="0.2725">
        <ele>79</ele>
        <time>2016-05-17T12:43:05Z</time>
      </trkpt>
      <trkpt lat="45.1751" lon="0.27253">
        <ele>76</ele>
        <time>2016-05-17T12:43:09Z</time>
      </trkpt>
      <trkpt lat="45.17514" lon="0.27252">
        <ele>80</ele>
        <time>2016-05-17T12:43:14Z</time>
      </trkpt>
      <trkpt lat="45.17519" lon="0.27256">
        <ele>78</ele>
        <time>2016-05-17T12:43:19Z</time>
      </trkpt>
      <trkpt lat="45.17523" lon="0.27259">
        <ele>81</ele>
        <time>2016-05-17T12:43:24Z</time>
      </trkpt>
      <trkpt lat="45.17528" lon="0.2726">
        <ele>81</ele>
        <time>2016-05-17T12:43:28Z</time>
      </trkpt>
      <trkpt lat="45.17532" lon="0.27261">
        <ele>79</ele>
        <time>2016-05-17T12:43:33Z</time>
      </trkpt>
      <trkpt lat="45.17539" lon="0.27264">
        <ele>77</ele>
        <time>2016-05-17T12:43:37Z</time>
      </trkpt>
      <trkpt lat="45.17543" lon="0.27266">
        <ele>81</ele>
        <time>2016-05-17T12:43:42Z</time>
      </trkpt>
      <trkpt lat="45.17546" lon="0.27266">
        <ele>82</ele>
        <time>2016-05-17T12:43:46Z</time>
      </trkpt>
      <trkpt lat="45.17552" lon="0.27268">
        <ele>81</ele>
        <time>2016-05-17T12:43:50Z</time>
      </trkpt>
      <trkpt lat="45.17555" lon="0.27268">
        <ele>84</ele>
        <time>2016-05-17T12:43:55Z</time>
      </trkpt>
      <trkpt lat="45.17559" lon="0.27267">
        <ele>87</ele>
        <time>2016-05-17T12:43:59Z</time>
      </trkpt>
      <trkpt lat="45.17563" lon="0.27267">
        <ele>88</ele>
        <time>2016-05-17T12:44:05Z</time>
      </trkpt>
      <trkpt lat="45.17569" lon="0.27266">
        <ele>89</ele>
        <time>2016-05-17T12:44:10Z</time>
      </trkpt>
      <trkpt lat="45.17573" lon="0.27266">
        <ele>98</ele>
        <time>2016-05-17T12:44:18Z</time>
      </trkpt>
      <trkpt lat="45.17577" lon="0.27268">
        <ele>98</ele>
        <time>2016-05-17T12:44:25Z</time>
      </trkpt>
      <trkpt lat="45.17582" lon="0.27269">
        <ele>102</ele>
        <time>2016-05-17T12:44:29Z</time>
      </trkpt>
      <trkpt lat="45.17586" lon="0.2727">
        <ele>101</ele>
        <time>2016-05-17T12:44:33Z</time>
      </trkpt>
      <trkpt lat="45.17591" lon="0.27268">
        <ele>107</ele>
        <time>2016-05-17T12:44:37Z</time>
      </trkpt>
      <trkpt lat="45.17594" lon="0.27267">
        <ele>108</ele>
        <time>2016-05-17T12:44:42Z</time>
      </trkpt>
      <trkpt lat="45.176" lon="0.27265">
        <ele>103</ele>
        <time>2016-05-17T12:44:46Z</time>
      </trkpt>
      <trkpt lat="45.17608" lon="0.27266">
        <ele>98</ele>
        <time>2016-05-17T12:44:51Z</time>
      </trkpt>
      <trkpt lat="45.17618" lon="0.27268">
        <ele>96</ele>
        <time>2016-05-17T12:44:56Z</time>
      </trkpt>
      <trkpt lat="45.17626" lon="0.27269">
        <ele>91</ele>
        <time>2016-05-17T12:45:00Z</time>
      </trkpt>
      <trkpt lat="45.1763" lon="0.27266">
        <ele>93</ele>
        <time>2016-05-17T12:45:05Z</time>
      </trkpt>
      <trkpt lat="45.17634" lon="0.27267">
        <ele>93</ele>
        <time>2016-05-17T12:45:09Z</time>
      </trkpt>
      <trkpt lat="45.17639" lon="0.27265">
        <ele>94</ele>
        <time>2016-05-17T12:45:13Z</time>
      </trkpt>
      <trkpt lat="45.17642" lon="0.27264">
        <ele>97</ele>
        <time>2016-05-17T12:45:18Z</time>
      </trkpt>
      <trkpt lat="45.17648" lon="0.27267">
        <ele>96</ele>
        <time>2016-05-17T12:45:22Z</time>
      </trkpt>
      <trkpt lat="45.17652" lon="0.27267">
        <ele>96</ele>
        <time>2016-05-17T12:45:27Z</time>
      </trkpt>
      <trkpt lat="45.17657" lon="0.27268">
        <ele>96</ele>
        <time>2016-05-17T12:45:32Z</time>
      </trkpt>
      <trkpt lat="45.17661" lon="0.27273">
        <ele>94</ele>
        <time>2016-05-17T12:45:36Z</time>
      </trkpt>
      <trkpt lat="45.17666" lon="0.27277">
        <ele>91</ele>
        <time>2016-05-17T12:45:41Z</time>
      </trkpt>
      <trkpt lat="45.1767" lon="0.27281">
        <ele>89</ele>
        <time>2016-05-17T12:45:45Z</time>
      </trkpt>
      <trkpt lat="45.17676" lon="0.27286">
        <ele>88</ele>
        <time>2016-05-17T12:45:50Z</time>
      </trkpt>
      <trkpt lat="45.17679" lon="0.27289">
        <ele>87</ele>
        <time>2016-05-17T12:45:54Z</time>
      </trkpt>
      <trkpt lat="45.17683" lon="0.27288">
        <ele>87</ele>
        <time>2016-05-17T12:45:59Z</time>
      </trkpt>
      <trkpt lat="45.17688" lon="0.27292">
        <ele>87</ele>
        <time>2016-05-17T12:46:03Z</time>
      </trkpt>
      <trkpt lat="45.17692" lon="0.27293">
        <ele>85</ele>
        <time>2016-05-17T12:46:08Z</time>
      </trkpt>
      <trkpt lat="45.17699" lon="0.27299">
        <ele>87</ele>
        <time>2016-05-17T12:46:13Z</time>
      </trkpt>
      <trkpt lat="45.17704" lon="0.273">
        <ele>87</ele>
        <time>2016-05-17T12:46:18Z</time>
      </trkpt>
      <trkpt lat="45.17709" lon="0.27304">
        <ele>87</ele>
        <time>2016-05-17T12:46:22Z</time>
      </trkpt>
      <trkpt lat="45.17713" lon="0.27306">
        <ele>89</ele>
        <time>2016-05-17T12:46:26Z</time>
      </trkpt>
      <trkpt lat="45.17717" lon="0.27312">
        <ele>89</ele>
        <time>2016-05-17T12:46:31Z</time>
      </trkpt>
      <trkpt lat="45.1772" lon="0.27318">
        <ele>90</ele>
        <time>2016-05-17T12:46:35Z</time>
      </trkpt>
      <trkpt lat="45.17725" lon="0.27324">
        <ele>89</ele>
        <time>2016-05-17T12:46:40Z</time>
      </trkpt>
      <trkpt lat="45.17727" lon="0.27329">
        <ele>91</ele>
        <time>2016-05-17T12:46:44Z</time>
      </trkpt>
      <trkpt lat="45.17731" lon="0.27334">
        <ele>91</ele>
        <time>2016-05-17T12:46:48Z</time>
      </trkpt>
      <trkpt lat="45.17737" lon="0.27338">
        <ele>95</ele>
        <time>2016-05-17T12:46:53Z</time>
      </trkpt>
      <trkpt lat="45.17739" lon="0.2734">
        <ele>96</ele>
        <time>2016-05-17T12:46:57Z</time>
      </trkpt>
      <trkpt lat="45.17745" lon="0.27344">
        <ele>93</ele>
        <time>2016-05-17T12:47:02Z</time>
      </trkpt>
      <trkpt lat="45.17752" lon="0.27348">
        <ele>87</ele>
        <time>2016-05-17T12:47:07Z</time>
      </trkpt>
      <trkpt lat="45.17756" lon="0.27353">
        <ele>85</ele>
        <time>2016-05-17T12:47:11Z</time>
      </trkpt>
      <trkpt lat="45.1776" lon="0.27356">
        <ele>83</ele>
        <time>2016-05-17T12:47:15Z</time>
      </trkpt>
      <trkpt lat="45.17765" lon="0.2736">
        <ele>84</ele>
        <time>2016-05-17T12:47:20Z</time>
      </trkpt>
      <trkpt lat="45.17768" lon="0.27363">
        <ele>83</ele>
        <time>2016-05-17T12:47:24Z</time>
      </trkpt>
      <trkpt lat="45.17772" lon="0.27365">
        <ele>85</ele>
        <time>2016-05-17T12:47:29Z</time>
      </trkpt>
      <trkpt lat="45.17778" lon="0.27371">
        <ele>84</ele>
        <time>2016-05-17T12:47:33Z</time>
      </trkpt>
      <trkpt lat="45.17783" lon="0.27374">
        <ele>84</ele>
        <time>2016-05-17T12:47:37Z</time>
      </trkpt>
      <trkpt lat="45.17789" lon="0.27376">
        <ele>83</ele>
        <time>2016-05-17T12:47:42Z</time>
      </trkpt>
      <trkpt lat="45.17792" lon="0.27378">
        <ele>84</ele>
        <time>2016-05-17T12:47:46Z</time>
      </trkpt>
      <trkpt lat="45.17799" lon="0.27381">
        <ele>82</ele>
        <time>2016-05-17T12:47:51Z</time>
      </trkpt>
      <trkpt lat="45.17804" lon="0.27384">
        <ele>82</ele>
        <time>2016-05-17T12:47:55Z</time>
      </trkpt>
      <trkpt lat="45.17808" lon="0.27385">
        <ele>83</ele>
        <time>2016-05-17T12:48:00Z</time>
      </trkpt>
      <trkpt lat="45.17813" lon="0.27388">
        <ele>85</ele>
        <time>2016-05-17T12:48:04Z</time>
      </trkpt>
      <trkpt lat="45.17821" lon="0.27389">
        <ele>88</ele>
        <time>2016-05-17T12:48:09Z</time>
      </trkpt>
      <trkpt lat="45.17828" lon="0.27389">
        <ele>90</ele>
        <time>2016-05-17T12:48:14Z</time>
      </trkpt>
      <trkpt lat="45.17837" lon="0.27388">
        <ele>86</ele>
        <time>2016-05-17T12:48:19Z</time>
      </trkpt>
      <trkpt lat="45.17844" lon="0.27387">
        <ele>79</ele>
        <time>2016-05-17T12:48:23Z</time>
      </trkpt>
      <trkpt lat="45.17849" lon="0.27387">
        <ele>80</ele>
        <time>2016-05-17T12:48:28Z</time>
      </trkpt>
      <trkpt lat="45.17853" lon="0.27386">
        <ele>81</ele>
        <time>2016-05-17T12:48:32Z</time>
      </trkpt>
      <trkpt lat="45.17858" lon="0.27386">
        <ele>82</ele>
        <time>2016-05-17T12:48:36Z</time>
      </trkpt>
      <trkpt lat="45.17862" lon="0.27381">
        <ele>83</ele>
        <time>2016-05-17T12:48:41Z</time>
      </trkpt>
      <trkpt lat="45.17869" lon="0.2738">
        <ele>84</ele>
        <time>2016-05-17T12:48:46Z</time>
      </trkpt>
      <trkpt lat="45.17874" lon="0.27374">
        <ele>84</ele>
        <time>2016-05-17T12:48:51Z</time>
      </trkpt>
      <trkpt lat="45.17877" lon="0.2737">
        <ele>85</ele>
        <time>2016-05-17T12:48:55Z</time>
      </trkpt>
      <trkpt lat="45.17881" lon="0.27365">
        <ele>83</ele>
        <time>2016-05-17T12:48:59Z</time>
      </trkpt>
      <trkpt lat="45.17885" lon="0.27361">
        <ele>84</ele>
        <time>2016-05-17T12:49:04Z</time>
      </trkpt>
      <trkpt lat="45.17889" lon="0.27355">
        <ele>83</ele>
        <time>2016-05-17T12:49:09Z</time>
      </trkpt>
      <trkpt lat="45.17892" lon="0.27351">
        <ele>83</ele>
        <time>2016-05-17T12:49:13Z</time>
      </trkpt>
      <trkpt lat="45.17895" lon="0.27341">
        <ele>77</ele>
        <time>2016-05-17T12:49:17Z</time>
      </trkpt>
      <trkpt lat="45.17899" lon="0.2734">
        <ele>79</ele>
        <time>2016-05-17T12:49:21Z</time>
      </trkpt>
      <trkpt lat="45.179" lon="0.27336">
        <ele>80</ele>
        <time>2016-05-17T12:49:25Z</time>
      </trkpt>
      <trkpt lat="45.17903" lon="0.2733">
        <ele>81</ele>
        <time>2016-05-17T12:49:30Z</time>
      </trkpt>
      <trkpt lat="45.17904" lon="0.27324">
        <ele>78</ele>
        <time>2016-05-17T12:49:35Z</time>
      </trkpt>
      <trkpt lat="45.17909" lon="0.27318">
        <ele>73</ele>
        <time>2016-05-17T12:49:39Z</time>
      </trkpt>
      <trkpt lat="45.17915" lon="0.27314">
        <ele>74</ele>
        <time>2016-05-17T12:49:44Z</time>
      </trkpt>
      <trkpt lat="45.17918" lon="0.27312">
        <ele>75</ele>
        <time>2016-05-17T12:49:48Z</time>
      </trkpt>
      <trkpt lat="45.17922" lon="0.27307">
        <ele>77</ele>
        <time>2016-05-17T12:49:53Z</time>
      </trkpt>
      <trkpt lat="45.17924" lon="0.27305">
        <ele>84</ele>
        <time>2016-05-17T12:49:57Z</time>
      </trkpt>
      <trkpt lat="45.17929" lon="0.27301">
        <ele>86</ele>
        <time>2016-05-17T12:50:02Z</time>
      </trkpt>
      <trkpt lat="45.17934" lon="0.27298">
        <ele>84</ele>
        <time>2016-05-17T12:50:06Z</time>
      </trkpt>
      <trkpt lat="45.17938" lon="0.27292">
        <ele>87</ele>
        <time>2016-05-17T12:50:11Z</time>
      </trkpt>
      <trkpt lat="45.17941" lon="0.27291">
        <ele>85</ele>
        <time>2016-05-17T12:50:15Z</time>
      </trkpt>
      <trkpt lat="45.17947" lon="0.27288">
        <ele>81</ele>
        <time>2016-05-17T12:50:20Z</time>
      </trkpt>
      <trkpt lat="45.17953" lon="0.27287">
        <ele>78</ele>
        <time>2016-05-17T12:50:24Z</time>
      </trkpt>
      <trkpt lat="45.17957" lon="0.27287">
        <ele>78</ele>
        <time>2016-05-17T12:50:29Z</time>
      </trkpt>
      <trkpt lat="45.17961" lon="0.27286">
        <ele>76</ele>
        <time>2016-05-17T12:50:33Z</time>
      </trkpt>
      <trkpt lat="45.17963" lon="0.2729">
        <ele>79</ele>
        <time>2016-05-17T12:50:40Z</time>
      </trkpt>
      <trkpt lat="45.17972" lon="0.27282">
        <ele>80</ele>
        <time>2016-05-17T12:50:45Z</time>
      </trkpt>
      <trkpt lat="45.17978" lon="0.27289">
        <ele>78</ele>
        <time>2016-05-17T12:50:50Z</time>
      </trkpt>
      <trkpt lat="45.17987" lon="0.2729">
        <ele>72</ele>
        <time>2016-05-17T12:50:55Z</time>
      </trkpt>
      <trkpt lat="45.17992" lon="0.27291">
        <ele>70</ele>
        <time>2016-05-17T12:50:59Z</time>
      </trkpt>
      <trkpt lat="45.17999" lon="0.27292">
        <ele>69</ele>
        <time>2016-05-17T12:51:04Z</time>
      </trkpt>
      <trkpt lat="45.18003" lon="0.27295">
        <ele>69</ele>
        <time>2016-05-17T12:51:08Z</time>
      </trkpt>
      <trkpt lat="45.18007" lon="0.273">
        <ele>72</ele>
        <time>2016-05-17T12:51:13Z</time>
      </trkpt>
      <trkpt lat="45.18009" lon="0.27305">
        <ele>76</ele>
        <time>2016-05-17T12:51:17Z</time>
      </trkpt>
      <trkpt lat="45.18013" lon="0.27306">
        <ele>78</ele>
        <time>2016-05-17T12:51:23Z</time>
      </trkpt>
      <trkpt lat="45.18018" lon="0.27307">
        <ele>74</ele>
        <time>2016-05-17T12:51:27Z</time>
      </trkpt>
      <trkpt lat="45.18021" lon="0.27311">
        <ele>79</ele>
        <time>2016-05-17T12:51:31Z</time>
      </trkpt>
      <trkpt lat="45.18026" lon="0.27308">
        <ele>83</ele>
        <time>2016-05-17T12:51:36Z</time>
      </trkpt>
      <trkpt lat="45.1803" lon="0.2731">
        <ele>84</ele>
        <time>2016-05-17T12:51:40Z</time>
      </trkpt>
      <trkpt lat="45.18032" lon="0.27318">
        <ele>84</ele>
        <time>2016-05-17T12:51:44Z</time>
      </trkpt>
      <trkpt lat="45.18035" lon="0.27325">
        <ele>88</ele>
        <time>2016-05-17T12:51:49Z</time>
      </trkpt>
      <trkpt lat="45.18038" lon="0.27327">
        <ele>88</ele>
        <time>2016-05-17T12:51:55Z</time>
      </trkpt>
      <trkpt lat="45.18042" lon="0.27333">
        <ele>89</ele>
        <time>2016-05-17T12:51:59Z</time>
      </trkpt>
      <trkpt lat="45.18045" lon="0.27341">
        <ele>90</ele>
        <time>2016-05-17T12:52:03Z</time>
      </trkpt>
      <trkpt lat="45.18056" lon="0.27346">
        <ele>88</ele>
        <time>2016-05-17T12:52:07Z</time>
      </trkpt>
      <trkpt lat="45.18057" lon="0.27351">
        <ele>86</ele>
        <time>2016-05-17T12:52:13Z</time>
      </trkpt>
      <trkpt lat="45.18064" lon="0.27351">
        <ele>87</ele>
        <time>2016-05-17T12:52:17Z</time>
      </trkpt>
      <trkpt lat="45.18071" lon="0.27353">
        <ele>82</ele>
        <time>2016-05-17T12:52:22Z</time>
      </trkpt>
      <trkpt lat="45.18075" lon="0.27356">
        <ele>78</ele>
        <time>2016-05-17T12:52:27Z</time>
      </trkpt>
      <trkpt lat="45.18079" lon="0.27362">
        <ele>75</ele>
        <time>2016-05-17T12:52:31Z</time>
      </trkpt>
      <trkpt lat="45.18084" lon="0.27367">
        <ele>77</ele>
        <time>2016-05-17T12:52:36Z</time>
      </trkpt>
      <trkpt lat="45.18088" lon="0.27371">
        <ele>77</ele>
        <time>2016-05-17T12:52:40Z</time>
      </trkpt>
      <trkpt lat="45.18093" lon="0.27377">
        <ele>79</ele>
        <time>2016-05-17T12:52:44Z</time>
      </trkpt>
      <trkpt lat="45.18098" lon="0.2738">
        <ele>80</ele>
        <time>2016-05-17T12:52:48Z</time>
      </trkpt>
      <trkpt lat="45.18103" lon="0.27386">
        <ele>75</ele>
        <time>2016-05-17T12:52:52Z</time>
      </trkpt>
      <trkpt lat="45.18106" lon="0.27389">
        <ele>79</ele>
        <time>2016-05-17T12:52:59Z</time>
      </trkpt>
      <trkpt lat="45.1811" lon="0.27392">
        <ele>78</ele>
        <time>2016-05-17T12:53:04Z</time>
      </trkpt>
      <trkpt lat="45.18112" lon="0.27392">
        <ele>74</ele>
        <time>2016-05-17T12:53:09Z</time>
      </trkpt>
      <trkpt lat="45.18118" lon="0.27397">
        <ele>71</ele>
        <time>2016-05-17T12:53:13Z</time>
      </trkpt>
      <trkpt lat="45.18122" lon="0.27402">
        <ele>73</ele>
        <time>2016-05-17T12:53:17Z</time>
      </trkpt>
      <trkpt lat="45.18125" lon="0.27406">
        <ele>75</ele>
        <time>2016-05-17T12:53:22Z</time>
      </trkpt>
      <trkpt lat="45.1813" lon="0.27412">
        <ele>75</ele>
        <time>2016-05-17T12:53:26Z</time>
      </trkpt>
      <trkpt lat="45.18132" lon="0.27418">
        <ele>75</ele>
        <time>2016-05-17T12:53:30Z</time>
      </trkpt>
      <trkpt lat="45.18135" lon="0.27422">
        <ele>75</ele>
        <time>2016-05-17T12:53:36Z</time>
      </trkpt>
      <trkpt lat="45.18139" lon="0.27427">
        <ele>76</ele>
        <time>2016-05-17T12:53:40Z</time>
      </trkpt>
      <trkpt lat="45.18142" lon="0.27431">
        <ele>71</ele>
        <time>2016-05-17T12:53:45Z</time>
      </trkpt>
      <trkpt lat="45.18145" lon="0.27436">
        <ele>70</ele>
        <time>2016-05-17T12:53:49Z</time>
      </trkpt>
      <trkpt lat="45.18151" lon="0.27443">
        <ele>73</ele>
        <time>2016-05-17T12:53:54Z</time>
      </trkpt>
      <trkpt lat="45.18156" lon="0.27449">
        <ele>71</ele>
        <time>2016-05-17T12:53:59Z</time>
      </trkpt>
      <trkpt lat="45.18159" lon="0.27453">
        <ele>73</ele>
        <time>2016-05-17T12:54:07Z</time>
      </trkpt>
      <trkpt lat="45.18161" lon="0.27459">
        <ele>76</ele>
        <time>2016-05-17T12:54:12Z</time>
      </trkpt>
      <trkpt lat="45.18163" lon="0.27463">
        <ele>78</ele>
        <time>2016-05-17T12:54:17Z</time>
      </trkpt>
      <trkpt lat="45.18167" lon="0.27474">
        <ele>76</ele>
        <time>2016-05-17T12:54:22Z</time>
      </trkpt>
      <trkpt lat="45.18172" lon="0.27481">
        <ele>71</ele>
        <time>2016-05-17T12:54:27Z</time>
      </trkpt>
      <trkpt lat="45.18176" lon="0.27488">
        <ele>71</ele>
        <time>2016-05-17T12:54:32Z</time>
      </trkpt>
      <trkpt lat="45.18179" lon="0.27493">
        <ele>74</ele>
        <time>2016-05-17T12:54:36Z</time>
      </trkpt>
      <trkpt lat="45.18183" lon="0.27496">
        <ele>73</ele>
        <time>2016-05-17T12:54:41Z</time>
      </trkpt>
      <trkpt lat="45.18185" lon="0.27501">
        <ele>76</ele>
        <time>2016-05-17T12:54:49Z</time>
      </trkpt>
      <trkpt lat="45.18187" lon="0.27506">
        <ele>78</ele>
        <time>2016-05-17T12:54:54Z</time>
      </trkpt>
      <trkpt lat="45.18192" lon="0.27513">
        <ele>72</ele>
        <time>2016-05-17T12:54:59Z</time>
      </trkpt>
      <trkpt lat="45.18196" lon="0.27512">
        <ele>70</ele>
        <time>2016-05-17T12:55:03Z</time>
      </trkpt>
      <trkpt lat="45.182" lon="0.27515">
        <ele>71</ele>
        <time>2016-05-17T12:55:16Z</time>
      </trkpt>
      <trkpt lat="45.18203" lon="0.27512">
        <ele>68</ele>
        <time>2016-05-17T12:55:51Z</time>
      </trkpt>
      <trkpt lat="45.18206" lon="0.27517">
        <ele>63</ele>
        <time>2016-05-17T12:56:40Z</time>
      </trkpt>
      <trkpt lat="45.18209" lon="0.27521">
        <ele>61</ele>
        <time>2016-05-17T12:57:34Z</time>
      </trkpt>
      <trkpt lat="45.18211" lon="0.27518">
        <ele>65</ele>
        <time>2016-05-17T12:58:04Z</time>
      </trkpt>
      <trkpt lat="45.18215" lon="0.2752">
        <ele>68</ele>
        <time>2016-05-17T12:59:24Z</time>
      </trkpt>
      <trkpt lat="45.18218" lon="0.27524">
        <ele>70</ele>
        <time>2016-05-17T12:59:57Z</time>
      </trkpt>
      <trkpt lat="45.18222" lon="0.27524">
        <ele>67</ele>
        <time>2016-05-17T13:00:07Z</time>
      </trkpt>
      <trkpt lat="45.18226" lon="0.27524">
        <ele>67</ele>
        <time>2016-05-17T13:00:12Z</time>
      </trkpt>
      <trkpt lat="45.1823" lon="0.27526">
        <ele>68</ele>
        <time>2016-05-17T13:00:21Z</time>
      </trkpt>
      <trkpt lat="45.18234" lon="0.27529">
        <ele>70</ele>
        <time>2016-05-17T13:00:33Z</time>
      </trkpt>
      <trkpt lat="45.1824" lon="0.27526">
        <ele>70</ele>
        <time>2016-05-17T13:00:38Z</time>
      </trkpt>
      <trkpt lat="45.18243" lon="0.27522">
        <ele>69</ele>
        <time>2016-05-17T13:00:42Z</time>
      </trkpt>
      <trkpt lat="45.18246" lon="0.27517">
        <ele>69</ele>
        <time>2016-05-17T13:00:46Z</time>
      </trkpt>
      <trkpt lat="45.1825" lon="0.27515">
        <ele>70</ele>
        <time>2016-05-17T13:00:51Z</time>
      </trkpt>
      <trkpt lat="45.18253" lon="0.27514">
        <ele>73</ele>
        <time>2016-05-17T13:00:56Z</time>
      </trkpt>
      <trkpt lat="45.18256" lon="0.27505">
        <ele>70</ele>
        <time>2016-05-17T13:01:00Z</time>
      </trkpt>
      <trkpt lat="45.18259" lon="0.275">
        <ele>70</ele>
        <time>2016-05-17T13:01:05Z</time>
      </trkpt>
      <trkpt lat="45.18263" lon="0.27497">
        <ele>69</ele>
        <time>2016-05-17T13:01:09Z</time>
      </trkpt>
      <trkpt lat="45.18265" lon="0.27491">
        <ele>69</ele>
        <time>2016-05-17T13:01:13Z</time>
      </trkpt>
      <trkpt lat="45.18268" lon="0.27485">
        <ele>70</ele>
        <time>2016-05-17T13:01:18Z</time>
      </trkpt>
      <trkpt lat="45.18271" lon="0.27481">
        <ele>71</ele>
        <time>2016-05-17T13:01:23Z</time>
      </trkpt>
      <trkpt lat="45.18275" lon="0.27479">
        <ele>70</ele>
        <time>2016-05-17T13:01:29Z</time>
      </trkpt>
      <trkpt lat="45.18279" lon="0.27482">
        <ele>69</ele>
        <time>2016-05-17T13:01:40Z</time>
      </trkpt>
      <trkpt lat="45.18284" lon="0.27486">
        <ele>73</ele>
        <time>2016-05-17T13:01:45Z</time>
      </trkpt>
      <trkpt lat="45.18284" lon="0.27492">
        <ele>75</ele>
        <time>2016-05-17T13:01:49Z</time>
      </trkpt>
      <trkpt lat="45.18284" lon="0.27498">
        <ele>74</ele>
        <time>2016-05-17T13:01:53Z</time>
      </trkpt>
      <trkpt lat="45.18289" lon="0.27501">
        <ele>77</ele>
        <time>2016-05-17T13:01:57Z</time>
      </trkpt>
      <trkpt lat="45.18293" lon="0.27504">
        <ele>79</ele>
        <time>2016-05-17T13:02:02Z</time>
      </trkpt>
      <trkpt lat="45.183" lon="0.27508">
        <ele>75</ele>
        <time>2016-05-17T13:02:07Z</time>
      </trkpt>
      <trkpt lat="45.18304" lon="0.27508">
        <ele>73</ele>
        <time>2016-05-17T13:02:12Z</time>
      </trkpt>
      <trkpt lat="45.18307" lon="0.27516">
        <ele>77</ele>
        <time>2016-05-17T13:02:16Z</time>
      </trkpt>
      <trkpt lat="45.18315" lon="0.27521">
        <ele>66</ele>
        <time>2016-05-17T13:02:21Z</time>
      </trkpt>
      <trkpt lat="45.1832" lon="0.27524">
        <ele>67</ele>
        <time>2016-05-17T13:02:26Z</time>
      </trkpt>
      <trkpt lat="45.18323" lon="0.27529">
        <ele>66</ele>
        <time>2016-05-17T13:02:30Z</time>
      </trkpt>
      <trkpt lat="45.18328" lon="0.27533">
        <ele>65</ele>
        <time>2016-05-17T13:02:35Z</time>
      </trkpt>
      <trkpt lat="45.18336" lon="0.27534">
        <ele>63</ele>
        <time>2016-05-17T13:02:40Z</time>
      </trkpt>
      <trkpt lat="45.1834" lon="0.27536">
        <ele>65</ele>
        <time>2016-05-17T13:02:44Z</time>
      </trkpt>
      <trkpt lat="45.18343" lon="0.27539">
        <ele>66</ele>
        <time>2016-05-17T13:02:48Z</time>
      </trkpt>
      <trkpt lat="45.1835" lon="0.27541">
        <ele>65</ele>
        <time>2016-05-17T13:02:53Z</time>
      </trkpt>
      <trkpt lat="45.18353" lon="0.27544">
        <ele>67</ele>
        <time>2016-05-17T13:02:57Z</time>
      </trkpt>
      <trkpt lat="45.18356" lon="0.27549">
        <ele>67</ele>
        <time>2016-05-17T13:03:01Z</time>
      </trkpt>
      <trkpt lat="45.18358" lon="0.27556">
        <ele>67</ele>
        <time>2016-05-17T13:03:06Z</time>
      </trkpt>
      <trkpt lat="45.18363" lon="0.27559">
        <ele>66</ele>
        <time>2016-05-17T13:03:10Z</time>
      </trkpt>
      <trkpt lat="45.18375" lon="0.27558">
        <ele>61</ele>
        <time>2016-05-17T13:03:15Z</time>
      </trkpt>
      <trkpt lat="45.18379" lon="0.27563">
        <ele>61</ele>
        <time>2016-05-17T13:03:20Z</time>
      </trkpt>
      <trkpt lat="45.18382" lon="0.27568">
        <ele>61</ele>
        <time>2016-05-17T13:03:24Z</time>
      </trkpt>
      <trkpt lat="45.18386" lon="0.27573">
        <ele>62</ele>
        <time>2016-05-17T13:03:29Z</time>
      </trkpt>
      <trkpt lat="45.1839" lon="0.27577">
        <ele>64</ele>
        <time>2016-05-17T13:03:33Z</time>
      </trkpt>
      <trkpt lat="45.18396" lon="0.27579">
        <ele>64</ele>
        <time>2016-05-17T13:03:38Z</time>
      </trkpt>
      <trkpt lat="45.184" lon="0.27585">
        <ele>64</ele>
        <time>2016-05-17T13:03:43Z</time>
      </trkpt>
      <trkpt lat="45.18404" lon="0.2759">
        <ele>65</ele>
        <time>2016-05-17T13:03:48Z</time>
      </trkpt>
      <trkpt lat="45.18409" lon="0.27591">
        <ele>66</ele>
        <time>2016-05-17T13:03:52Z</time>
      </trkpt>
      <trkpt lat="45.18414" lon="0.27595">
        <ele>67</ele>
        <time>2016-05-17T13:03:56Z</time>
      </trkpt>
      <trkpt lat="45.18419" lon="0.27598">
        <ele>67</ele>
        <time>2016-05-17T13:04:00Z</time>
      </trkpt>
      <trkpt lat="45.18425" lon="0.27602">
        <ele>64</ele>
        <time>2016-05-17T13:04:05Z</time>
      </trkpt>
      <trkpt lat="45.18429" lon="0.27608">
        <ele>61</ele>
        <time>2016-05-17T13:04:10Z</time>
      </trkpt>
      <trkpt lat="45.18428" lon="0.27614">
        <ele>61</ele>
        <time>2016-05-17T13:04:14Z</time>
      </trkpt>
      <trkpt lat="45.18427" lon="0.27621">
        <ele>61</ele>
        <time>2016-05-17T13:04:19Z</time>
      </trkpt>
      <trkpt lat="45.18425" lon="0.27627">
        <ele>63</ele>
        <time>2016-05-17T13:04:24Z</time>
      </trkpt>
      <trkpt lat="45.18423" lon="0.27632">
        <ele>63</ele>
        <time>2016-05-17T13:04:28Z</time>
      </trkpt>
      <trkpt lat="45.1842" lon="0.27639">
        <ele>64</ele>
        <time>2016-05-17T13:04:32Z</time>
      </trkpt>
      <trkpt lat="45.18418" lon="0.27644">
        <ele>64</ele>
        <time>2016-05-17T13:04:36Z</time>
      </trkpt>
      <trkpt lat="45.18415" lon="0.27651">
        <ele>65</ele>
        <time>2016-05-17T13:04:41Z</time>
      </trkpt>
      <trkpt lat="45.18413" lon="0.27657">
        <ele>65</ele>
        <time>2016-05-17T13:04:45Z</time>
      </trkpt>
      <trkpt lat="45.1841" lon="0.27662">
        <ele>65</ele>
        <time>2016-05-17T13:04:50Z</time>
      </trkpt>
      <trkpt lat="45.18406" lon="0.27669">
        <ele>65</ele>
        <time>2016-05-17T13:04:54Z</time>
      </trkpt>
      <trkpt lat="45.18404" lon="0.27675">
        <ele>65</ele>
        <time>2016-05-17T13:04:58Z</time>
      </trkpt>
      <trkpt lat="45.18401" lon="0.27681">
        <ele>65</ele>
        <time>2016-05-17T13:05:02Z</time>
      </trkpt>
      <trkpt lat="45.18399" lon="0.27686">
        <ele>65</ele>
        <time>2016-05-17T13:05:06Z</time>
      </trkpt>
      <trkpt lat="45.18395" lon="0.27692">
        <ele>64</ele>
        <time>2016-05-17T13:05:10Z</time>
      </trkpt>
      <trkpt lat="45.18392" lon="0.27698">
        <ele>64</ele>
        <time>2016-05-17T13:05:14Z</time>
      </trkpt>
      <trkpt lat="45.1839" lon="0.27702">
        <ele>64</ele>
        <time>2016-05-17T13:05:18Z</time>
      </trkpt>
      <trkpt lat="45.18386" lon="0.27711">
        <ele>62</ele>
        <time>2016-05-17T13:05:23Z</time>
      </trkpt>
      <trkpt lat="45.18384" lon="0.27716">
        <ele>63</ele>
        <time>2016-05-17T13:05:27Z</time>
      </trkpt>
      <trkpt lat="45.1838" lon="0.27723">
        <ele>63</ele>
        <time>2016-05-17T13:05:32Z</time>
      </trkpt>
      <trkpt lat="45.18378" lon="0.27729">
        <ele>63</ele>
        <time>2016-05-17T13:05:36Z</time>
      </trkpt>
      <trkpt lat="45.18375" lon="0.27733">
        <ele>64</ele>
        <time>2016-05-17T13:05:41Z</time>
      </trkpt>
      <trkpt lat="45.18371" lon="0.27737">
        <ele>63</ele>
        <time>2016-05-17T13:05:45Z</time>
      </trkpt>
      <trkpt lat="45.18368" lon="0.27742">
        <ele>63</ele>
        <time>2016-05-17T13:05:50Z</time>
      </trkpt>
      <trkpt lat="45.18365" lon="0.27747">
        <ele>63</ele>
        <time>2016-05-17T13:05:54Z</time>
      </trkpt>
      <trkpt lat="45.18362" lon="0.27751">
        <ele>61</ele>
        <time>2016-05-17T13:05:58Z</time>
      </trkpt>
      <trkpt lat="45.18359" lon="0.27759">
        <ele>59</ele>
        <time>2016-05-17T13:06:02Z</time>
      </trkpt>
      <trkpt lat="45.18355" lon="0.27766">
        <ele>59</ele>
        <time>2016-05-17T13:06:07Z</time>
      </trkpt>
      <trkpt lat="45.18353" lon="0.27771">
        <ele>59</ele>
        <time>2016-05-17T13:06:11Z</time>
      </trkpt>
      <trkpt lat="45.18349" lon="0.27777">
        <ele>60</ele>
        <time>2016-05-17T13:06:16Z</time>
      </trkpt>
      <trkpt lat="45.18345" lon="0.27783">
        <ele>61</ele>
        <time>2016-05-17T13:06:21Z</time>
      </trkpt>
      <trkpt lat="45.18342" lon="0.27787">
        <ele>61</ele>
        <time>2016-05-17T13:06:25Z</time>
      </trkpt>
      <trkpt lat="45.18341" lon="0.27793">
        <ele>62</ele>
        <time>2016-05-17T13:06:30Z</time>
      </trkpt>
      <trkpt lat="45.18338" lon="0.27799">
        <ele>62</ele>
        <time>2016-05-17T13:06:34Z</time>
      </trkpt>
      <trkpt lat="45.18336" lon="0.27804">
        <ele>63</ele>
        <time>2016-05-17T13:06:38Z</time>
      </trkpt>
      <trkpt lat="45.18334" lon="0.2781">
        <ele>62</ele>
        <time>2016-05-17T13:06:42Z</time>
      </trkpt>
      <trkpt lat="45.18332" lon="0.27818">
        <ele>63</ele>
        <time>2016-05-17T13:06:47Z</time>
      </trkpt>
      <trkpt lat="45.1833" lon="0.27825">
        <ele>63</ele>
        <time>2016-05-17T13:06:51Z</time>
      </trkpt>
      <trkpt lat="45.18329" lon="0.27831">
        <ele>63</ele>
        <time>2016-05-17T13:06:55Z</time>
      </trkpt>
      <trkpt lat="45.18328" lon="0.27836">
        <ele>63</ele>
        <time>2016-05-17T13:06:59Z</time>
      </trkpt>
      <trkpt lat="45.18327" lon="0.27843">
        <ele>63</ele>
        <time>2016-05-17T13:07:03Z</time>
      </trkpt>
      <trkpt lat="45.18326" lon="0.27851">
        <ele>63</ele>
        <time>2016-05-17T13:07:08Z</time>
      </trkpt>
      <trkpt lat="45.18327" lon="0.27858">
        <ele>64</ele>
        <time>2016-05-17T13:07:12Z</time>
      </trkpt>
      <trkpt lat="45.18327" lon="0.27865">
        <ele>64</ele>
        <time>2016-05-17T13:07:17Z</time>
      </trkpt>
      <trkpt lat="45.18327" lon="0.27871">
        <ele>64</ele>
        <time>2016-05-17T13:07:22Z</time>
      </trkpt>
      <trkpt lat="45.18328" lon="0.27876">
        <ele>64</ele>
        <time>2016-05-17T13:07:26Z</time>
      </trkpt>
      <trkpt lat="45.18329" lon="0.27882">
        <ele>64</ele>
        <time>2016-05-17T13:07:31Z</time>
      </trkpt>
      <trkpt lat="45.18331" lon="0.27889">
        <ele>64</ele>
        <time>2016-05-17T13:07:35Z</time>
      </trkpt>
      <trkpt lat="45.18333" lon="0.27897">
        <ele>67</ele>
        <time>2016-05-17T13:07:40Z</time>
      </trkpt>
      <trkpt lat="45.18334" lon="0.27904">
        <ele>67</ele>
        <time>2016-05-17T13:07:45Z</time>
      </trkpt>
      <trkpt lat="45.18335" lon="0.27908">
        <ele>68</ele>
        <time>2016-05-17T13:07:49Z</time>
      </trkpt>
      <trkpt lat="45.18339" lon="0.27918">
        <ele>71</ele>
        <time>2016-05-17T13:07:54Z</time>
      </trkpt>
      <trkpt lat="45.18341" lon="0.27923">
        <ele>70</ele>
        <time>2016-05-17T13:07:59Z</time>
      </trkpt>
      <trkpt lat="45.18344" lon="0.27929">
        <ele>71</ele>
        <time>2016-05-17T13:08:04Z</time>
      </trkpt>
      <trkpt lat="45.18346" lon="0.27933">
        <ele>74</ele>
        <time>2016-05-17T13:08:09Z</time>
      </trkpt>
      <trkpt lat="45.1835" lon="0.27939">
        <ele>74</ele>
        <time>2016-05-17T13:08:13Z</time>
      </trkpt>
      <trkpt lat="45.18355" lon="0.27943">
        <ele>76</ele>
        <time>2016-05-17T13:08:18Z</time>
      </trkpt>
      <trkpt lat="45.18362" lon="0.27947">
        <ele>72</ele>
        <time>2016-05-17T13:08:22Z</time>
      </trkpt>
      <trkpt lat="45.18366" lon="0.27949">
        <ele>72</ele>
        <time>2016-05-17T13:08:26Z</time>
      </trkpt>
      <trkpt lat="45.1837" lon="0.27952">
        <ele>73</ele>
        <time>2016-05-17T13:08:31Z</time>
      </trkpt>
      <trkpt lat="45.18375" lon="0.27956">
        <ele>73</ele>
        <time>2016-05-17T13:08:36Z</time>
      </trkpt>
      <trkpt lat="45.1838" lon="0.27958">
        <ele>71</ele>
        <time>2016-05-17T13:08:41Z</time>
      </trkpt>
      <trkpt lat="45.18383" lon="0.27959">
        <ele>72</ele>
        <time>2016-05-17T13:08:45Z</time>
      </trkpt>
      <trkpt lat="45.18387" lon="0.27963">
        <ele>72</ele>
        <time>2016-05-17T13:08:50Z</time>
      </trkpt>
      <trkpt lat="45.18392" lon="0.27964">
        <ele>67</ele>
        <time>2016-05-17T13:08:54Z</time>
      </trkpt>
      <trkpt lat="45.18397" lon="0.27965">
        <ele>67</ele>
        <time>2016-05-17T13:08:58Z</time>
      </trkpt>
      <trkpt lat="45.18401" lon="0.27967">
        <ele>68</ele>
        <time>2016-05-17T13:09:02Z</time>
      </trkpt>
      <trkpt lat="45.18406" lon="0.27969">
        <ele>69</ele>
        <time>2016-05-17T13:09:07Z</time>
      </trkpt>
      <trkpt lat="45.1841" lon="0.27971">
        <ele>68</ele>
        <time>2016-05-17T13:09:11Z</time>
      </trkpt>
      <trkpt lat="45.18414" lon="0.27972">
        <ele>72</ele>
        <time>2016-05-17T13:09:17Z</time>
      </trkpt>
      <trkpt lat="45.18417" lon="0.27978">
        <ele>72</ele>
        <time>2016-05-17T13:09:22Z</time>
      </trkpt>
      <trkpt lat="45.18417" lon="0.27982">
        <ele>75</ele>
        <time>2016-05-17T13:09:27Z</time>
      </trkpt>
      <trkpt lat="45.18418" lon="0.2799">
        <ele>77</ele>
        <time>2016-05-17T13:09:32Z</time>
      </trkpt>
      <trkpt lat="45.18417" lon="0.27996">
        <ele>78</ele>
        <time>2016-05-17T13:09:37Z</time>
      </trkpt>
      <trkpt lat="45.18415" lon="0.28001">
        <ele>82</ele>
        <time>2016-05-17T13:09:46Z</time>
      </trkpt>
      <trkpt lat="45.18417" lon="0.28008">
        <ele>83</ele>
        <time>2016-05-17T13:09:51Z</time>
      </trkpt>
      <trkpt lat="45.18418" lon="0.28012">
        <ele>83</ele>
        <time>2016-05-17T13:09:57Z</time>
      </trkpt>
      <trkpt lat="45.18421" lon="0.28019">
        <ele>81</ele>
        <time>2016-05-17T13:10:02Z</time>
      </trkpt>
      <trkpt lat="45.18422" lon="0.28025">
        <ele>80</ele>
        <time>2016-05-17T13:10:06Z</time>
      </trkpt>
      <trkpt lat="45.18424" lon="0.28032">
        <ele>79</ele>
        <time>2016-05-17T13:10:11Z</time>
      </trkpt>
      <trkpt lat="45.18426" lon="0.28038">
        <ele>81</ele>
        <time>2016-05-17T13:10:21Z</time>
      </trkpt>
      <trkpt lat="45.18428" lon="0.28043">
        <ele>78</ele>
        <time>2016-05-17T13:10:28Z</time>
      </trkpt>
      <trkpt lat="45.18431" lon="0.28053">
        <ele>80</ele>
        <time>2016-05-17T13:10:33Z</time>
      </trkpt>
      <trkpt lat="45.18434" lon="0.28057">
        <ele>82</ele>
        <time>2016-05-17T13:10:38Z</time>
      </trkpt>
      <trkpt lat="45.18434" lon="0.28063">
        <ele>79</ele>
        <time>2016-05-17T13:10:43Z</time>
      </trkpt>
      <trkpt lat="45.18438" lon="0.28064">
        <ele>80</ele>
        <time>2016-05-17T13:10:50Z</time>
      </trkpt>
      <trkpt lat="45.18441" lon="0.28068">
        <ele>82</ele>
        <time>2016-05-17T13:10:55Z</time>
      </trkpt>
      <trkpt lat="45.18443" lon="0.28073">
        <ele>80</ele>
        <time>2016-05-17T13:10:59Z</time>
      </trkpt>
      <trkpt lat="45.18449" lon="0.28079">
        <ele>84</ele>
        <time>2016-05-17T13:11:04Z</time>
      </trkpt>
      <trkpt lat="45.18451" lon="0.28083">
        <ele>82</ele>
        <time>2016-05-17T13:11:09Z</time>
      </trkpt>
      <trkpt lat="45.18452" lon="0.28089">
        <ele>87</ele>
        <time>2016-05-17T13:11:14Z</time>
      </trkpt>
      <trkpt lat="45.18453" lon="0.28093">
        <ele>89</ele>
        <time>2016-05-17T13:11:21Z</time>
      </trkpt>
      <trkpt lat="45.18455" lon="0.28097">
        <ele>96</ele>
        <time>2016-05-17T13:11:28Z</time>
      </trkpt>
      <trkpt lat="45.18458" lon="0.28103">
        <ele>99</ele>
        <time>2016-05-17T13:11:32Z</time>
      </trkpt>
      <trkpt lat="45.18461" lon="0.2811">
        <ele>98</ele>
        <time>2016-05-17T13:11:37Z</time>
      </trkpt>
      <trkpt lat="45.18463" lon="0.28115">
        <ele>98</ele>
        <time>2016-05-17T13:11:42Z</time>
      </trkpt>
      <trkpt lat="45.1846" lon="0.28119">
        <ele>100</ele>
        <time>2016-05-17T13:11:53Z</time>
      </trkpt>
      <trkpt lat="45.18457" lon="0.28122">
        <ele>102</ele>
        <time>2016-05-17T13:11:59Z</time>
      </trkpt>
      <trkpt lat="45.18454" lon="0.28126">
        <ele>105</ele>
        <time>2016-05-17T13:12:06Z</time>
      </trkpt>
      <trkpt lat="45.1845" lon="0.2813">
        <ele>104</ele>
        <time>2016-05-17T13:12:10Z</time>
      </trkpt>
      <trkpt lat="45.18449" lon="0.28132">
        <ele>104</ele>
        <time>2016-05-17T13:12:14Z</time>
      </trkpt>
      <trkpt lat="45.18444" lon="0.2814">
        <ele>101</ele>
        <time>2016-05-17T13:12:18Z</time>
      </trkpt>
      <trkpt lat="45.1844" lon="0.28142">
        <ele>101</ele>
        <time>2016-05-17T13:12:23Z</time>
      </trkpt>
      <trkpt lat="45.18437" lon="0.28144">
        <ele>103</ele>
        <time>2016-05-17T13:12:28Z</time>
      </trkpt>
      <trkpt lat="45.18431" lon="0.2815">
        <ele>103</ele>
        <time>2016-05-17T13:12:33Z</time>
      </trkpt>
      <trkpt lat="45.18428" lon="0.28153">
        <ele>106</ele>
        <time>2016-05-17T13:12:41Z</time>
      </trkpt>
      <trkpt lat="45.18425" lon="0.28157">
        <ele>108</ele>
        <time>2016-05-17T13:12:46Z</time>
      </trkpt>
      <trkpt lat="45.1842" lon="0.28171">
        <ele>98</ele>
        <time>2016-05-17T13:12:50Z</time>
      </trkpt>
      <trkpt lat="45.18416" lon="0.28172">
        <ele>103</ele>
        <time>2016-05-17T13:12:57Z</time>
      </trkpt>
      <trkpt lat="45.18412" lon="0.28175">
        <ele>103</ele>
        <time>2016-05-17T13:13:01Z</time>
      </trkpt>
      <trkpt lat="45.18408" lon="0.28176">
        <ele>105</ele>
        <time>2016-05-17T13:13:06Z</time>
      </trkpt>
      <trkpt lat="45.18405" lon="0.28178">
        <ele>106</ele>
        <time>2016-05-17T13:13:11Z</time>
      </trkpt>
      <trkpt lat="45.184" lon="0.28185">
        <ele>105</ele>
        <time>2016-05-17T13:13:15Z</time>
      </trkpt>
      <trkpt lat="45.18396" lon="0.2819">
        <ele>105</ele>
        <time>2016-05-17T13:13:19Z</time>
      </trkpt>
      <trkpt lat="45.18392" lon="0.28193">
        <ele>105</ele>
        <time>2016-05-17T13:13:23Z</time>
      </trkpt>
      <trkpt lat="45.18389" lon="0.28195">
        <ele>107</ele>
        <time>2016-05-17T13:13:28Z</time>
      </trkpt>
      <trkpt lat="45.18384" lon="0.28201">
        <ele>105</ele>
        <time>2016-05-17T13:13:32Z</time>
      </trkpt>
      <trkpt lat="45.18381" lon="0.28205">
        <ele>105</ele>
        <time>2016-05-17T13:13:37Z</time>
      </trkpt>
      <trkpt lat="45.18377" lon="0.2821">
        <ele>103</ele>
        <time>2016-05-17T13:13:41Z</time>
      </trkpt>
      <trkpt lat="45.18374" lon="0.28213">
        <ele>103</ele>
        <time>2016-05-17T13:13:45Z</time>
      </trkpt>
      <trkpt lat="45.1837" lon="0.28215">
        <ele>103</ele>
        <time>2016-05-17T13:13:49Z</time>
      </trkpt>
      <trkpt lat="45.18366" lon="0.28216">
        <ele>103</ele>
        <time>2016-05-17T13:13:53Z</time>
      </trkpt>
      <trkpt lat="45.18362" lon="0.28218">
        <ele>102</ele>
        <time>2016-05-17T13:13:57Z</time>
      </trkpt>
      <trkpt lat="45.18358" lon="0.28221">
        <ele>102</ele>
        <time>2016-05-17T13:14:02Z</time>
      </trkpt>
      <trkpt lat="45.18355" lon="0.28225">
        <ele>102</ele>
        <time>2016-05-17T13:14:07Z</time>
      </trkpt>
      <trkpt lat="45.18349" lon="0.28233">
        <ele>100</ele>
        <time>2016-05-17T13:14:12Z</time>
      </trkpt>
      <trkpt lat="45.18345" lon="0.2824">
        <ele>99</ele>
        <time>2016-05-17T13:14:17Z</time>
      </trkpt>
      <trkpt lat="45.1834" lon="0.28248">
        <ele>95</ele>
        <time>2016-05-17T13:14:21Z</time>
      </trkpt>
      <trkpt lat="45.18336" lon="0.28252">
        <ele>96</ele>
        <time>2016-05-17T13:14:26Z</time>
      </trkpt>
      <trkpt lat="45.18333" lon="0.28255">
        <ele>98</ele>
        <time>2016-05-17T13:14:31Z</time>
      </trkpt>
      <trkpt lat="45.18328" lon="0.28256">
        <ele>101</ele>
        <time>2016-05-17T13:14:39Z</time>
      </trkpt>
      <trkpt lat="45.18326" lon="0.2826">
        <ele>102</ele>
        <time>2016-05-17T13:14:43Z</time>
      </trkpt>
      <trkpt lat="45.18322" lon="0.28264">
        <ele>102</ele>
        <time>2016-05-17T13:14:48Z</time>
      </trkpt>
      <trkpt lat="45.18319" lon="0.2827">
        <ele>100</ele>
        <time>2016-05-17T13:14:52Z</time>
      </trkpt>
      <trkpt lat="45.18315" lon="0.2827">
        <ele>101</ele>
        <time>2016-05-17T13:14:57Z</time>
      </trkpt>
      <trkpt lat="45.18311" lon="0.28274">
        <ele>102</ele>
        <time>2016-05-17T13:15:02Z</time>
      </trkpt>
      <trkpt lat="45.18306" lon="0.28277">
        <ele>103</ele>
        <time>2016-05-17T13:15:06Z</time>
      </trkpt>
      <trkpt lat="45.18303" lon="0.2828">
        <ele>102</ele>
        <time>2016-05-17T13:15:13Z</time>
      </trkpt>
      <trkpt lat="45.18297" lon="0.28284">
        <ele>103</ele>
        <time>2016-05-17T13:15:17Z</time>
      </trkpt>
      <trkpt lat="45.18294" lon="0.28289">
        <ele>105</ele>
        <time>2016-05-17T13:15:22Z</time>
      </trkpt>
      <trkpt lat="45.1829" lon="0.28293">
        <ele>105</ele>
        <time>2016-05-17T13:15:27Z</time>
      </trkpt>
      <trkpt lat="45.18287" lon="0.28299">
        <ele>104</ele>
        <time>2016-05-17T13:15:33Z</time>
      </trkpt>
      <trkpt lat="45.18281" lon="0.28305">
        <ele>104</ele>
        <time>2016-05-17T13:15:37Z</time>
      </trkpt>
      <trkpt lat="45.18278" lon="0.28308">
        <ele>103</ele>
        <time>2016-05-17T13:15:42Z</time>
      </trkpt>
      <trkpt lat="45.18273" lon="0.28317">
        <ele>100</ele>
        <time>2016-05-17T13:15:47Z</time>
      </trkpt>
      <trkpt lat="45.18271" lon="0.28322">
        <ele>101</ele>
        <time>2016-05-17T13:15:51Z</time>
      </trkpt>
      <trkpt lat="45.18268" lon="0.28329">
        <ele>99</ele>
        <time>2016-05-17T13:15:55Z</time>
      </trkpt>
      <trkpt lat="45.18264" lon="0.28337">
        <ele>96</ele>
        <time>2016-05-17T13:15:59Z</time>
      </trkpt>
      <trkpt lat="45.18261" lon="0.28344">
        <ele>96</ele>
        <time>2016-05-17T13:16:04Z</time>
      </trkpt>
      <trkpt lat="45.18256" lon="0.28352">
        <ele>94</ele>
        <time>2016-05-17T13:16:08Z</time>
      </trkpt>
      <trkpt lat="45.18253" lon="0.28356">
        <ele>96</ele>
        <time>2016-05-17T13:16:13Z</time>
      </trkpt>
      <trkpt lat="45.1825" lon="0.28359">
        <ele>97</ele>
        <time>2016-05-17T13:16:17Z</time>
      </trkpt>
      <trkpt lat="45.18248" lon="0.2836">
        <ele>99</ele>
        <time>2016-05-17T13:16:22Z</time>
      </trkpt>
      <trkpt lat="45.18243" lon="0.28369">
        <ele>98</ele>
        <time>2016-05-17T13:16:27Z</time>
      </trkpt>
      <trkpt lat="45.18238" lon="0.28374">
        <ele>100</ele>
        <time>2016-05-17T13:16:32Z</time>
      </trkpt>
      <trkpt lat="45.18232" lon="0.28383">
        <ele>98</ele>
        <time>2016-05-17T13:16:36Z</time>
      </trkpt>
      <trkpt lat="45.18228" lon="0.28387">
        <ele>98</ele>
        <time>2016-05-17T13:16:40Z</time>
      </trkpt>
      <trkpt lat="45.18225" lon="0.2839">
        <ele>97</ele>
        <time>2016-05-17T13:16:45Z</time>
      </trkpt>
      <trkpt lat="45.18222" lon="0.28395">
        <ele>97</ele>
        <time>2016-05-17T13:16:50Z</time>
      </trkpt>
      <trkpt lat="45.1822" lon="0.28399">
        <ele>103</ele>
        <time>2016-05-17T13:16:58Z</time>
      </trkpt>
      <trkpt lat="45.18218" lon="0.28404">
        <ele>103</ele>
        <time>2016-05-17T13:17:02Z</time>
      </trkpt>
      <trkpt lat="45.18215" lon="0.28409">
        <ele>105</ele>
        <time>2016-05-17T13:17:06Z</time>
      </trkpt>
      <trkpt lat="45.18212" lon="0.28418">
        <ele>99</ele>
        <time>2016-05-17T13:17:10Z</time>
      </trkpt>
      <trkpt lat="45.18211" lon="0.28424">
        <ele>102</ele>
        <time>2016-05-17T13:17:15Z</time>
      </trkpt>
      <trkpt lat="45.18205" lon="0.28432">
        <ele>98</ele>
        <time>2016-05-17T13:17:19Z</time>
      </trkpt>
      <trkpt lat="45.18203" lon="0.28439">
        <ele>97</ele>
        <time>2016-05-17T13:17:23Z</time>
      </trkpt>
      <trkpt lat="45.18198" lon="0.28447">
        <ele>95</ele>
        <time>2016-05-17T13:17:28Z</time>
      </trkpt>
      <trkpt lat="45.18195" lon="0.28452">
        <ele>96</ele>
        <time>2016-05-17T13:17:34Z</time>
      </trkpt>
      <trkpt lat="45.18192" lon="0.2846">
        <ele>93</ele>
        <time>2016-05-17T13:17:38Z</time>
      </trkpt>
      <trkpt lat="45.1819" lon="0.28464">
        <ele>93</ele>
        <time>2016-05-17T13:17:43Z</time>
      </trkpt>
      <trkpt lat="45.18185" lon="0.28469">
        <ele>94</ele>
        <time>2016-05-17T13:17:48Z</time>
      </trkpt>
      <trkpt lat="45.18183" lon="0.2847">
        <ele>95</ele>
        <time>2016-05-17T13:17:52Z</time>
      </trkpt>
      <trkpt lat="45.18178" lon="0.28478">
        <ele>91</ele>
        <time>2016-05-17T13:17:56Z</time>
      </trkpt>
      <trkpt lat="45.18176" lon="0.28484">
        <ele>93</ele>
        <time>2016-05-17T13:18:01Z</time>
      </trkpt>
      <trkpt lat="45.18169" lon="0.28496">
        <ele>88</ele>
        <time>2016-05-17T13:18:06Z</time>
      </trkpt>
      <trkpt lat="45.18167" lon="0.28499">
        <ele>88</ele>
        <time>2016-05-17T13:18:10Z</time>
      </trkpt>
      <trkpt lat="45.18165" lon="0.28508">
        <ele>87</ele>
        <time>2016-05-17T13:18:15Z</time>
      </trkpt>
      <trkpt lat="45.18162" lon="0.28512">
        <ele>88</ele>
        <time>2016-05-17T13:18:20Z</time>
      </trkpt>
      <trkpt lat="45.18158" lon="0.28519">
        <ele>86</ele>
        <time>2016-05-17T13:18:25Z</time>
      </trkpt>
      <trkpt lat="45.18155" lon="0.28521">
        <ele>85</ele>
        <time>2016-05-17T13:18:29Z</time>
      </trkpt>
      <trkpt lat="45.18152" lon="0.28523">
        <ele>87</ele>
        <time>2016-05-17T13:18:33Z</time>
      </trkpt>
      <trkpt lat="45.18148" lon="0.28528">
        <ele>85</ele>
        <time>2016-05-17T13:18:37Z</time>
      </trkpt>
      <trkpt lat="45.18145" lon="0.28532">
        <ele>85</ele>
        <time>2016-05-17T13:18:41Z</time>
      </trkpt>
      <trkpt lat="45.18142" lon="0.28538">
        <ele>85</ele>
        <time>2016-05-17T13:18:46Z</time>
      </trkpt>
      <trkpt lat="45.18141" lon="0.28544">
        <ele>84</ele>
        <time>2016-05-17T13:18:50Z</time>
      </trkpt>
      <trkpt lat="45.18136" lon="0.28555">
        <ele>81</ele>
        <time>2016-05-17T13:18:55Z</time>
      </trkpt>
      <trkpt lat="45.18132" lon="0.28559">
        <ele>81</ele>
        <time>2016-05-17T13:18:59Z</time>
      </trkpt>
      <trkpt lat="45.1813" lon="0.28565">
        <ele>81</ele>
        <time>2016-05-17T13:19:04Z</time>
      </trkpt>
      <trkpt lat="45.18128" lon="0.28571">
        <ele>81</ele>
        <time>2016-05-17T13:19:09Z</time>
      </trkpt>
      <trkpt lat="45.18123" lon="0.28574">
        <ele>81</ele>
        <time>2016-05-17T13:19:14Z</time>
      </trkpt>
      <trkpt lat="45.18119" lon="0.28578">
        <ele>82</ele>
        <time>2016-05-17T13:19:19Z</time>
      </trkpt>
      <trkpt lat="45.18117" lon="0.28584">
        <ele>83</ele>
        <time>2016-05-17T13:19:24Z</time>
      </trkpt>
      <trkpt lat="45.18115" lon="0.28587">
        <ele>85</ele>
        <time>2016-05-17T13:19:31Z</time>
      </trkpt>
      <trkpt lat="45.18111" lon="0.28593">
        <ele>85</ele>
        <time>2016-05-17T13:19:35Z</time>
      </trkpt>
      <trkpt lat="45.18106" lon="0.28599">
        <ele>84</ele>
        <time>2016-05-17T13:19:39Z</time>
      </trkpt>
      <trkpt lat="45.18102" lon="0.28604">
        <ele>84</ele>
        <time>2016-05-17T13:19:44Z</time>
      </trkpt>
      <trkpt lat="45.18098" lon="0.28606">
        <ele>82</ele>
        <time>2016-05-17T13:19:48Z</time>
      </trkpt>
      <trkpt lat="45.18091" lon="0.28617">
        <ele>80</ele>
        <time>2016-05-17T13:19:53Z</time>
      </trkpt>
      <trkpt lat="45.18087" lon="0.28626">
        <ele>78</ele>
        <time>2016-05-17T13:19:57Z</time>
      </trkpt>
      <trkpt lat="45.18086" lon="0.28634">
        <ele>79</ele>
        <time>2016-05-17T13:20:02Z</time>
      </trkpt>
      <trkpt lat="45.18083" lon="0.2864">
        <ele>76</ele>
        <time>2016-05-17T13:20:06Z</time>
      </trkpt>
      <trkpt lat="45.18079" lon="0.28643">
        <ele>75</ele>
        <time>2016-05-17T13:20:16Z</time>
      </trkpt>
      <trkpt lat="45.18076" lon="0.28648">
        <ele>75</ele>
        <time>2016-05-17T13:20:20Z</time>
      </trkpt>
      <trkpt lat="45.18073" lon="0.28655">
        <ele>74</ele>
        <time>2016-05-17T13:20:25Z</time>
      </trkpt>
      <trkpt lat="45.18069" lon="0.28657">
        <ele>75</ele>
        <time>2016-05-17T13:20:30Z</time>
      </trkpt>
      <trkpt lat="45.18066" lon="0.28655">
        <ele>80</ele>
        <time>2016-05-17T13:20:39Z</time>
      </trkpt>
      <trkpt lat="45.1806" lon="0.28652">
        <ele>82</ele>
        <time>2016-05-17T13:20:43Z</time>
      </trkpt>
      <trkpt lat="45.18056" lon="0.28656">
        <ele>81</ele>
        <time>2016-05-17T13:20:47Z</time>
      </trkpt>
      <trkpt lat="45.18051" lon="0.28657">
        <ele>82</ele>
        <time>2016-05-17T13:20:51Z</time>
      </trkpt>
      <trkpt lat="45.18048" lon="0.28656">
        <ele>85</ele>
        <time>2016-05-17T13:20:55Z</time>
      </trkpt>
      <trkpt lat="45.18041" lon="0.28655">
        <ele>86</ele>
        <time>2016-05-17T13:21:00Z</time>
      </trkpt>
      <trkpt lat="45.18035" lon="0.28656">
        <ele>85</ele>
        <time>2016-05-17T13:21:04Z</time>
      </trkpt>
      <trkpt lat="45.18028" lon="0.28658">
        <ele>82</ele>
        <time>2016-05-17T13:21:08Z</time>
      </trkpt>
      <trkpt lat="45.18024" lon="0.28658">
        <ele>79</ele>
        <time>2016-05-17T13:21:13Z</time>
      </trkpt>
      <trkpt lat="45.18018" lon="0.28656">
        <ele>79</ele>
        <time>2016-05-17T13:21:17Z</time>
      </trkpt>
      <trkpt lat="45.18014" lon="0.28653">
        <ele>79</ele>
        <time>2016-05-17T13:21:22Z</time>
      </trkpt>
      <trkpt lat="45.18009" lon="0.28652">
        <ele>77</ele>
        <time>2016-05-17T13:21:26Z</time>
      </trkpt>
      <trkpt lat="45.18004" lon="0.28655">
        <ele>74</ele>
        <time>2016-05-17T13:21:30Z</time>
      </trkpt>
      <trkpt lat="45.18" lon="0.28654">
        <ele>73</ele>
        <time>2016-05-17T13:21:34Z</time>
      </trkpt>
      <trkpt lat="45.17994" lon="0.28653">
        <ele>72</ele>
        <time>2016-05-17T13:21:39Z</time>
      </trkpt>
      <trkpt lat="45.17986" lon="0.28657">
        <ele>67</ele>
        <time>2016-05-17T13:21:43Z</time>
      </trkpt>
      <trkpt lat="45.1798" lon="0.28653">
        <ele>68</ele>
        <time>2016-05-17T13:21:48Z</time>
      </trkpt>
      <trkpt lat="45.17976" lon="0.28652">
        <ele>69</ele>
        <time>2016-05-17T13:21:52Z</time>
      </trkpt>
      <trkpt lat="45.17969" lon="0.28652">
        <ele>67</ele>
        <time>2016-05-17T13:21:57Z</time>
      </trkpt>
      <trkpt lat="45.17965" lon="0.28652">
        <ele>68</ele>
        <time>2016-05-17T13:22:02Z</time>
      </trkpt>
      <trkpt lat="45.17961" lon="0.28649">
        <ele>69</ele>
        <time>2016-05-17T13:22:06Z</time>
      </trkpt>
      <trkpt lat="45.17956" lon="0.28651">
        <ele>68</ele>
        <time>2016-05-17T13:22:11Z</time>
      </trkpt>
      <trkpt lat="45.17949" lon="0.28648">
        <ele>67</ele>
        <time>2016-05-17T13:22:15Z</time>
      </trkpt>
      <trkpt lat="45.1794" lon="0.28648">
        <ele>64</ele>
        <time>2016-05-17T13:22:20Z</time>
      </trkpt>
      <trkpt lat="45.17936" lon="0.28645">
        <ele>65</ele>
        <time>2016-05-17T13:22:24Z</time>
      </trkpt>
      <trkpt lat="45.17933" lon="0.28644">
        <ele>67</ele>
        <time>2016-05-17T13:22:31Z</time>
      </trkpt>
      <trkpt lat="45.17927" lon="0.28643">
        <ele>66</ele>
        <time>2016-05-17T13:22:35Z</time>
      </trkpt>
      <trkpt lat="45.17924" lon="0.28643">
        <ele>70</ele>
        <time>2016-05-17T13:22:39Z</time>
      </trkpt>
      <trkpt lat="45.17917" lon="0.28644">
        <ele>67</ele>
        <time>2016-05-17T13:22:44Z</time>
      </trkpt>
      <trkpt lat="45.17913" lon="0.28647">
        <ele>63</ele>
        <time>2016-05-17T13:22:49Z</time>
      </trkpt>
      <trkpt lat="45.17911" lon="0.28641">
        <ele>65</ele>
        <time>2016-05-17T13:22:54Z</time>
      </trkpt>
      <trkpt lat="45.17909" lon="0.28637">
        <ele>69</ele>
        <time>2016-05-17T13:22:59Z</time>
      </trkpt>
      <trkpt lat="45.17905" lon="0.28631">
        <ele>72</ele>
        <time>2016-05-17T13:23:03Z</time>
      </trkpt>
      <trkpt lat="45.17899" lon="0.28627">
        <ele>76</ele>
        <time>2016-05-17T13:23:07Z</time>
      </trkpt>
      <trkpt lat="45.17895" lon="0.28624">
        <ele>76</ele>
        <time>2016-05-17T13:23:12Z</time>
      </trkpt>
      <trkpt lat="45.17888" lon="0.28623">
        <ele>75</ele>
        <time>2016-05-17T13:23:17Z</time>
      </trkpt>
      <trkpt lat="45.17883" lon="0.28621">
        <ele>77</ele>
        <time>2016-05-17T13:23:22Z</time>
      </trkpt>
      <trkpt lat="45.17877" lon="0.28621">
        <ele>77</ele>
        <time>2016-05-17T13:23:26Z</time>
      </trkpt>
      <trkpt lat="45.17869" lon="0.28625">
        <ele>75</ele>
        <time>2016-05-17T13:23:31Z</time>
      </trkpt>
      <trkpt lat="45.17863" lon="0.28626">
        <ele>76</ele>
        <time>2016-05-17T13:23:35Z</time>
      </trkpt>
      <trkpt lat="45.17859" lon="0.28626">
        <ele>75</ele>
        <time>2016-05-17T13:23:39Z</time>
      </trkpt>
      <trkpt lat="45.17854" lon="0.28633">
        <ele>70</ele>
        <time>2016-05-17T13:23:44Z</time>
      </trkpt>
      <trkpt lat="45.17851" lon="0.28632">
        <ele>74</ele>
        <time>2016-05-17T13:23:51Z</time>
      </trkpt>
      <trkpt lat="45.17845" lon="0.28632">
        <ele>73</ele>
        <time>2016-05-17T13:23:55Z</time>
      </trkpt>
      <trkpt lat="45.17841" lon="0.2863">
        <ele>73</ele>
        <time>2016-05-17T13:24:00Z</time>
      </trkpt>
      <trkpt lat="45.17836" lon="0.28629">
        <ele>75</ele>
        <time>2016-05-17T13:24:05Z</time>
      </trkpt>
      <trkpt lat="45.17832" lon="0.28632">
        <ele>72</ele>
        <time>2016-05-17T13:24:14Z</time>
      </trkpt>
      <trkpt lat="45.17828" lon="0.28634">
        <ele>70</ele>
        <time>2016-05-17T13:24:33Z</time>
      </trkpt>
      <trkpt lat="45.17824" lon="0.28637">
        <ele>66</ele>
        <time>2016-05-17T13:25:35Z</time>
      </trkpt>
      <trkpt lat="45.17821" lon="0.2864">
        <ele>70</ele>
        <time>2016-05-17T13:26:00Z</time>
      </trkpt>
      <trkpt lat="45.17816" lon="0.28643">
        <ele>70</ele>
        <time>2016-05-17T13:26:12Z</time>
      </trkpt>
      <trkpt lat="45.17813" lon="0.28646">
        <ele>68</ele>
        <time>2016-05-17T13:26:22Z</time>
      </trkpt>
      <trkpt lat="45.17809" lon="0.28646">
        <ele>68</ele>
        <time>2016-05-17T13:26:27Z</time>
      </trkpt>
      <trkpt lat="45.17804" lon="0.28645">
        <ele>67</ele>
        <time>2016-05-17T13:26:31Z</time>
      </trkpt>
      <trkpt lat="45.178" lon="0.28642">
        <ele>68</ele>
        <time>2016-05-17T13:26:35Z</time>
      </trkpt>
      <trkpt lat="45.17798" lon="0.28637">
        <ele>69</ele>
        <time>2016-05-17T13:26:40Z</time>
      </trkpt>
      <trkpt lat="45.17798" lon="0.2863">
        <ele>71</ele>
        <time>2016-05-17T13:26:45Z</time>
      </trkpt>
      <trkpt lat="45.17799" lon="0.28625">
        <ele>71</ele>
        <time>2016-05-17T13:26:49Z</time>
      </trkpt>
      <trkpt lat="45.17799" lon="0.28619">
        <ele>71</ele>
        <time>2016-05-17T13:26:54Z</time>
      </trkpt>
      <trkpt lat="45.178" lon="0.28613">
        <ele>72</ele>
        <time>2016-05-17T13:26:59Z</time>
      </trkpt>
      <trkpt lat="45.17799" lon="0.28606">
        <ele>70</ele>
        <time>2016-05-17T13:27:03Z</time>
      </trkpt>
      <trkpt lat="45.178" lon="0.28598">
        <ele>70</ele>
        <time>2016-05-17T13:27:08Z</time>
      </trkpt>
      <trkpt lat="45.17798" lon="0.28592">
        <ele>71</ele>
        <time>2016-05-17T13:27:12Z</time>
      </trkpt>
      <trkpt lat="45.17794" lon="0.28589">
        <ele>73</ele>
        <time>2016-05-17T13:27:17Z</time>
      </trkpt>
      <trkpt lat="45.17791" lon="0.28587">
        <ele>73</ele>
        <time>2016-05-17T13:27:21Z</time>
      </trkpt>
      <trkpt lat="45.17785" lon="0.28587">
        <ele>72</ele>
        <time>2016-05-17T13:27:25Z</time>
      </trkpt>
      <trkpt lat="45.17783" lon="0.2858">
        <ele>73</ele>
        <time>2016-05-17T13:27:29Z</time>
      </trkpt>
      <trkpt lat="45.17779" lon="0.28577">
        <ele>74</ele>
        <time>2016-05-17T13:27:34Z</time>
      </trkpt>
      <trkpt lat="45.17776" lon="0.28573">
        <ele>79</ele>
        <time>2016-05-17T13:27:40Z</time>
      </trkpt>
      <trkpt lat="45.17772" lon="0.28574">
        <ele>80</ele>
        <time>2016-05-17T13:27:45Z</time>
      </trkpt>
      <trkpt lat="45.17767" lon="0.28574">
        <ele>81</ele>
        <time>2016-05-17T13:27:50Z</time>
      </trkpt>
      <trkpt lat="45.17762" lon="0.28574">
        <ele>82</ele>
        <time>2016-05-17T13:27:54Z</time>
      </trkpt>
      <trkpt lat="45.17758" lon="0.28574">
        <ele>84</ele>
        <time>2016-05-17T13:28:00Z</time>
      </trkpt>
      <trkpt lat="45.17754" lon="0.28574">
        <ele>85</ele>
        <time>2016-05-17T13:28:07Z</time>
      </trkpt>
      <trkpt lat="45.17751" lon="0.28572">
        <ele>89</ele>
        <time>2016-05-17T13:28:13Z</time>
      </trkpt>
      <trkpt lat="45.17744" lon="0.2857">
        <ele>93</ele>
        <time>2016-05-17T13:28:18Z</time>
      </trkpt>
      <trkpt lat="45.17741" lon="0.28568">
        <ele>93</ele>
        <time>2016-05-17T13:28:25Z</time>
      </trkpt>
      <trkpt lat="45.17737" lon="0.28567">
        <ele>94</ele>
        <time>2016-05-17T13:28:30Z</time>
      </trkpt>
      <trkpt lat="45.17731" lon="0.28569">
        <ele>93</ele>
        <time>2016-05-17T13:28:34Z</time>
      </trkpt>
      <trkpt lat="45.17725" lon="0.28566">
        <ele>92</ele>
        <time>2016-05-17T13:28:39Z</time>
      </trkpt>
      <trkpt lat="45.17721" lon="0.28565">
        <ele>93</ele>
        <time>2016-05-17T13:28:43Z</time>
      </trkpt>
      <trkpt lat="45.17716" lon="0.28564">
        <ele>94</ele>
        <time>2016-05-17T13:28:47Z</time>
      </trkpt>
      <trkpt lat="45.17711" lon="0.28567">
        <ele>94</ele>
        <time>2016-05-17T13:28:52Z</time>
      </trkpt>
      <trkpt lat="45.17706" lon="0.28567">
        <ele>95</ele>
        <time>2016-05-17T13:28:57Z</time>
      </trkpt>
      <trkpt lat="45.17704" lon="0.28569">
        <ele>96</ele>
        <time>2016-05-17T13:29:01Z</time>
      </trkpt>
      <trkpt lat="45.17696" lon="0.28569">
        <ele>94</ele>
        <time>2016-05-17T13:29:05Z</time>
      </trkpt>
      <trkpt lat="45.1769" lon="0.28568">
        <ele>94</ele>
        <time>2016-05-17T13:29:09Z</time>
      </trkpt>
      <trkpt lat="45.17689" lon="0.28563">
        <ele>96</ele>
        <time>2016-05-17T13:29:15Z</time>
      </trkpt>
      <trkpt lat="45.17683" lon="0.2856">
        <ele>97</ele>
        <time>2016-05-17T13:29:20Z</time>
      </trkpt>
      <trkpt lat="45.17679" lon="0.28557">
        <ele>98</ele>
        <time>2016-05-17T13:29:24Z</time>
      </trkpt>
      <trkpt lat="45.17676" lon="0.28556">
        <ele>97</ele>
        <time>2016-05-17T13:29:30Z</time>
      </trkpt>
      <trkpt lat="45.17671" lon="0.28552">
        <ele>98</ele>
        <time>2016-05-17T13:29:35Z</time>
      </trkpt>
      <trkpt lat="45.17667" lon="0.28551">
        <ele>100</ele>
        <time>2016-05-17T13:29:42Z</time>
      </trkpt>
      <trkpt lat="45.1766" lon="0.2855">
        <ele>101</ele>
        <time>2016-05-17T13:29:47Z</time>
      </trkpt>
      <trkpt lat="45.17655" lon="0.28549">
        <ele>100</ele>
        <time>2016-05-17T13:29:51Z</time>
      </trkpt>
      <trkpt lat="45.17649" lon="0.28548">
        <ele>100</ele>
        <time>2016-05-17T13:29:55Z</time>
      </trkpt>
      <trkpt lat="45.17646" lon="0.28544">
        <ele>100</ele>
        <time>2016-05-17T13:30:01Z</time>
      </trkpt>
      <trkpt lat="45.17643" lon="0.2854">
        <ele>100</ele>
        <time>2016-05-17T13:30:06Z</time>
      </trkpt>
      <trkpt lat="45.17639" lon="0.28539">
        <ele>104</ele>
        <time>2016-05-17T13:30:15Z</time>
      </trkpt>
      <trkpt lat="45.17636" lon="0.28536">
        <ele>104</ele>
        <time>2016-05-17T13:30:19Z</time>
      </trkpt>
      <trkpt lat="45.17631" lon="0.28533">
        <ele>105</ele>
        <time>2016-05-17T13:30:23Z</time>
      </trkpt>
      <trkpt lat="45.17628" lon="0.28532">
        <ele>106</ele>
        <time>2016-05-17T13:30:30Z</time>
      </trkpt>
      <trkpt lat="45.17623" lon="0.28533">
        <ele>107</ele>
        <time>2016-05-17T13:30:35Z</time>
      </trkpt>
      <trkpt lat="45.17619" lon="0.2853">
        <ele>106</ele>
        <time>2016-05-17T13:30:41Z</time>
      </trkpt>
      <trkpt lat="45.17613" lon="0.28526">
        <ele>109</ele>
        <time>2016-05-17T13:30:46Z</time>
      </trkpt>
      <trkpt lat="45.17607" lon="0.28525">
        <ele>107</ele>
        <time>2016-05-17T13:30:50Z</time>
      </trkpt>
      <trkpt lat="45.17601" lon="0.28524">
        <ele>107</ele>
        <time>2016-05-17T13:30:55Z</time>
      </trkpt>
      <trkpt lat="45.17596" lon="0.28521">
        <ele>107</ele>
        <time>2016-05-17T13:30:59Z</time>
      </trkpt>
      <trkpt lat="45.1759" lon="0.28519">
        <ele>106</ele>
        <time>2016-05-17T13:31:04Z</time>
      </trkpt>
      <trkpt lat="45.17585" lon="0.28515">
        <ele>107</ele>
        <time>2016-05-17T13:31:08Z</time>
      </trkpt>
      <trkpt lat="45.17577" lon="0.28515">
        <ele>106</ele>
        <time>2016-05-17T13:31:13Z</time>
      </trkpt>
      <trkpt lat="45.17573" lon="0.28509">
        <ele>109</ele>
        <time>2016-05-17T13:31:17Z</time>
      </trkpt>
      <trkpt lat="45.17566" lon="0.28509">
        <ele>110</ele>
        <time>2016-05-17T13:31:22Z</time>
      </trkpt>
      <trkpt lat="45.17561" lon="0.28504">
        <ele>113</ele>
        <time>2016-05-17T13:31:27Z</time>
      </trkpt>
      <trkpt lat="45.17553" lon="0.28507">
        <ele>109</ele>
        <time>2016-05-17T13:31:31Z</time>
      </trkpt>
      <trkpt lat="45.17547" lon="0.28507">
        <ele>109</ele>
        <time>2016-05-17T13:31:35Z</time>
      </trkpt>
      <trkpt lat="45.17542" lon="0.28506">
        <ele>109</ele>
        <time>2016-05-17T13:31:39Z</time>
      </trkpt>
      <trkpt lat="45.17536" lon="0.28506">
        <ele>110</ele>
        <time>2016-05-17T13:31:43Z</time>
      </trkpt>
      <trkpt lat="45.17531" lon="0.28506">
        <ele>110</ele>
        <time>2016-05-17T13:31:48Z</time>
      </trkpt>
      <trkpt lat="45.17526" lon="0.28504">
        <ele>111</ele>
        <time>2016-05-17T13:31:52Z</time>
      </trkpt>
      <trkpt lat="45.17521" lon="0.28501">
        <ele>110</ele>
        <time>2016-05-17T13:31:56Z</time>
      </trkpt>
      <trkpt lat="45.17517" lon="0.28498">
        <ele>111</ele>
        <time>2016-05-17T13:32:00Z</time>
      </trkpt>
      <trkpt lat="45.17513" lon="0.28497">
        <ele>112</ele>
        <time>2016-05-17T13:32:08Z</time>
      </trkpt>
      <trkpt lat="45.17506" lon="0.28499">
        <ele>110</ele>
        <time>2016-05-17T13:32:12Z</time>
      </trkpt>
      <trkpt lat="45.17501" lon="0.28497">
        <ele>111</ele>
        <time>2016-05-17T13:32:17Z</time>
      </trkpt>
      <trkpt lat="45.17498" lon="0.28495">
        <ele>110</ele>
        <time>2016-05-17T13:32:23Z</time>
      </trkpt>
      <trkpt lat="45.17494" lon="0.28495">
        <ele>111</ele>
        <time>2016-05-17T13:32:30Z</time>
      </trkpt>
      <trkpt lat="45.1749" lon="0.28495">
        <ele>109</ele>
        <time>2016-05-17T13:32:34Z</time>
      </trkpt>
      <trkpt lat="45.17485" lon="0.28494">
        <ele>110</ele>
        <time>2016-05-17T13:32:38Z</time>
      </trkpt>
      <trkpt lat="45.17483" lon="0.28491">
        <ele>112</ele>
        <time>2016-05-17T13:32:42Z</time>
      </trkpt>
      <trkpt lat="45.17478" lon="0.28489">
        <ele>114</ele>
        <time>2016-05-17T13:32:46Z</time>
      </trkpt>
      <trkpt lat="45.17475" lon="0.28488">
        <ele>114</ele>
        <time>2016-05-17T13:32:53Z</time>
      </trkpt>
      <trkpt lat="45.17468" lon="0.28487">
        <ele>111</ele>
        <time>2016-05-17T13:32:58Z</time>
      </trkpt>
      <trkpt lat="45.1746" lon="0.28487">
        <ele>109</ele>
        <time>2016-05-17T13:33:02Z</time>
      </trkpt>
      <trkpt lat="45.17454" lon="0.28483">
        <ele>111</ele>
        <time>2016-05-17T13:33:06Z</time>
      </trkpt>
      <trkpt lat="45.1745" lon="0.2848">
        <ele>113</ele>
        <time>2016-05-17T13:33:11Z</time>
      </trkpt>
      <trkpt lat="45.17445" lon="0.2848">
        <ele>112</ele>
        <time>2016-05-17T13:33:15Z</time>
      </trkpt>
      <trkpt lat="45.17441" lon="0.2848">
        <ele>113</ele>
        <time>2016-05-17T13:33:19Z</time>
      </trkpt>
      <trkpt lat="45.17438" lon="0.28478">
        <ele>114</ele>
        <time>2016-05-17T13:33:25Z</time>
      </trkpt>
      <trkpt lat="45.1743" lon="0.28478">
        <ele>113</ele>
        <time>2016-05-17T13:33:29Z</time>
      </trkpt>
      <trkpt lat="45.17423" lon="0.28479">
        <ele>112</ele>
        <time>2016-05-17T13:33:33Z</time>
      </trkpt>
      <trkpt lat="45.17418" lon="0.28478">
        <ele>110</ele>
        <time>2016-05-17T13:33:38Z</time>
      </trkpt>
      <trkpt lat="45.17414" lon="0.28478">
        <ele>109</ele>
        <time>2016-05-17T13:33:44Z</time>
      </trkpt>
      <trkpt lat="45.17408" lon="0.28477">
        <ele>108</ele>
        <time>2016-05-17T13:33:48Z</time>
      </trkpt>
      <trkpt lat="45.17404" lon="0.28478">
        <ele>110</ele>
        <time>2016-05-17T13:33:56Z</time>
      </trkpt>
      <trkpt lat="45.174" lon="0.28478">
        <ele>112</ele>
        <time>2016-05-17T13:34:02Z</time>
      </trkpt>
      <trkpt lat="45.17396" lon="0.28475">
        <ele>116</ele>
        <time>2016-05-17T13:34:07Z</time>
      </trkpt>
      <trkpt lat="45.17392" lon="0.28474">
        <ele>121</ele>
        <time>2016-05-17T13:34:17Z</time>
      </trkpt>
      <trkpt lat="45.17387" lon="0.28473">
        <ele>122</ele>
        <time>2016-05-17T13:34:22Z</time>
      </trkpt>
      <trkpt lat="45.17384" lon="0.2847">
        <ele>125</ele>
        <time>2016-05-17T13:34:27Z</time>
      </trkpt>
      <trkpt lat="45.1738" lon="0.28469">
        <ele>127</ele>
        <time>2016-05-17T13:34:32Z</time>
      </trkpt>
      <trkpt lat="45.17376" lon="0.2847">
        <ele>125</ele>
        <time>2016-05-17T13:34:37Z</time>
      </trkpt>
      <trkpt lat="45.17373" lon="0.28472">
        <ele>123</ele>
        <time>2016-05-17T13:34:42Z</time>
      </trkpt>
      <trkpt lat="45.17364" lon="0.28474">
        <ele>122</ele>
        <time>2016-05-17T13:34:46Z</time>
      </trkpt>
      <trkpt lat="45.1736" lon="0.28471">
        <ele>124</ele>
        <time>2016-05-17T13:34:50Z</time>
      </trkpt>
      <trkpt lat="45.17358" lon="0.28469">
        <ele>124</ele>
        <time>2016-05-17T13:35:02Z</time>
      </trkpt>
      <trkpt lat="45.17349" lon="0.28468">
        <ele>124</ele>
        <time>2016-05-17T13:35:06Z</time>
      </trkpt>
      <trkpt lat="45.17345" lon="0.28465">
        <ele>128</ele>
        <time>2016-05-17T13:35:11Z</time>
      </trkpt>
      <trkpt lat="45.17339" lon="0.28463">
        <ele>128</ele>
        <time>2016-05-17T13:35:15Z</time>
      </trkpt>
      <trkpt lat="45.17331" lon="0.2846">
        <ele>127</ele>
        <time>2016-05-17T13:35:20Z</time>
      </trkpt>
      <trkpt lat="45.17326" lon="0.28458">
        <ele>128</ele>
        <time>2016-05-17T13:35:24Z</time>
      </trkpt>
      <trkpt lat="45.17322" lon="0.28457">
        <ele>131</ele>
        <time>2016-05-17T13:35:30Z</time>
      </trkpt>
      <trkpt lat="45.17314" lon="0.28454">
        <ele>131</ele>
        <time>2016-05-17T13:35:35Z</time>
      </trkpt>
      <trkpt lat="45.1731" lon="0.28452">
        <ele>132</ele>
        <time>2016-05-17T13:35:39Z</time>
      </trkpt>
      <trkpt lat="45.17306" lon="0.28451">
        <ele>132</ele>
        <time>2016-05-17T13:35:43Z</time>
      </trkpt>
      <trkpt lat="45.173" lon="0.28455">
        <ele>129</ele>
        <time>2016-05-17T13:35:48Z</time>
      </trkpt>
      <trkpt lat="45.17293" lon="0.28454">
        <ele>127</ele>
        <time>2016-05-17T13:35:52Z</time>
      </trkpt>
      <trkpt lat="45.17289" lon="0.28454">
        <ele>127</ele>
        <time>2016-05-17T13:35:56Z</time>
      </trkpt>
      <trkpt lat="45.17285" lon="0.2845">
        <ele>128</ele>
        <time>2016-05-17T13:36:00Z</time>
      </trkpt>
      <trkpt lat="45.17277" lon="0.2845">
        <ele>126</ele>
        <time>2016-05-17T13:36:05Z</time>
      </trkpt>
      <trkpt lat="45.17272" lon="0.2845">
        <ele>126</ele>
        <time>2016-05-17T13:36:09Z</time>
      </trkpt>
      <trkpt lat="45.17268" lon="0.28449">
        <ele>123</ele>
        <time>2016-05-17T13:36:15Z</time>
      </trkpt>
      <trkpt lat="45.17263" lon="0.28445">
        <ele>125</ele>
        <time>2016-05-17T13:36:19Z</time>
      </trkpt>
      <trkpt lat="45.17259" lon="0.28445">
        <ele>123</ele>
        <time>2016-05-17T13:36:23Z</time>
      </trkpt>
      <trkpt lat="45.17254" lon="0.28445">
        <ele>124</ele>
        <time>2016-05-17T13:36:27Z</time>
      </trkpt>
      <trkpt lat="45.1725" lon="0.28443">
        <ele>124</ele>
        <time>2016-05-17T13:36:32Z</time>
      </trkpt>
      <trkpt lat="45.17243" lon="0.28439">
        <ele>121</ele>
        <time>2016-05-17T13:36:36Z</time>
      </trkpt>
      <trkpt lat="45.17238" lon="0.28434">
        <ele>122</ele>
        <time>2016-05-17T13:36:41Z</time>
      </trkpt>
      <trkpt lat="45.17235" lon="0.28431">
        <ele>120</ele>
        <time>2016-05-17T13:36:45Z</time>
      </trkpt>
      <trkpt lat="45.17232" lon="0.28427">
        <ele>120</ele>
        <time>2016-05-17T13:36:49Z</time>
      </trkpt>
      <trkpt lat="45.17227" lon="0.28422">
        <ele>119</ele>
        <time>2016-05-17T13:36:54Z</time>
      </trkpt>
      <trkpt lat="45.17225" lon="0.28417">
        <ele>120</ele>
        <time>2016-05-17T13:36:59Z</time>
      </trkpt>
      <trkpt lat="45.17219" lon="0.28412">
        <ele>120</ele>
        <time>2016-05-17T13:37:03Z</time>
      </trkpt>
      <trkpt lat="45.17217" lon="0.28408">
        <ele>121</ele>
        <time>2016-05-17T13:37:08Z</time>
      </trkpt>
      <trkpt lat="45.17214" lon="0.28404">
        <ele>122</ele>
        <time>2016-05-17T13:37:12Z</time>
      </trkpt>
      <trkpt lat="45.1721" lon="0.28401">
        <ele>122</ele>
        <time>2016-05-17T13:37:16Z</time>
      </trkpt>
      <trkpt lat="45.172" lon="0.28397">
        <ele>119</ele>
        <time>2016-05-17T13:37:21Z</time>
      </trkpt>
      <trkpt lat="45.17195" lon="0.28394">
        <ele>118</ele>
        <time>2016-05-17T13:37:25Z</time>
      </trkpt>
      <trkpt lat="45.17188" lon="0.2839">
        <ele>117</ele>
        <time>2016-05-17T13:37:30Z</time>
      </trkpt>
      <trkpt lat="45.17185" lon="0.28386">
        <ele>117</ele>
        <time>2016-05-17T13:37:34Z</time>
      </trkpt>
      <trkpt lat="45.17178" lon="0.28385">
        <ele>117</ele>
        <time>2016-05-17T13:37:38Z</time>
      </trkpt>
      <trkpt lat="45.17175" lon="0.2838">
        <ele>118</ele>
        <time>2016-05-17T13:37:43Z</time>
      </trkpt>
      <trkpt lat="45.17172" lon="0.28376">
        <ele>119</ele>
        <time>2016-05-17T13:37:47Z</time>
      </trkpt>
      <trkpt lat="45.17168" lon="0.28373">
        <ele>120</ele>
        <time>2016-05-17T13:37:51Z</time>
      </trkpt>
      <trkpt lat="45.17166" lon="0.28368">
        <ele>123</ele>
        <time>2016-05-17T13:37:57Z</time>
      </trkpt>
      <trkpt lat="45.17156" lon="0.28366">
        <ele>120</ele>
        <time>2016-05-17T13:38:02Z</time>
      </trkpt>
      <trkpt lat="45.17145" lon="0.28362">
        <ele>116</ele>
        <time>2016-05-17T13:38:06Z</time>
      </trkpt>
      <trkpt lat="45.1714" lon="0.28358">
        <ele>115</ele>
        <time>2016-05-17T13:38:11Z</time>
      </trkpt>
      <trkpt lat="45.17136" lon="0.28355">
        <ele>115</ele>
        <time>2016-05-17T13:38:15Z</time>
      </trkpt>
      <trkpt lat="45.17133" lon="0.28353">
        <ele>116</ele>
        <time>2016-05-17T13:38:19Z</time>
      </trkpt>
      <trkpt lat="45.1713" lon="0.2835">
        <ele>117</ele>
        <time>2016-05-17T13:38:23Z</time>
      </trkpt>
      <trkpt lat="45.17126" lon="0.28345">
        <ele>117</ele>
        <time>2016-05-17T13:38:28Z</time>
      </trkpt>
      <trkpt lat="45.17125" lon="0.2834">
        <ele>119</ele>
        <time>2016-05-17T13:38:33Z</time>
      </trkpt>
      <trkpt lat="45.17123" lon="0.28335">
        <ele>120</ele>
        <time>2016-05-17T13:38:37Z</time>
      </trkpt>
      <trkpt lat="45.17121" lon="0.28329">
        <ele>121</ele>
        <time>2016-05-17T13:38:42Z</time>
      </trkpt>
      <trkpt lat="45.17115" lon="0.28326">
        <ele>120</ele>
        <time>2016-05-17T13:38:46Z</time>
      </trkpt>
      <trkpt lat="45.17111" lon="0.28322">
        <ele>120</ele>
        <time>2016-05-17T13:38:51Z</time>
      </trkpt>
      <trkpt lat="45.17107" lon="0.2832">
        <ele>121</ele>
        <time>2016-05-17T13:38:55Z</time>
      </trkpt>
      <trkpt lat="45.17102" lon="0.28314">
        <ele>120</ele>
        <time>2016-05-17T13:38:59Z</time>
      </trkpt>
      <trkpt lat="45.17094" lon="0.2831">
        <ele>118</ele>
        <time>2016-05-17T13:39:04Z</time>
      </trkpt>
      <trkpt lat="45.1709" lon="0.28307">
        <ele>117</ele>
        <time>2016-05-17T13:39:08Z</time>
      </trkpt>
      <trkpt lat="45.17088" lon="0.28302">
        <ele>121</ele>
        <time>2016-05-17T13:39:15Z</time>
      </trkpt>
      <trkpt lat="45.17086" lon="0.28295">
        <ele>123</ele>
        <time>2016-05-17T13:39:20Z</time>
      </trkpt>
      <trkpt lat="45.17081" lon="0.2829">
        <ele>121</ele>
        <time>2016-05-17T13:39:24Z</time>
      </trkpt>
      <trkpt lat="45.17073" lon="0.28285">
        <ele>120</ele>
        <time>2016-05-17T13:39:29Z</time>
      </trkpt>
      <trkpt lat="45.1707" lon="0.28284">
        <ele>121</ele>
        <time>2016-05-17T13:39:33Z</time>
      </trkpt>
      <trkpt lat="45.17064" lon="0.28279">
        <ele>119</ele>
        <time>2016-05-17T13:39:37Z</time>
      </trkpt>
      <trkpt lat="45.17059" lon="0.28275">
        <ele>119</ele>
        <time>2016-05-17T13:39:41Z</time>
      </trkpt>
      <trkpt lat="45.17056" lon="0.28272">
        <ele>122</ele>
        <time>2016-05-17T13:39:47Z</time>
      </trkpt>
      <trkpt lat="45.17052" lon="0.28269">
        <ele>122</ele>
        <time>2016-05-17T13:39:53Z</time>
      </trkpt>
      <trkpt lat="45.17045" lon="0.28262">
        <ele>122</ele>
        <time>2016-05-17T13:39:58Z</time>
      </trkpt>
      <trkpt lat="45.17038" lon="0.28257">
        <ele>121</ele>
        <time>2016-05-17T13:40:03Z</time>
      </trkpt>
      <trkpt lat="45.17036" lon="0.28251">
        <ele>123</ele>
        <time>2016-05-17T13:40:08Z</time>
      </trkpt>
      <trkpt lat="45.17034" lon="0.28247">
        <ele>130</ele>
        <time>2016-05-17T13:40:17Z</time>
      </trkpt>
      <trkpt lat="45.17031" lon="0.28243">
        <ele>130</ele>
        <time>2016-05-17T13:40:21Z</time>
      </trkpt>
      <trkpt lat="45.17028" lon="0.28239">
        <ele>132</ele>
        <time>2016-05-17T13:40:25Z</time>
      </trkpt>
      <trkpt lat="45.17023" lon="0.28233">
        <ele>131</ele>
        <time>2016-05-17T13:40:29Z</time>
      </trkpt>
      <trkpt lat="45.1702" lon="0.2823">
        <ele>131</ele>
        <time>2016-05-17T13:40:33Z</time>
      </trkpt>
      <trkpt lat="45.17017" lon="0.28226">
        <ele>131</ele>
        <time>2016-05-17T13:40:37Z</time>
      </trkpt>
      <trkpt lat="45.17013" lon="0.28222">
        <ele>130</ele>
        <time>2016-05-17T13:40:42Z</time>
      </trkpt>
      <trkpt lat="45.17007" lon="0.28219">
        <ele>128</ele>
        <time>2016-05-17T13:40:46Z</time>
      </trkpt>
      <trkpt lat="45.17002" lon="0.28215">
        <ele>129</ele>
        <time>2016-05-17T13:40:50Z</time>
      </trkpt>
      <trkpt lat="45.16998" lon="0.28211">
        <ele>129</ele>
        <time>2016-05-17T13:40:55Z</time>
      </trkpt>
      <trkpt lat="45.16991" lon="0.28211">
        <ele>127</ele>
        <time>2016-05-17T13:40:59Z</time>
      </trkpt>
      <trkpt lat="45.16985" lon="0.28209">
        <ele>127</ele>
        <time>2016-05-17T13:41:03Z</time>
      </trkpt>
      <trkpt lat="45.1698" lon="0.28208">
        <ele>128</ele>
        <time>2016-05-17T13:41:08Z</time>
      </trkpt>
      <trkpt lat="45.16974" lon="0.2821">
        <ele>128</ele>
        <time>2016-05-17T13:41:12Z</time>
      </trkpt>
      <trkpt lat="45.16971" lon="0.28212">
        <ele>128</ele>
        <time>2016-05-17T13:41:17Z</time>
      </trkpt>
      <trkpt lat="45.16968" lon="0.28214">
        <ele>131</ele>
        <time>2016-05-17T13:41:21Z</time>
      </trkpt>
      <trkpt lat="45.16961" lon="0.28219">
        <ele>130</ele>
        <time>2016-05-17T13:41:25Z</time>
      </trkpt>
      <trkpt lat="45.16958" lon="0.28224">
        <ele>131</ele>
        <time>2016-05-17T13:41:30Z</time>
      </trkpt>
      <trkpt lat="45.16954" lon="0.28231">
        <ele>132</ele>
        <time>2016-05-17T13:41:34Z</time>
      </trkpt>
      <trkpt lat="45.16948" lon="0.28239">
        <ele>125</ele>
        <time>2016-05-17T13:41:39Z</time>
      </trkpt>
      <trkpt lat="45.16942" lon="0.28251">
        <ele>116</ele>
        <time>2016-05-17T13:41:44Z</time>
      </trkpt>
      <trkpt lat="45.1694" lon="0.2826">
        <ele>117</ele>
        <time>2016-05-17T13:41:48Z</time>
      </trkpt>
      <trkpt lat="45.16937" lon="0.28268">
        <ele>120</ele>
        <time>2016-05-17T13:41:52Z</time>
      </trkpt>
      <trkpt lat="45.16935" lon="0.28273">
        <ele>119</ele>
        <time>2016-05-17T13:41:56Z</time>
      </trkpt>
      <trkpt lat="45.16932" lon="0.28282">
        <ele>119</ele>
        <time>2016-05-17T13:42:01Z</time>
      </trkpt>
      <trkpt lat="45.16929" lon="0.2829">
        <ele>116</ele>
        <time>2016-05-17T13:42:05Z</time>
      </trkpt>
      <trkpt lat="45.16925" lon="0.28291">
        <ele>118</ele>
        <time>2016-05-17T13:42:12Z</time>
      </trkpt>
      <trkpt lat="45.16921" lon="0.28298">
        <ele>116</ele>
        <time>2016-05-17T13:42:17Z</time>
      </trkpt>
      <trkpt lat="45.16917" lon="0.28299">
        <ele>118</ele>
        <time>2016-05-17T13:42:23Z</time>
      </trkpt>
      <trkpt lat="45.16915" lon="0.28308">
        <ele>118</ele>
        <time>2016-05-17T13:42:27Z</time>
      </trkpt>
      <trkpt lat="45.16911" lon="0.28312">
        <ele>118</ele>
        <time>2016-05-17T13:42:32Z</time>
      </trkpt>
      <trkpt lat="45.16907" lon="0.28315">
        <ele>119</ele>
        <time>2016-05-17T13:42:36Z</time>
      </trkpt>
      <trkpt lat="45.16904" lon="0.28319">
        <ele>119</ele>
        <time>2016-05-17T13:42:40Z</time>
      </trkpt>
      <trkpt lat="45.16899" lon="0.28326">
        <ele>118</ele>
        <time>2016-05-17T13:42:44Z</time>
      </trkpt>
      <trkpt lat="45.16895" lon="0.28328">
        <ele>123</ele>
        <time>2016-05-17T13:42:50Z</time>
      </trkpt>
      <trkpt lat="45.1689" lon="0.28334">
        <ele>123</ele>
        <time>2016-05-17T13:42:55Z</time>
      </trkpt>
      <trkpt lat="45.16886" lon="0.28341">
        <ele>122</ele>
        <time>2016-05-17T13:42:59Z</time>
      </trkpt>
      <trkpt lat="45.16881" lon="0.28347">
        <ele>122</ele>
        <time>2016-05-17T13:43:04Z</time>
      </trkpt>
      <trkpt lat="45.16876" lon="0.28353">
        <ele>116</ele>
        <time>2016-05-17T13:43:08Z</time>
      </trkpt>
      <trkpt lat="45.16873" lon="0.28357">
        <ele>116</ele>
        <time>2016-05-17T13:43:12Z</time>
      </trkpt>
      <trkpt lat="45.16868" lon="0.28362">
        <ele>116</ele>
        <time>2016-05-17T13:43:16Z</time>
      </trkpt>
      <trkpt lat="45.16865" lon="0.2837">
        <ele>114</ele>
        <time>2016-05-17T13:43:21Z</time>
      </trkpt>
      <trkpt lat="45.16862" lon="0.28374">
        <ele>117</ele>
        <time>2016-05-17T13:43:26Z</time>
      </trkpt>
      <trkpt lat="45.16856" lon="0.2838">
        <ele>116</ele>
        <time>2016-05-17T13:43:31Z</time>
      </trkpt>
      <trkpt lat="45.16853" lon="0.28381">
        <ele>118</ele>
        <time>2016-05-17T13:43:36Z</time>
      </trkpt>
      <trkpt lat="45.16848" lon="0.28384">
        <ele>117</ele>
        <time>2016-05-17T13:43:40Z</time>
      </trkpt>
      <trkpt lat="45.16844" lon="0.28387">
        <ele>117</ele>
        <time>2016-05-17T13:43:45Z</time>
      </trkpt>
      <trkpt lat="45.1684" lon="0.28392">
        <ele>115</ele>
        <time>2016-05-17T13:43:50Z</time>
      </trkpt>
      <trkpt lat="45.16836" lon="0.28397">
        <ele>113</ele>
        <time>2016-05-17T13:43:54Z</time>
      </trkpt>
      <trkpt lat="45.16832" lon="0.28403">
        <ele>112</ele>
        <time>2016-05-17T13:43:58Z</time>
      </trkpt>
      <trkpt lat="45.16828" lon="0.28408">
        <ele>113</ele>
        <time>2016-05-17T13:44:02Z</time>
      </trkpt>
      <trkpt lat="45.16824" lon="0.28416">
        <ele>109</ele>
        <time>2016-05-17T13:44:07Z</time>
      </trkpt>
      <trkpt lat="45.16821" lon="0.2842">
        <ele>110</ele>
        <time>2016-05-17T13:44:11Z</time>
      </trkpt>
      <trkpt lat="45.16817" lon="0.28428">
        <ele>112</ele>
        <time>2016-05-17T13:44:16Z</time>
      </trkpt>
      <trkpt lat="45.16814" lon="0.28433">
        <ele>113</ele>
        <time>2016-05-17T13:44:20Z</time>
      </trkpt>
      <trkpt lat="45.16812" lon="0.28438">
        <ele>116</ele>
        <time>2016-05-17T13:44:24Z</time>
      </trkpt>
      <trkpt lat="45.16809" lon="0.28447">
        <ele>115</ele>
        <time>2016-05-17T13:44:29Z</time>
      </trkpt>
      <trkpt lat="45.16806" lon="0.28451">
        <ele>115</ele>
        <time>2016-05-17T13:44:33Z</time>
      </trkpt>
      <trkpt lat="45.16802" lon="0.28456">
        <ele>116</ele>
        <time>2016-05-17T13:44:38Z</time>
      </trkpt>
      <trkpt lat="45.16799" lon="0.2846">
        <ele>117</ele>
        <time>2016-05-17T13:44:42Z</time>
      </trkpt>
      <trkpt lat="45.16796" lon="0.28467">
        <ele>118</ele>
        <time>2016-05-17T13:44:46Z</time>
      </trkpt>
      <trkpt lat="45.16793" lon="0.28473">
        <ele>118</ele>
        <time>2016-05-17T13:44:51Z</time>
      </trkpt>
      <trkpt lat="45.1679" lon="0.28476">
        <ele>119</ele>
        <time>2016-05-17T13:44:55Z</time>
      </trkpt>
      <trkpt lat="45.16786" lon="0.28477">
        <ele>120</ele>
        <time>2016-05-17T13:45:00Z</time>
      </trkpt>
      <trkpt lat="45.16781" lon="0.28479">
        <ele>122</ele>
        <time>2016-05-17T13:45:05Z</time>
      </trkpt>
      <trkpt lat="45.16778" lon="0.28486">
        <ele>123</ele>
        <time>2016-05-17T13:45:09Z</time>
      </trkpt>
      <trkpt lat="45.16775" lon="0.2849">
        <ele>123</ele>
        <time>2016-05-17T13:45:13Z</time>
      </trkpt>
      <trkpt lat="45.16772" lon="0.28494">
        <ele>124</ele>
        <time>2016-05-17T13:45:17Z</time>
      </trkpt>
      <trkpt lat="45.16768" lon="0.28499">
        <ele>126</ele>
        <time>2016-05-17T13:45:22Z</time>
      </trkpt>
      <trkpt lat="45.16765" lon="0.28501">
        <ele>130</ele>
        <time>2016-05-17T13:45:27Z</time>
      </trkpt>
      <trkpt lat="45.16759" lon="0.28508">
        <ele>127</ele>
        <time>2016-05-17T13:45:31Z</time>
      </trkpt>
      <trkpt lat="45.16755" lon="0.28512">
        <ele>127</ele>
        <time>2016-05-17T13:45:36Z</time>
      </trkpt>
      <trkpt lat="45.16752" lon="0.28516">
        <ele>131</ele>
        <time>2016-05-17T13:45:41Z</time>
      </trkpt>
      <trkpt lat="45.16749" lon="0.28518">
        <ele>132</ele>
        <time>2016-05-17T13:45:45Z</time>
      </trkpt>
      <trkpt lat="45.16745" lon="0.28522">
        <ele>131</ele>
        <time>2016-05-17T13:45:50Z</time>
      </trkpt>
      <trkpt lat="45.16741" lon="0.28525">
        <ele>131</ele>
        <time>2016-05-17T13:45:54Z</time>
      </trkpt>
      <trkpt lat="45.16736" lon="0.2853">
        <ele>129</ele>
        <time>2016-05-17T13:45:59Z</time>
      </trkpt>
      <trkpt lat="45.16731" lon="0.28535">
        <ele>128</ele>
        <time>2016-05-17T13:46:03Z</time>
      </trkpt>
      <trkpt lat="45.16727" lon="0.28536">
        <ele>128</ele>
        <time>2016-05-17T13:46:08Z</time>
      </trkpt>
      <trkpt lat="45.16724" lon="0.28542">
        <ele>127</ele>
        <time>2016-05-17T13:46:12Z</time>
      </trkpt>
      <trkpt lat="45.16718" lon="0.28546">
        <ele>124</ele>
        <time>2016-05-17T13:46:16Z</time>
      </trkpt>
      <trkpt lat="45.16713" lon="0.28549">
        <ele>123</ele>
        <time>2016-05-17T13:46:20Z</time>
      </trkpt>
      <trkpt lat="45.16709" lon="0.28553">
        <ele>124</ele>
        <time>2016-05-17T13:46:24Z</time>
      </trkpt>
      <trkpt lat="45.16706" lon="0.2856">
        <ele>123</ele>
        <time>2016-05-17T13:46:29Z</time>
      </trkpt>
      <trkpt lat="45.16701" lon="0.2856">
        <ele>127</ele>
        <time>2016-05-17T13:46:34Z</time>
      </trkpt>
      <trkpt lat="45.16693" lon="0.28565">
        <ele>121</ele>
        <time>2016-05-17T13:46:39Z</time>
      </trkpt>
      <trkpt lat="45.16688" lon="0.28567">
        <ele>121</ele>
        <time>2016-05-17T13:46:43Z</time>
      </trkpt>
      <trkpt lat="45.16682" lon="0.28566">
        <ele>123</ele>
        <time>2016-05-17T13:46:48Z</time>
      </trkpt>
      <trkpt lat="45.16676" lon="0.28569">
        <ele>124</ele>
        <time>2016-05-17T13:46:52Z</time>
      </trkpt>
      <trkpt lat="45.1667" lon="0.28572">
        <ele>126</ele>
        <time>2016-05-17T13:46:57Z</time>
      </trkpt>
      <trkpt lat="45.16666" lon="0.28573">
        <ele>126</ele>
        <time>2016-05-17T13:47:01Z</time>
      </trkpt>
      <trkpt lat="45.16662" lon="0.28576">
        <ele>129</ele>
        <time>2016-05-17T13:47:05Z</time>
      </trkpt>
      <trkpt lat="45.16658" lon="0.28581">
        <ele>131</ele>
        <time>2016-05-17T13:47:11Z</time>
      </trkpt>
      <trkpt lat="45.16654" lon="0.2858">
        <ele>133</ele>
        <time>2016-05-17T13:47:16Z</time>
      </trkpt>
      <trkpt lat="45.1665" lon="0.28586">
        <ele>132</ele>
        <time>2016-05-17T13:47:21Z</time>
      </trkpt>
      <trkpt lat="45.16647" lon="0.2859">
        <ele>132</ele>
        <time>2016-05-17T13:47:25Z</time>
      </trkpt>
      <trkpt lat="45.16643" lon="0.28592">
        <ele>135</ele>
        <time>2016-05-17T13:47:30Z</time>
      </trkpt>
      <trkpt lat="45.16638" lon="0.286">
        <ele>129</ele>
        <time>2016-05-17T13:47:35Z</time>
      </trkpt>
      <trkpt lat="45.16634" lon="0.28601">
        <ele>129</ele>
        <time>2016-05-17T13:47:39Z</time>
      </trkpt>
      <trkpt lat="45.16629" lon="0.28603">
        <ele>129</ele>
        <time>2016-05-17T13:47:44Z</time>
      </trkpt>
      <trkpt lat="45.16623" lon="0.2861">
        <ele>131</ele>
        <time>2016-05-17T13:47:49Z</time>
      </trkpt>
      <trkpt lat="45.1662" lon="0.28612">
        <ele>130</ele>
        <time>2016-05-17T13:47:53Z</time>
      </trkpt>
      <trkpt lat="45.16615" lon="0.28617">
        <ele>130</ele>
        <time>2016-05-17T13:47:57Z</time>
      </trkpt>
      <trkpt lat="45.16611" lon="0.28619">
        <ele>132</ele>
        <time>2016-05-17T13:48:01Z</time>
      </trkpt>
      <trkpt lat="45.16606" lon="0.28626">
        <ele>133</ele>
        <time>2016-05-17T13:48:06Z</time>
      </trkpt>
      <trkpt lat="45.16601" lon="0.28629">
        <ele>133</ele>
        <time>2016-05-17T13:48:11Z</time>
      </trkpt>
      <trkpt lat="45.16596" lon="0.28632">
        <ele>134</ele>
        <time>2016-05-17T13:48:15Z</time>
      </trkpt>
      <trkpt lat="45.16593" lon="0.28635">
        <ele>132</ele>
        <time>2016-05-17T13:48:20Z</time>
      </trkpt>
      <trkpt lat="45.16589" lon="0.28637">
        <ele>132</ele>
        <time>2016-05-17T13:48:24Z</time>
      </trkpt>
      <trkpt lat="45.16586" lon="0.28637">
        <ele>131</ele>
        <time>2016-05-17T13:48:28Z</time>
      </trkpt>
      <trkpt lat="45.16582" lon="0.28643">
        <ele>126</ele>
        <time>2016-05-17T13:48:33Z</time>
      </trkpt>
      <trkpt lat="45.16577" lon="0.28642">
        <ele>125</ele>
        <time>2016-05-17T13:48:38Z</time>
      </trkpt>
      <trkpt lat="45.16573" lon="0.28644">
        <ele>123</ele>
        <time>2016-05-17T13:48:46Z</time>
      </trkpt>
      <trkpt lat="45.16569" lon="0.28644">
        <ele>124</ele>
        <time>2016-05-17T13:50:13Z</time>
      </trkpt>
      <trkpt lat="45.16567" lon="0.28639">
        <ele>124</ele>
        <time>2016-05-17T13:50:38Z</time>
      </trkpt>
      <trkpt lat="45.16563" lon="0.28641">
        <ele>116</ele>
        <time>2016-05-17T13:51:08Z</time>
      </trkpt>
      <trkpt lat="45.1656" lon="0.28637">
        <ele>118</ele>
        <time>2016-05-17T13:51:52Z</time>
      </trkpt>
      <trkpt lat="45.16556" lon="0.28638">
        <ele>118</ele>
        <time>2016-05-17T13:52:47Z</time>
      </trkpt>
      <trkpt lat="45.16552" lon="0.28642">
        <ele>120</ele>
        <time>2016-05-17T13:53:57Z</time>
      </trkpt>
      <trkpt lat="45.16549" lon="0.28643">
        <ele>118</ele>
        <time>2016-05-17T13:54:28Z</time>
      </trkpt>
      <trkpt lat="45.16544" lon="0.28646">
        <ele>118</ele>
        <time>2016-05-17T13:54:32Z</time>
      </trkpt>
      <trkpt lat="45.16541" lon="0.28648">
        <ele>120</ele>
        <time>2016-05-17T13:54:37Z</time>
      </trkpt>
      <trkpt lat="45.16537" lon="0.28652">
        <ele>120</ele>
        <time>2016-05-17T13:54:41Z</time>
      </trkpt>
      <trkpt lat="45.16535" lon="0.28657">
        <ele>120</ele>
        <time>2016-05-17T13:54:45Z</time>
      </trkpt>
      <trkpt lat="45.16531" lon="0.28661">
        <ele>120</ele>
        <time>2016-05-17T13:54:50Z</time>
      </trkpt>
      <trkpt lat="45.16529" lon="0.28669">
        <ele>118</ele>
        <time>2016-05-17T13:54:55Z</time>
      </trkpt>
      <trkpt lat="45.16526" lon="0.28673">
        <ele>120</ele>
        <time>2016-05-17T13:55:01Z</time>
      </trkpt>
      <trkpt lat="45.16521" lon="0.28674">
        <ele>121</ele>
        <time>2016-05-17T13:55:06Z</time>
      </trkpt>
      <trkpt lat="45.16519" lon="0.28679">
        <ele>120</ele>
        <time>2016-05-17T13:55:11Z</time>
      </trkpt>
      <trkpt lat="45.16517" lon="0.28686">
        <ele>117</ele>
        <time>2016-05-17T13:55:15Z</time>
      </trkpt>
      <trkpt lat="45.16513" lon="0.28687">
        <ele>116</ele>
        <time>2016-05-17T13:55:19Z</time>
      </trkpt>
      <trkpt lat="45.16509" lon="0.28685">
        <ele>120</ele>
        <time>2016-05-17T13:55:25Z</time>
      </trkpt>
      <trkpt lat="45.16503" lon="0.28682">
        <ele>121</ele>
        <time>2016-05-17T13:55:30Z</time>
      </trkpt>
      <trkpt lat="45.16501" lon="0.28681">
        <ele>123</ele>
        <time>2016-05-17T13:55:34Z</time>
      </trkpt>
      <trkpt lat="45.16497" lon="0.2868">
        <ele>121</ele>
        <time>2016-05-17T13:55:38Z</time>
      </trkpt>
      <trkpt lat="45.1649" lon="0.28679">
        <ele>118</ele>
        <time>2016-05-17T13:55:43Z</time>
      </trkpt>
      <trkpt lat="45.16486" lon="0.28678">
        <ele>118</ele>
        <time>2016-05-17T13:55:47Z</time>
      </trkpt>
      <trkpt lat="45.16483" lon="0.28673">
        <ele>121</ele>
        <time>2016-05-17T13:55:51Z</time>
      </trkpt>
      <trkpt lat="45.16477" lon="0.28673">
        <ele>122</ele>
        <time>2016-05-17T13:55:55Z</time>
      </trkpt>
      <trkpt lat="45.16471" lon="0.28673">
        <ele>121</ele>
        <time>2016-05-17T13:55:59Z</time>
      </trkpt>
      <trkpt lat="45.16465" lon="0.28671">
        <ele>120</ele>
        <time>2016-05-17T13:56:04Z</time>
      </trkpt>
      <trkpt lat="45.16461" lon="0.2867">
        <ele>119</ele>
        <time>2016-05-17T13:56:08Z</time>
      </trkpt>
      <trkpt lat="45.16457" lon="0.28669">
        <ele>119</ele>
        <time>2016-05-17T13:56:15Z</time>
      </trkpt>
      <trkpt lat="45.1645" lon="0.28667">
        <ele>119</ele>
        <time>2016-05-17T13:56:20Z</time>
      </trkpt>
      <trkpt lat="45.16446" lon="0.28666">
        <ele>118</ele>
        <time>2016-05-17T13:56:25Z</time>
      </trkpt>
      <trkpt lat="45.1644" lon="0.28663">
        <ele>118</ele>
        <time>2016-05-17T13:56:30Z</time>
      </trkpt>
      <trkpt lat="45.16434" lon="0.2866">
        <ele>118</ele>
        <time>2016-05-17T13:56:35Z</time>
      </trkpt>
      <trkpt lat="45.1643" lon="0.2866">
        <ele>119</ele>
        <time>2016-05-17T13:56:40Z</time>
      </trkpt>
      <trkpt lat="45.16424" lon="0.28657">
        <ele>118</ele>
        <time>2016-05-17T13:56:45Z</time>
      </trkpt>
      <trkpt lat="45.1642" lon="0.28654">
        <ele>119</ele>
        <time>2016-05-17T13:56:49Z</time>
      </trkpt>
      <trkpt lat="45.16416" lon="0.28651">
        <ele>123</ele>
        <time>2016-05-17T13:56:54Z</time>
      </trkpt>
      <trkpt lat="45.16412" lon="0.28649">
        <ele>124</ele>
        <time>2016-05-17T13:56:58Z</time>
      </trkpt>
      <trkpt lat="45.16405" lon="0.28653">
        <ele>117</ele>
        <time>2016-05-17T13:57:03Z</time>
      </trkpt>
      <trkpt lat="45.164" lon="0.28652">
        <ele>115</ele>
        <time>2016-05-17T13:57:07Z</time>
      </trkpt>
      <trkpt lat="45.16396" lon="0.28652">
        <ele>112</ele>
        <time>2016-05-17T13:57:11Z</time>
      </trkpt>
      <trkpt lat="45.16391" lon="0.28647">
        <ele>115</ele>
        <time>2016-05-17T13:57:16Z</time>
      </trkpt>
      <trkpt lat="45.16386" lon="0.28646">
        <ele>114</ele>
        <time>2016-05-17T13:57:20Z</time>
      </trkpt>
      <trkpt lat="45.16381" lon="0.28643">
        <ele>115</ele>
        <time>2016-05-17T13:57:24Z</time>
      </trkpt>
      <trkpt lat="45.16377" lon="0.28642">
        <ele>114</ele>
        <time>2016-05-17T13:57:28Z</time>
      </trkpt>
      <trkpt lat="45.16371" lon="0.28641">
        <ele>116</ele>
        <time>2016-05-17T13:57:33Z</time>
      </trkpt>
      <trkpt lat="45.16366" lon="0.28641">
        <ele>117</ele>
        <time>2016-05-17T13:57:38Z</time>
      </trkpt>
      <trkpt lat="45.16363" lon="0.28637">
        <ele>117</ele>
        <time>2016-05-17T13:57:43Z</time>
      </trkpt>
      <trkpt lat="45.16358" lon="0.28639">
        <ele>114</ele>
        <time>2016-05-17T13:57:47Z</time>
      </trkpt>
      <trkpt lat="45.16354" lon="0.28634">
        <ele>115</ele>
        <time>2016-05-17T13:57:52Z</time>
      </trkpt>
      <trkpt lat="45.1635" lon="0.28629">
        <ele>117</ele>
        <time>2016-05-17T13:57:56Z</time>
      </trkpt>
      <trkpt lat="45.16346" lon="0.2863">
        <ele>115</ele>
        <time>2016-05-17T13:58:01Z</time>
      </trkpt>
      <trkpt lat="45.16342" lon="0.28627">
        <ele>117</ele>
        <time>2016-05-17T13:58:05Z</time>
      </trkpt>
      <trkpt lat="45.16337" lon="0.28628">
        <ele>115</ele>
        <time>2016-05-17T13:58:10Z</time>
      </trkpt>
      <trkpt lat="45.16332" lon="0.28624">
        <ele>118</ele>
        <time>2016-05-17T13:58:14Z</time>
      </trkpt>
      <trkpt lat="45.16328" lon="0.28624">
        <ele>116</ele>
        <time>2016-05-17T13:58:18Z</time>
      </trkpt>
      <trkpt lat="45.16324" lon="0.28624">
        <ele>116</ele>
        <time>2016-05-17T13:58:22Z</time>
      </trkpt>
      <trkpt lat="45.16319" lon="0.28625">
        <ele>116</ele>
        <time>2016-05-17T13:58:27Z</time>
      </trkpt>
      <trkpt lat="45.16315" lon="0.28622">
        <ele>117</ele>
        <time>2016-05-17T13:58:31Z</time>
      </trkpt>
      <trkpt lat="45.16312" lon="0.2862">
        <ele>117</ele>
        <time>2016-05-17T13:58:36Z</time>
      </trkpt>
      <trkpt lat="45.16304" lon="0.2862">
        <ele>115</ele>
        <time>2016-05-17T13:58:41Z</time>
      </trkpt>
      <trkpt lat="45.163" lon="0.28617">
        <ele>117</ele>
        <time>2016-05-17T13:58:46Z</time>
      </trkpt>
      <trkpt lat="45.16295" lon="0.28616">
        <ele>115</ele>
        <time>2016-05-17T13:58:51Z</time>
      </trkpt>
      <trkpt lat="45.1629" lon="0.28614">
        <ele>115</ele>
        <time>2016-05-17T13:58:55Z</time>
      </trkpt>
      <trkpt lat="45.16285" lon="0.28613">
        <ele>115</ele>
        <time>2016-05-17T13:58:59Z</time>
      </trkpt>
      <trkpt lat="45.16278" lon="0.28612">
        <ele>117</ele>
        <time>2016-05-17T13:59:04Z</time>
      </trkpt>
      <trkpt lat="45.16271" lon="0.28612">
        <ele>114</ele>
        <time>2016-05-17T13:59:09Z</time>
      </trkpt>
      <trkpt lat="45.16267" lon="0.2861">
        <ele>115</ele>
        <time>2016-05-17T13:59:13Z</time>
      </trkpt>
      <trkpt lat="45.1626" lon="0.28607">
        <ele>114</ele>
        <time>2016-05-17T13:59:18Z</time>
      </trkpt>
      <trkpt lat="45.16255" lon="0.2861">
        <ele>113</ele>
        <time>2016-05-17T13:59:22Z</time>
      </trkpt>
      <trkpt lat="45.1625" lon="0.28607">
        <ele>111</ele>
        <time>2016-05-17T13:59:27Z</time>
      </trkpt>
      <trkpt lat="45.16245" lon="0.28606">
        <ele>110</ele>
        <time>2016-05-17T13:59:32Z</time>
      </trkpt>
      <trkpt lat="45.1624" lon="0.28603">
        <ele>112</ele>
        <time>2016-05-17T13:59:36Z</time>
      </trkpt>
      <trkpt lat="45.16236" lon="0.286">
        <ele>113</ele>
        <time>2016-05-17T13:59:41Z</time>
      </trkpt>
      <trkpt lat="45.16231" lon="0.28597">
        <ele>116</ele>
        <time>2016-05-17T13:59:46Z</time>
      </trkpt>
      <trkpt lat="45.16226" lon="0.28594">
        <ele>117</ele>
        <time>2016-05-17T13:59:50Z</time>
      </trkpt>
      <trkpt lat="45.1622" lon="0.2859">
        <ele>119</ele>
        <time>2016-05-17T13:59:55Z</time>
      </trkpt>
      <trkpt lat="45.16215" lon="0.28589">
        <ele>118</ele>
        <time>2016-05-17T14:00:00Z</time>
      </trkpt>
      <trkpt lat="45.1621" lon="0.28588">
        <ele>116</ele>
        <time>2016-05-17T14:00:04Z</time>
      </trkpt>
      <trkpt lat="45.16206" lon="0.28585">
        <ele>117</ele>
        <time>2016-05-17T14:00:09Z</time>
      </trkpt>
      <trkpt lat="45.16201" lon="0.28584">
        <ele>118</ele>
        <time>2016-05-17T14:00:13Z</time>
      </trkpt>
      <trkpt lat="45.16195" lon="0.28585">
        <ele>117</ele>
        <time>2016-05-17T14:00:18Z</time>
      </trkpt>
      <trkpt lat="45.16192" lon="0.28586">
        <ele>117</ele>
        <time>2016-05-17T14:00:22Z</time>
      </trkpt>
      <trkpt lat="45.16186" lon="0.28586">
        <ele>113</ele>
        <time>2016-05-17T14:00:26Z</time>
      </trkpt>
      <trkpt lat="45.16181" lon="0.28581">
        <ele>114</ele>
        <time>2016-05-17T14:00:31Z</time>
      </trkpt>
      <trkpt lat="45.16176" lon="0.28583">
        <ele>112</ele>
        <time>2016-05-17T14:00:35Z</time>
      </trkpt>
      <trkpt lat="45.16173" lon="0.28579">
        <ele>114</ele>
        <time>2016-05-17T14:00:39Z</time>
      </trkpt>
      <trkpt lat="45.16168" lon="0.28578">
        <ele>116</ele>
        <time>2016-05-17T14:00:44Z</time>
      </trkpt>
      <trkpt lat="45.16162" lon="0.28572">
        <ele>117</ele>
        <time>2016-05-17T14:00:49Z</time>
      </trkpt>
      <trkpt lat="45.16158" lon="0.28571">
        <ele>116</ele>
        <time>2016-05-17T14:00:53Z</time>
      </trkpt>
      <trkpt lat="45.16152" lon="0.28574">
        <ele>110</ele>
        <time>2016-05-17T14:00:58Z</time>
      </trkpt>
      <trkpt lat="45.16148" lon="0.28572">
        <ele>110</ele>
        <time>2016-05-17T14:01:03Z</time>
      </trkpt>
      <trkpt lat="45.16141" lon="0.2857">
        <ele>110</ele>
        <time>2016-05-17T14:01:08Z</time>
      </trkpt>
      <trkpt lat="45.16136" lon="0.28568">
        <ele>109</ele>
        <time>2016-05-17T14:01:12Z</time>
      </trkpt>
      <trkpt lat="45.16131" lon="0.28565">
        <ele>107</ele>
        <time>2016-05-17T14:01:17Z</time>
      </trkpt>
      <trkpt lat="45.16127" lon="0.28563">
        <ele>107</ele>
        <time>2016-05-17T14:01:21Z</time>
      </trkpt>
      <trkpt lat="45.1612" lon="0.28561">
        <ele>107</ele>
        <time>2016-05-17T14:01:26Z</time>
      </trkpt>
      <trkpt lat="45.16116" lon="0.28559">
        <ele>108</ele>
        <time>2016-05-17T14:01:30Z</time>
      </trkpt>
      <trkpt lat="45.1611" lon="0.28558">
        <ele>105</ele>
        <time>2016-05-17T14:01:35Z</time>
      </trkpt>
      <trkpt lat="45.16105" lon="0.28558">
        <ele>104</ele>
        <time>2016-05-17T14:01:40Z</time>
      </trkpt>
      <trkpt lat="45.16101" lon="0.28556">
        <ele>103</ele>
        <time>2016-05-17T14:01:44Z</time>
      </trkpt>
      <trkpt lat="45.16094" lon="0.2856">
        <ele>98</ele>
        <time>2016-05-17T14:01:49Z</time>
      </trkpt>
      <trkpt lat="45.16091" lon="0.28559">
        <ele>97</ele>
        <time>2016-05-17T14:01:53Z</time>
      </trkpt>
      <trkpt lat="45.16086" lon="0.28555">
        <ele>98</ele>
        <time>2016-05-17T14:01:57Z</time>
      </trkpt>
      <trkpt lat="45.16079" lon="0.28553">
        <ele>96</ele>
        <time>2016-05-17T14:02:02Z</time>
      </trkpt>
      <trkpt lat="45.16072" lon="0.28551">
        <ele>97</ele>
        <time>2016-05-17T14:02:07Z</time>
      </trkpt>
      <trkpt lat="45.16068" lon="0.28547">
        <ele>99</ele>
        <time>2016-05-17T14:02:11Z</time>
      </trkpt>
      <trkpt lat="45.16064" lon="0.28545">
        <ele>100</ele>
        <time>2016-05-17T14:02:15Z</time>
      </trkpt>
      <trkpt lat="45.16059" lon="0.28543">
        <ele>100</ele>
        <time>2016-05-17T14:02:20Z</time>
      </trkpt>
      <trkpt lat="45.16055" lon="0.28546">
        <ele>98</ele>
        <time>2016-05-17T14:02:24Z</time>
      </trkpt>
      <trkpt lat="45.16049" lon="0.28544">
        <ele>97</ele>
        <time>2016-05-17T14:02:28Z</time>
      </trkpt>
      <trkpt lat="45.16044" lon="0.28543">
        <ele>97</ele>
        <time>2016-05-17T14:02:33Z</time>
      </trkpt>
      <trkpt lat="45.16041" lon="0.28544">
        <ele>96</ele>
        <time>2016-05-17T14:02:38Z</time>
      </trkpt>
      <trkpt lat="45.16036" lon="0.28541">
        <ele>104</ele>
        <time>2016-05-17T14:02:43Z</time>
      </trkpt>
      <trkpt lat="45.1603" lon="0.28538">
        <ele>106</ele>
        <time>2016-05-17T14:02:48Z</time>
      </trkpt>
      <trkpt lat="45.16026" lon="0.28537">
        <ele>106</ele>
        <time>2016-05-17T14:02:52Z</time>
      </trkpt>
      <trkpt lat="45.16022" lon="0.28536">
        <ele>108</ele>
        <time>2016-05-17T14:02:59Z</time>
      </trkpt>
      <trkpt lat="45.16015" lon="0.28533">
        <ele>108</ele>
        <time>2016-05-17T14:03:04Z</time>
      </trkpt>
      <trkpt lat="45.16011" lon="0.28531">
        <ele>108</ele>
        <time>2016-05-17T14:03:08Z</time>
      </trkpt>
      <trkpt lat="45.16006" lon="0.28529">
        <ele>109</ele>
        <time>2016-05-17T14:03:12Z</time>
      </trkpt>
      <trkpt lat="45.16" lon="0.28526">
        <ele>108</ele>
        <time>2016-05-17T14:03:17Z</time>
      </trkpt>
      <trkpt lat="45.15994" lon="0.28524">
        <ele>107</ele>
        <time>2016-05-17T14:03:22Z</time>
      </trkpt>
      <trkpt lat="45.15989" lon="0.28524">
        <ele>107</ele>
        <time>2016-05-17T14:03:26Z</time>
      </trkpt>
      <trkpt lat="45.15983" lon="0.28523">
        <ele>106</ele>
        <time>2016-05-17T14:03:30Z</time>
      </trkpt>
      <trkpt lat="45.15976" lon="0.28522">
        <ele>105</ele>
        <time>2016-05-17T14:03:35Z</time>
      </trkpt>
      <trkpt lat="45.1597" lon="0.28521">
        <ele>104</ele>
        <time>2016-05-17T14:03:40Z</time>
      </trkpt>
      <trkpt lat="45.15965" lon="0.28523">
        <ele>103</ele>
        <time>2016-05-17T14:03:44Z</time>
      </trkpt>
      <trkpt lat="45.15963" lon="0.28519">
        <ele>98</ele>
        <time>2016-05-17T14:03:56Z</time>
      </trkpt>
      <trkpt lat="45.15963" lon="0.28514">
        <ele>95</ele>
        <time>2016-05-17T14:04:00Z</time>
      </trkpt>
      <trkpt lat="45.15965" lon="0.28507">
        <ele>96</ele>
        <time>2016-05-17T14:04:05Z</time>
      </trkpt>
      <trkpt lat="45.15967" lon="0.285">
        <ele>96</ele>
        <time>2016-05-17T14:04:10Z</time>
      </trkpt>
      <trkpt lat="45.15967" lon="0.28492">
        <ele>97</ele>
        <time>2016-05-17T14:04:15Z</time>
      </trkpt>
      <trkpt lat="45.1597" lon="0.28487">
        <ele>97</ele>
        <time>2016-05-17T14:04:19Z</time>
      </trkpt>
      <trkpt lat="45.15971" lon="0.28481">
        <ele>98</ele>
        <time>2016-05-17T14:04:23Z</time>
      </trkpt>
      <trkpt lat="45.15972" lon="0.28473">
        <ele>98</ele>
        <time>2016-05-17T14:04:28Z</time>
      </trkpt>
      <trkpt lat="45.15973" lon="0.28466">
        <ele>98</ele>
        <time>2016-05-17T14:04:33Z</time>
      </trkpt>
      <trkpt lat="45.15974" lon="0.28461">
        <ele>97</ele>
        <time>2016-05-17T14:04:38Z</time>
      </trkpt>
      <trkpt lat="45.15976" lon="0.28455">
        <ele>101</ele>
        <time>2016-05-17T14:04:44Z</time>
      </trkpt>
      <trkpt lat="45.15979" lon="0.28452">
        <ele>102</ele>
        <time>2016-05-17T14:04:49Z</time>
      </trkpt>
      <trkpt lat="45.15976" lon="0.28445">
        <ele>98</ele>
        <time>2016-05-17T14:04:53Z</time>
      </trkpt>
      <trkpt lat="45.15978" lon="0.2844">
        <ele>102</ele>
        <time>2016-05-17T14:05:13Z</time>
      </trkpt>
      <trkpt lat="45.15976" lon="0.28435">
        <ele>98</ele>
        <time>2016-05-17T14:05:23Z</time>
      </trkpt>
      <trkpt lat="45.15972" lon="0.28432">
        <ele>94</ele>
        <time>2016-05-17T14:05:37Z</time>
      </trkpt>
      <trkpt lat="45.15969" lon="0.28428">
        <ele>95</ele>
        <time>2016-05-17T14:05:46Z</time>
      </trkpt>
      <trkpt lat="45.15966" lon="0.28422">
        <ele>100</ele>
        <time>2016-05-17T14:05:51Z</time>
      </trkpt>
      <trkpt lat="45.15962" lon="0.2842">
        <ele>98</ele>
        <time>2016-05-17T14:05:56Z</time>
      </trkpt>
      <trkpt lat="45.15959" lon="0.28417">
        <ele>98</ele>
        <time>2016-05-17T14:06:02Z</time>
      </trkpt>
      <trkpt lat="45.15953" lon="0.28415">
        <ele>94</ele>
        <time>2016-05-17T14:06:06Z</time>
      </trkpt>
      <trkpt lat="45.1595" lon="0.28411">
        <ele>94</ele>
        <time>2016-05-17T14:06:12Z</time>
      </trkpt>
      <trkpt lat="45.15946" lon="0.2841">
        <ele>93</ele>
        <time>2016-05-17T14:06:18Z</time>
      </trkpt>
      <trkpt lat="45.15941" lon="0.28408">
        <ele>92</ele>
        <time>2016-05-17T14:06:26Z</time>
      </trkpt>
      <trkpt lat="45.15938" lon="0.28411">
        <ele>92</ele>
        <time>2016-05-17T14:06:46Z</time>
      </trkpt>
      <trkpt lat="45.15933" lon="0.2841">
        <ele>90</ele>
        <time>2016-05-17T14:06:57Z</time>
      </trkpt>
      <trkpt lat="45.15928" lon="0.28408">
        <ele>90</ele>
        <time>2016-05-17T14:07:02Z</time>
      </trkpt>
      <trkpt lat="45.15925" lon="0.28406">
        <ele>88</ele>
        <time>2016-05-17T14:07:06Z</time>
      </trkpt>
      <trkpt lat="45.15919" lon="0.28402">
        <ele>88</ele>
        <time>2016-05-17T14:07:11Z</time>
      </trkpt>
      <trkpt lat="45.15916" lon="0.28399">
        <ele>87</ele>
        <time>2016-05-17T14:07:15Z</time>
      </trkpt>
      <trkpt lat="45.15911" lon="0.28398">
        <ele>88</ele>
        <time>2016-05-17T14:07:20Z</time>
      </trkpt>
      <trkpt lat="45.15907" lon="0.28393">
        <ele>92</ele>
        <time>2016-05-17T14:07:24Z</time>
      </trkpt>
      <trkpt lat="45.15903" lon="0.28392">
        <ele>90</ele>
        <time>2016-05-17T14:07:28Z</time>
      </trkpt>
      <trkpt lat="45.159" lon="0.2839">
        <ele>92</ele>
        <time>2016-05-17T14:07:32Z</time>
      </trkpt>
      <trkpt lat="45.15895" lon="0.28391">
        <ele>94</ele>
        <time>2016-05-17T14:07:44Z</time>
      </trkpt>
      <trkpt lat="45.15892" lon="0.28392">
        <ele>96</ele>
        <time>2016-05-17T14:07:49Z</time>
      </trkpt>
      <trkpt lat="45.15881" lon="0.28388">
        <ele>94</ele>
        <time>2016-05-17T14:07:53Z</time>
      </trkpt>
      <trkpt lat="45.15879" lon="0.28383">
        <ele>100</ele>
        <time>2016-05-17T14:08:00Z</time>
      </trkpt>
      <trkpt lat="45.15876" lon="0.28379">
        <ele>99</ele>
        <time>2016-05-17T14:08:04Z</time>
      </trkpt>
      <trkpt lat="45.15874" lon="0.28373">
        <ele>100</ele>
        <time>2016-05-17T14:08:12Z</time>
      </trkpt>
      <trkpt lat="45.15875" lon="0.28367">
        <ele>103</ele>
        <time>2016-05-17T14:08:18Z</time>
      </trkpt>
      <trkpt lat="45.15874" lon="0.28361">
        <ele>101</ele>
        <time>2016-05-17T14:08:22Z</time>
      </trkpt>
      <trkpt lat="45.15876" lon="0.28357">
        <ele>106</ele>
        <time>2016-05-17T14:08:30Z</time>
      </trkpt>
      <trkpt lat="45.15877" lon="0.28352">
        <ele>107</ele>
        <time>2016-05-17T14:08:35Z</time>
      </trkpt>
      <trkpt lat="45.15876" lon="0.28345">
        <ele>108</ele>
        <time>2016-05-17T14:08:40Z</time>
      </trkpt>
      <trkpt lat="45.15876" lon="0.28338">
        <ele>107</ele>
        <time>2016-05-17T14:08:44Z</time>
      </trkpt>
      <trkpt lat="45.15876" lon="0.28336">
        <ele>111</ele>
        <time>2016-05-17T14:08:49Z</time>
      </trkpt>
      <trkpt lat="45.15874" lon="0.28311">
        <ele>94</ele>
        <time>2016-05-17T14:08:54Z</time>
      </trkpt>
      <trkpt lat="45.15875" lon="0.28306">
        <ele>95</ele>
        <time>2016-05-17T14:08:59Z</time>
      </trkpt>
      <trkpt lat="45.15877" lon="0.283">
        <ele>94</ele>
        <time>2016-05-17T14:09:03Z</time>
      </trkpt>
      <trkpt lat="45.15877" lon="0.28287">
        <ele>90</ele>
        <time>2016-05-17T14:09:07Z</time>
      </trkpt>
      <trkpt lat="45.15878" lon="0.28279">
        <ele>91</ele>
        <time>2016-05-17T14:09:12Z</time>
      </trkpt>
      <trkpt lat="45.1588" lon="0.28275">
        <ele>93</ele>
        <time>2016-05-17T14:09:16Z</time>
      </trkpt>
      <trkpt lat="45.15876" lon="0.28265">
        <ele>92</ele>
        <time>2016-05-17T14:09:21Z</time>
      </trkpt>
      <trkpt lat="45.15876" lon="0.28259">
        <ele>94</ele>
        <time>2016-05-17T14:09:25Z</time>
      </trkpt>
      <trkpt lat="45.15876" lon="0.28254">
        <ele>98</ele>
        <time>2016-05-17T14:09:29Z</time>
      </trkpt>
      <trkpt lat="45.15878" lon="0.28248">
        <ele>99</ele>
        <time>2016-05-17T14:09:33Z</time>
      </trkpt>
      <trkpt lat="45.15879" lon="0.28238">
        <ele>99</ele>
        <time>2016-05-17T14:09:38Z</time>
      </trkpt>
      <trkpt lat="45.15879" lon="0.28232">
        <ele>99</ele>
        <time>2016-05-17T14:09:42Z</time>
      </trkpt>
      <trkpt lat="45.1587" lon="0.28215">
        <ele>89</ele>
        <time>2016-05-17T14:09:47Z</time>
      </trkpt>
      <trkpt lat="45.15868" lon="0.28209">
        <ele>90</ele>
        <time>2016-05-17T14:09:51Z</time>
      </trkpt>
      <trkpt lat="45.1587" lon="0.28204">
        <ele>93</ele>
        <time>2016-05-17T14:09:55Z</time>
      </trkpt>
      <trkpt lat="45.1587" lon="0.28198">
        <ele>92</ele>
        <time>2016-05-17T14:10:00Z</time>
      </trkpt>
      <trkpt lat="45.15869" lon="0.28192">
        <ele>92</ele>
        <time>2016-05-17T14:10:05Z</time>
      </trkpt>
      <trkpt lat="45.15867" lon="0.28183">
        <ele>88</ele>
        <time>2016-05-17T14:10:10Z</time>
      </trkpt>
      <trkpt lat="45.15866" lon="0.28176">
        <ele>85</ele>
        <time>2016-05-17T14:10:14Z</time>
      </trkpt>
      <trkpt lat="45.15867" lon="0.2817">
        <ele>93</ele>
        <time>2016-05-17T14:10:21Z</time>
      </trkpt>
      <trkpt lat="45.15866" lon="0.28159">
        <ele>86</ele>
        <time>2016-05-17T14:10:25Z</time>
      </trkpt>
      <trkpt lat="45.15873" lon="0.28152">
        <ele>89</ele>
        <time>2016-05-17T14:10:30Z</time>
      </trkpt>
      <trkpt lat="45.15873" lon="0.28145">
        <ele>90</ele>
        <time>2016-05-17T14:10:34Z</time>
      </trkpt>
      <trkpt lat="45.15872" lon="0.28136">
        <ele>87</ele>
        <time>2016-05-17T14:10:38Z</time>
      </trkpt>
      <trkpt lat="45.15868" lon="0.28127">
        <ele>87</ele>
        <time>2016-05-17T14:10:43Z</time>
      </trkpt>
      <trkpt lat="45.15863" lon="0.28121">
        <ele>85</ele>
        <time>2016-05-17T14:10:47Z</time>
      </trkpt>
      <trkpt lat="45.15867" lon="0.28113">
        <ele>88</ele>
        <time>2016-05-17T14:10:52Z</time>
      </trkpt>
      <trkpt lat="45.15867" lon="0.28105">
        <ele>90</ele>
        <time>2016-05-17T14:10:56Z</time>
      </trkpt>
      <trkpt lat="45.15869" lon="0.281">
        <ele>91</ele>
        <time>2016-05-17T14:11:00Z</time>
      </trkpt>
      <trkpt lat="45.15867" lon="0.28093">
        <ele>90</ele>
        <time>2016-05-17T14:11:04Z</time>
      </trkpt>
      <trkpt lat="45.15862" lon="0.28089">
        <ele>91</ele>
        <time>2016-05-17T14:11:08Z</time>
      </trkpt>
      <trkpt lat="45.15858" lon="0.28083">
        <ele>87</ele>
        <time>2016-05-17T14:11:12Z</time>
      </trkpt>
      <trkpt lat="45.1585" lon="0.28078">
        <ele>84</ele>
        <time>2016-05-17T14:11:17Z</time>
      </trkpt>
      <trkpt lat="45.15847" lon="0.28073">
        <ele>87</ele>
        <time>2016-05-17T14:11:23Z</time>
      </trkpt>
      <trkpt lat="45.1584" lon="0.2807">
        <ele>87</ele>
        <time>2016-05-17T14:11:27Z</time>
      </trkpt>
      <trkpt lat="45.15836" lon="0.28064">
        <ele>84</ele>
        <time>2016-05-17T14:11:32Z</time>
      </trkpt>
      <trkpt lat="45.15832" lon="0.28061">
        <ele>83</ele>
        <time>2016-05-17T14:11:36Z</time>
      </trkpt>
      <trkpt lat="45.15828" lon="0.28056">
        <ele>82</ele>
        <time>2016-05-17T14:11:40Z</time>
      </trkpt>
      <trkpt lat="45.15824" lon="0.2805">
        <ele>84</ele>
        <time>2016-05-17T14:11:45Z</time>
      </trkpt>
      <trkpt lat="45.15821" lon="0.28044">
        <ele>85</ele>
        <time>2016-05-17T14:11:49Z</time>
      </trkpt>
      <trkpt lat="45.15814" lon="0.28043">
        <ele>83</ele>
        <time>2016-05-17T14:11:54Z</time>
      </trkpt>
      <trkpt lat="45.1581" lon="0.28042">
        <ele>83</ele>
        <time>2016-05-17T14:11:58Z</time>
      </trkpt>
      <trkpt lat="45.15807" lon="0.2804">
        <ele>84</ele>
        <time>2016-05-17T14:12:02Z</time>
      </trkpt>
      <trkpt lat="45.15804" lon="0.28037">
        <ele>85</ele>
        <time>2016-05-17T14:12:06Z</time>
      </trkpt>
      <trkpt lat="45.15799" lon="0.28034">
        <ele>84</ele>
        <time>2016-05-17T14:12:10Z</time>
      </trkpt>
      <trkpt lat="45.1579" lon="0.28035">
        <ele>84</ele>
        <time>2016-05-17T14:12:15Z</time>
      </trkpt>
      <trkpt lat="45.15785" lon="0.28035">
        <ele>85</ele>
        <time>2016-05-17T14:12:19Z</time>
      </trkpt>
      <trkpt lat="45.1578" lon="0.28036">
        <ele>84</ele>
        <time>2016-05-17T14:12:23Z</time>
      </trkpt>
      <trkpt lat="45.15774" lon="0.28038">
        <ele>84</ele>
        <time>2016-05-17T14:12:28Z</time>
      </trkpt>
      <trkpt lat="45.15769" lon="0.28039">
        <ele>85</ele>
        <time>2016-05-17T14:12:33Z</time>
      </trkpt>
      <trkpt lat="45.15766" lon="0.2804">
        <ele>84</ele>
        <time>2016-05-17T14:12:37Z</time>
      </trkpt>
      <trkpt lat="45.15761" lon="0.28037">
        <ele>83</ele>
        <time>2016-05-17T14:12:41Z</time>
      </trkpt>
      <trkpt lat="45.15756" lon="0.28039">
        <ele>84</ele>
        <time>2016-05-17T14:12:46Z</time>
      </trkpt>
      <trkpt lat="45.15751" lon="0.2804">
        <ele>84</ele>
        <time>2016-05-17T14:12:51Z</time>
      </trkpt>
      <trkpt lat="45.15747" lon="0.2804">
        <ele>86</ele>
        <time>2016-05-17T14:12:55Z</time>
      </trkpt>
      <trkpt lat="45.1574" lon="0.2804">
        <ele>85</ele>
        <time>2016-05-17T14:13:00Z</time>
      </trkpt>
      <trkpt lat="45.15736" lon="0.28037">
        <ele>85</ele>
        <time>2016-05-17T14:13:04Z</time>
      </trkpt>
      <trkpt lat="45.15732" lon="0.28037">
        <ele>86</ele>
        <time>2016-05-17T14:13:09Z</time>
      </trkpt>
      <trkpt lat="45.15728" lon="0.28034">
        <ele>87</ele>
        <time>2016-05-17T14:13:14Z</time>
      </trkpt>
      <trkpt lat="45.15724" lon="0.28034">
        <ele>88</ele>
        <time>2016-05-17T14:13:19Z</time>
      </trkpt>
      <trkpt lat="45.15719" lon="0.28034">
        <ele>87</ele>
        <time>2016-05-17T14:13:23Z</time>
      </trkpt>
      <trkpt lat="45.15715" lon="0.28031">
        <ele>88</ele>
        <time>2016-05-17T14:13:29Z</time>
      </trkpt>
      <trkpt lat="45.15709" lon="0.28027">
        <ele>90</ele>
        <time>2016-05-17T14:13:33Z</time>
      </trkpt>
      <trkpt lat="45.15703" lon="0.28028">
        <ele>93</ele>
        <time>2016-05-17T14:13:37Z</time>
      </trkpt>
      <trkpt lat="45.15698" lon="0.2803">
        <ele>91</ele>
        <time>2016-05-17T14:13:41Z</time>
      </trkpt>
      <trkpt lat="45.15694" lon="0.28028">
        <ele>90</ele>
        <time>2016-05-17T14:13:46Z</time>
      </trkpt>
      <trkpt lat="45.15691" lon="0.28023">
        <ele>91</ele>
        <time>2016-05-17T14:13:51Z</time>
      </trkpt>
      <trkpt lat="45.15685" lon="0.2802">
        <ele>90</ele>
        <time>2016-05-17T14:13:56Z</time>
      </trkpt>
      <trkpt lat="45.15682" lon="0.28016">
        <ele>90</ele>
        <time>2016-05-17T14:14:01Z</time>
      </trkpt>
      <trkpt lat="45.1567" lon="0.28019">
        <ele>88</ele>
        <time>2016-05-17T14:14:06Z</time>
      </trkpt>
      <trkpt lat="45.15665" lon="0.2802">
        <ele>88</ele>
        <time>2016-05-17T14:14:10Z</time>
      </trkpt>
      <trkpt lat="45.15659" lon="0.28015">
        <ele>87</ele>
        <time>2016-05-17T14:14:15Z</time>
      </trkpt>
      <trkpt lat="45.15653" lon="0.28015">
        <ele>86</ele>
        <time>2016-05-17T14:14:20Z</time>
      </trkpt>
      <trkpt lat="45.15649" lon="0.28014">
        <ele>86</ele>
        <time>2016-05-17T14:14:26Z</time>
      </trkpt>
      <trkpt lat="45.15645" lon="0.28015">
        <ele>87</ele>
        <time>2016-05-17T14:14:30Z</time>
      </trkpt>
      <trkpt lat="45.15637" lon="0.28013">
        <ele>86</ele>
        <time>2016-05-17T14:14:35Z</time>
      </trkpt>
      <trkpt lat="45.15631" lon="0.28014">
        <ele>86</ele>
        <time>2016-05-17T14:14:39Z</time>
      </trkpt>
      <trkpt lat="45.15624" lon="0.28016">
        <ele>86</ele>
        <time>2016-05-17T14:14:44Z</time>
      </trkpt>
      <trkpt lat="45.15619" lon="0.28021">
        <ele>87</ele>
        <time>2016-05-17T14:14:48Z</time>
      </trkpt>
      <trkpt lat="45.15615" lon="0.28027">
        <ele>87</ele>
        <time>2016-05-17T14:14:53Z</time>
      </trkpt>
      <trkpt lat="45.15612" lon="0.28031">
        <ele>87</ele>
        <time>2016-05-17T14:14:57Z</time>
      </trkpt>
      <trkpt lat="45.15607" lon="0.28039">
        <ele>86</ele>
        <time>2016-05-17T14:15:02Z</time>
      </trkpt>
      <trkpt lat="45.15603" lon="0.28041">
        <ele>85</ele>
        <time>2016-05-17T14:15:07Z</time>
      </trkpt>
      <trkpt lat="45.15597" lon="0.28048">
        <ele>81</ele>
        <time>2016-05-17T14:15:11Z</time>
      </trkpt>
      <trkpt lat="45.15595" lon="0.28053">
        <ele>81</ele>
        <time>2016-05-17T14:15:16Z</time>
      </trkpt>
      <trkpt lat="45.1559" lon="0.28055">
        <ele>82</ele>
        <time>2016-05-17T14:15:21Z</time>
      </trkpt>
      <trkpt lat="45.15586" lon="0.28056">
        <ele>84</ele>
        <time>2016-05-17T14:15:26Z</time>
      </trkpt>
      <trkpt lat="45.15582" lon="0.2806">
        <ele>84</ele>
        <time>2016-05-17T14:15:31Z</time>
      </trkpt>
      <trkpt lat="45.15579" lon="0.28061">
        <ele>84</ele>
        <time>2016-05-17T14:15:35Z</time>
      </trkpt>
      <trkpt lat="45.15571" lon="0.28062">
        <ele>85</ele>
        <time>2016-05-17T14:15:40Z</time>
      </trkpt>
      <trkpt lat="45.15566" lon="0.28069">
        <ele>84</ele>
        <time>2016-05-17T14:15:44Z</time>
      </trkpt>
      <trkpt lat="45.1556" lon="0.28071">
        <ele>86</ele>
        <time>2016-05-17T14:15:49Z</time>
      </trkpt>
      <trkpt lat="45.15557" lon="0.28075">
        <ele>85</ele>
        <time>2016-05-17T14:15:53Z</time>
      </trkpt>
      <trkpt lat="45.15553" lon="0.28073">
        <ele>84</ele>
        <time>2016-05-17T14:15:58Z</time>
      </trkpt>
      <trkpt lat="45.1555" lon="0.28074">
        <ele>84</ele>
        <time>2016-05-17T14:16:02Z</time>
      </trkpt>
      <trkpt lat="45.15545" lon="0.2808">
        <ele>80</ele>
        <time>2016-05-17T14:16:07Z</time>
      </trkpt>
      <trkpt lat="45.15542" lon="0.28077">
        <ele>81</ele>
        <time>2016-05-17T14:16:11Z</time>
      </trkpt>
      <trkpt lat="45.15536" lon="0.28082">
        <ele>79</ele>
        <time>2016-05-17T14:16:15Z</time>
      </trkpt>
      <trkpt lat="45.15529" lon="0.28081">
        <ele>81</ele>
        <time>2016-05-17T14:16:20Z</time>
      </trkpt>
      <trkpt lat="45.15524" lon="0.28085">
        <ele>80</ele>
        <time>2016-05-17T14:16:24Z</time>
      </trkpt>
      <trkpt lat="45.15518" lon="0.28091">
        <ele>78</ele>
        <time>2016-05-17T14:16:29Z</time>
      </trkpt>
      <trkpt lat="45.15511" lon="0.28095">
        <ele>77</ele>
        <time>2016-05-17T14:16:34Z</time>
      </trkpt>
      <trkpt lat="45.15507" lon="0.28096">
        <ele>77</ele>
        <time>2016-05-17T14:16:39Z</time>
      </trkpt>
      <trkpt lat="45.15502" lon="0.28095">
        <ele>78</ele>
        <time>2016-05-17T14:16:43Z</time>
      </trkpt>
      <trkpt lat="45.15498" lon="0.28095">
        <ele>82</ele>
        <time>2016-05-17T14:16:47Z</time>
      </trkpt>
      <trkpt lat="45.15494" lon="0.28094">
        <ele>84</ele>
        <time>2016-05-17T14:16:56Z</time>
      </trkpt>
      <trkpt lat="45.15496" lon="0.2809">
        <ele>93</ele>
        <time>2016-05-17T14:17:17Z</time>
      </trkpt>
      <trkpt lat="45.15495" lon="0.28083">
        <ele>99</ele>
        <time>2016-05-17T14:17:25Z</time>
      </trkpt>
      <trkpt lat="45.15494" lon="0.28079">
        <ele>102</ele>
        <time>2016-05-17T14:17:29Z</time>
      </trkpt>
      <trkpt lat="45.15488" lon="0.28072">
        <ele>98</ele>
        <time>2016-05-17T14:17:33Z</time>
      </trkpt>
      <trkpt lat="45.15487" lon="0.28067">
        <ele>99</ele>
        <time>2016-05-17T14:17:38Z</time>
      </trkpt>
      <trkpt lat="45.15487" lon="0.28061">
        <ele>99</ele>
        <time>2016-05-17T14:17:42Z</time>
      </trkpt>
      <trkpt lat="45.15487" lon="0.28057">
        <ele>100</ele>
        <time>2016-05-17T14:17:46Z</time>
      </trkpt>
      <trkpt lat="45.15482" lon="0.28047">
        <ele>92</ele>
        <time>2016-05-17T14:17:50Z</time>
      </trkpt>
      <trkpt lat="45.15477" lon="0.28041">
        <ele>88</ele>
        <time>2016-05-17T14:17:55Z</time>
      </trkpt>
      <trkpt lat="45.15475" lon="0.28031">
        <ele>86</ele>
        <time>2016-05-17T14:17:59Z</time>
      </trkpt>
      <trkpt lat="45.1547" lon="0.28021">
        <ele>83</ele>
        <time>2016-05-17T14:18:03Z</time>
      </trkpt>
      <trkpt lat="45.15466" lon="0.28017">
        <ele>82</ele>
        <time>2016-05-17T14:18:08Z</time>
      </trkpt>
      <trkpt lat="45.15459" lon="0.28017">
        <ele>82</ele>
        <time>2016-05-17T14:18:12Z</time>
      </trkpt>
      <trkpt lat="45.15453" lon="0.28019">
        <ele>82</ele>
        <time>2016-05-17T14:18:17Z</time>
      </trkpt>
      <trkpt lat="45.15447" lon="0.28022">
        <ele>81</ele>
        <time>2016-05-17T14:18:22Z</time>
      </trkpt>
      <trkpt lat="45.15443" lon="0.28023">
        <ele>82</ele>
        <time>2016-05-17T14:18:27Z</time>
      </trkpt>
      <trkpt lat="45.15438" lon="0.28025">
        <ele>81</ele>
        <time>2016-05-17T14:18:31Z</time>
      </trkpt>
      <trkpt lat="45.15434" lon="0.28025">
        <ele>84</ele>
        <time>2016-05-17T14:18:36Z</time>
      </trkpt>
      <trkpt lat="45.15431" lon="0.28024">
        <ele>86</ele>
        <time>2016-05-17T14:18:40Z</time>
      </trkpt>
      <trkpt lat="45.15427" lon="0.28027">
        <ele>85</ele>
        <time>2016-05-17T14:18:44Z</time>
      </trkpt>
      <trkpt lat="45.15422" lon="0.28034">
        <ele>83</ele>
        <time>2016-05-17T14:18:49Z</time>
      </trkpt>
      <trkpt lat="45.15417" lon="0.28039">
        <ele>84</ele>
        <time>2016-05-17T14:18:53Z</time>
      </trkpt>
      <trkpt lat="45.15412" lon="0.28044">
        <ele>82</ele>
        <time>2016-05-17T14:18:57Z</time>
      </trkpt>
      <trkpt lat="45.15408" lon="0.28047">
        <ele>81</ele>
        <time>2016-05-17T14:19:02Z</time>
      </trkpt>
      <trkpt lat="45.15404" lon="0.2805">
        <ele>84</ele>
        <time>2016-05-17T14:19:06Z</time>
      </trkpt>
      <trkpt lat="45.154" lon="0.28051">
        <ele>86</ele>
        <time>2016-05-17T14:19:12Z</time>
      </trkpt>
      <trkpt lat="45.15396" lon="0.28052">
        <ele>88</ele>
        <time>2016-05-17T14:19:17Z</time>
      </trkpt>
      <trkpt lat="45.15392" lon="0.28054">
        <ele>90</ele>
        <time>2016-05-17T14:19:22Z</time>
      </trkpt>
      <trkpt lat="45.15387" lon="0.28062">
        <ele>88</ele>
        <time>2016-05-17T14:19:27Z</time>
      </trkpt>
      <trkpt lat="45.15385" lon="0.2807">
        <ele>87</ele>
        <time>2016-05-17T14:19:31Z</time>
      </trkpt>
      <trkpt lat="45.15383" lon="0.28074">
        <ele>88</ele>
        <time>2016-05-17T14:19:36Z</time>
      </trkpt>
      <trkpt lat="45.1538" lon="0.28086">
        <ele>85</ele>
        <time>2016-05-17T14:19:41Z</time>
      </trkpt>
      <trkpt lat="45.15375" lon="0.28087">
        <ele>89</ele>
        <time>2016-05-17T14:19:46Z</time>
      </trkpt>
      <trkpt lat="45.15371" lon="0.281">
        <ele>83</ele>
        <time>2016-05-17T14:19:51Z</time>
      </trkpt>
      <trkpt lat="45.15368" lon="0.28104">
        <ele>85</ele>
        <time>2016-05-17T14:19:56Z</time>
      </trkpt>
      <trkpt lat="45.15364" lon="0.28112">
        <ele>84</ele>
        <time>2016-05-17T14:20:01Z</time>
      </trkpt>
      <trkpt lat="45.15362" lon="0.28117">
        <ele>84</ele>
        <time>2016-05-17T14:20:05Z</time>
      </trkpt>
      <trkpt lat="45.15359" lon="0.28121">
        <ele>82</ele>
        <time>2016-05-17T14:20:10Z</time>
      </trkpt>
      <trkpt lat="45.15356" lon="0.28127">
        <ele>86</ele>
        <time>2016-05-17T14:20:15Z</time>
      </trkpt>
      <trkpt lat="45.15352" lon="0.28129">
        <ele>84</ele>
        <time>2016-05-17T14:20:20Z</time>
      </trkpt>
      <trkpt lat="45.1535" lon="0.2814">
        <ele>83</ele>
        <time>2016-05-17T14:20:24Z</time>
      </trkpt>
      <trkpt lat="45.15346" lon="0.2814">
        <ele>88</ele>
        <time>2016-05-17T14:20:31Z</time>
      </trkpt>
      <trkpt lat="45.15343" lon="0.28145">
        <ele>85</ele>
        <time>2016-05-17T14:20:42Z</time>
      </trkpt>
      <trkpt lat="45.1534" lon="0.28149">
        <ele>85</ele>
        <time>2016-05-17T14:20:47Z</time>
      </trkpt>
      <trkpt lat="45.15334" lon="0.28148">
        <ele>86</ele>
        <time>2016-05-17T14:20:52Z</time>
      </trkpt>
      <trkpt lat="45.15332" lon="0.28153">
        <ele>86</ele>
        <time>2016-05-17T14:21:04Z</time>
      </trkpt>
      <trkpt lat="45.15333" lon="0.28147">
        <ele>92</ele>
        <time>2016-05-17T14:21:14Z</time>
      </trkpt>
      <trkpt lat="45.15331" lon="0.28142">
        <ele>98</ele>
        <time>2016-05-17T14:21:21Z</time>
      </trkpt>
      <trkpt lat="45.15326" lon="0.28138">
        <ele>97</ele>
        <time>2016-05-17T14:21:25Z</time>
      </trkpt>
      <trkpt lat="45.15323" lon="0.28133">
        <ele>97</ele>
        <time>2016-05-17T14:21:29Z</time>
      </trkpt>
      <trkpt lat="45.15311" lon="0.28127">
        <ele>96</ele>
        <time>2016-05-17T14:21:34Z</time>
      </trkpt>
      <trkpt lat="45.15309" lon="0.28122">
        <ele>98</ele>
        <time>2016-05-17T14:21:39Z</time>
      </trkpt>
      <trkpt lat="45.15305" lon="0.28115">
        <ele>96</ele>
        <time>2016-05-17T14:21:44Z</time>
      </trkpt>
      <trkpt lat="45.15297" lon="0.28114">
        <ele>95</ele>
        <time>2016-05-17T14:21:48Z</time>
      </trkpt>
      <trkpt lat="45.15291" lon="0.28107">
        <ele>95</ele>
        <time>2016-05-17T14:21:52Z</time>
      </trkpt>
      <trkpt lat="45.15288" lon="0.28102">
        <ele>94</ele>
        <time>2016-05-17T14:21:56Z</time>
      </trkpt>
      <trkpt lat="45.15279" lon="0.28096">
        <ele>90</ele>
        <time>2016-05-17T14:22:00Z</time>
      </trkpt>
      <trkpt lat="45.15272" lon="0.2809">
        <ele>87</ele>
        <time>2016-05-17T14:22:04Z</time>
      </trkpt>
      <trkpt lat="45.15266" lon="0.28082">
        <ele>87</ele>
        <time>2016-05-17T14:22:09Z</time>
      </trkpt>
      <trkpt lat="45.15263" lon="0.28076">
        <ele>86</ele>
        <time>2016-05-17T14:22:13Z</time>
      </trkpt>
      <trkpt lat="45.15261" lon="0.28069">
        <ele>87</ele>
        <time>2016-05-17T14:22:17Z</time>
      </trkpt>
      <trkpt lat="45.15256" lon="0.28063">
        <ele>88</ele>
        <time>2016-05-17T14:22:22Z</time>
      </trkpt>
      <trkpt lat="45.15253" lon="0.28058">
        <ele>88</ele>
        <time>2016-05-17T14:22:28Z</time>
      </trkpt>
      <trkpt lat="45.15249" lon="0.28052">
        <ele>87</ele>
        <time>2016-05-17T14:22:33Z</time>
      </trkpt>
      <trkpt lat="45.15245" lon="0.28048">
        <ele>87</ele>
        <time>2016-05-17T14:22:38Z</time>
      </trkpt>
      <trkpt lat="45.15242" lon="0.28043">
        <ele>88</ele>
        <time>2016-05-17T14:22:42Z</time>
      </trkpt>
      <trkpt lat="45.15241" lon="0.28037">
        <ele>89</ele>
        <time>2016-05-17T14:22:46Z</time>
      </trkpt>
      <trkpt lat="45.15238" lon="0.28032">
        <ele>89</ele>
        <time>2016-05-17T14:22:50Z</time>
      </trkpt>
      <trkpt lat="45.15236" lon="0.28028">
        <ele>90</ele>
        <time>2016-05-17T14:22:54Z</time>
      </trkpt>
      <trkpt lat="45.15232" lon="0.28023">
        <ele>91</ele>
        <time>2016-05-17T14:22:59Z</time>
      </trkpt>
      <trkpt lat="45.1523" lon="0.28018">
        <ele>91</ele>
        <time>2016-05-17T14:23:04Z</time>
      </trkpt>
      <trkpt lat="45.15226" lon="0.28012">
        <ele>90</ele>
        <time>2016-05-17T14:23:09Z</time>
      </trkpt>
      <trkpt lat="45.15218" lon="0.28011">
        <ele>85</ele>
        <time>2016-05-17T14:23:14Z</time>
      </trkpt>
      <trkpt lat="45.15214" lon="0.28011">
        <ele>86</ele>
        <time>2016-05-17T14:23:18Z</time>
      </trkpt>
      <trkpt lat="45.15208" lon="0.28007">
        <ele>86</ele>
        <time>2016-05-17T14:23:23Z</time>
      </trkpt>
      <trkpt lat="45.15203" lon="0.28007">
        <ele>89</ele>
        <time>2016-05-17T14:23:27Z</time>
      </trkpt>
      <trkpt lat="45.15198" lon="0.28008">
        <ele>92</ele>
        <time>2016-05-17T14:23:31Z</time>
      </trkpt>
      <trkpt lat="45.15195" lon="0.28006">
        <ele>95</ele>
        <time>2016-05-17T14:23:35Z</time>
      </trkpt>
      <trkpt lat="45.15189" lon="0.28006">
        <ele>98</ele>
        <time>2016-05-17T14:23:40Z</time>
      </trkpt>
      <trkpt lat="45.15185" lon="0.28005">
        <ele>101</ele>
        <time>2016-05-17T14:23:45Z</time>
      </trkpt>
      <trkpt lat="45.15179" lon="0.27999">
        <ele>102</ele>
        <time>2016-05-17T14:23:50Z</time>
      </trkpt>
      <trkpt lat="45.15174" lon="0.27995">
        <ele>103</ele>
        <time>2016-05-17T14:23:54Z</time>
      </trkpt>
      <trkpt lat="45.1517" lon="0.27996">
        <ele>105</ele>
        <time>2016-05-17T14:23:59Z</time>
      </trkpt>
      <trkpt lat="45.15165" lon="0.27999">
        <ele>107</ele>
        <time>2016-05-17T14:24:03Z</time>
      </trkpt>
      <trkpt lat="45.15162" lon="0.28005">
        <ele>103</ele>
        <time>2016-05-17T14:24:07Z</time>
      </trkpt>
      <trkpt lat="45.15158" lon="0.28003">
        <ele>104</ele>
        <time>2016-05-17T14:24:12Z</time>
      </trkpt>
      <trkpt lat="45.15152" lon="0.28002">
        <ele>108</ele>
        <time>2016-05-17T14:24:17Z</time>
      </trkpt>
      <trkpt lat="45.15146" lon="0.28004">
        <ele>111</ele>
        <time>2016-05-17T14:24:22Z</time>
      </trkpt>
      <trkpt lat="45.15143" lon="0.28005">
        <ele>104</ele>
        <time>2016-05-17T14:24:29Z</time>
      </trkpt>
      <trkpt lat="45.15138" lon="0.28006">
        <ele>104</ele>
        <time>2016-05-17T14:24:33Z</time>
      </trkpt>
      <trkpt lat="45.15135" lon="0.28009">
        <ele>104</ele>
        <time>2016-05-17T14:24:37Z</time>
      </trkpt>
      <trkpt lat="45.15129" lon="0.28012">
        <ele>109</ele>
        <time>2016-05-17T14:24:41Z</time>
      </trkpt>
      <trkpt lat="45.15125" lon="0.28013">
        <ele>106</ele>
        <time>2016-05-17T14:24:45Z</time>
      </trkpt>
      <trkpt lat="45.15121" lon="0.28016">
        <ele>104</ele>
        <time>2016-05-17T14:24:53Z</time>
      </trkpt>
      <trkpt lat="45.15117" lon="0.28015">
        <ele>110</ele>
        <time>2016-05-17T14:24:59Z</time>
      </trkpt>
      <trkpt lat="45.15112" lon="0.28012">
        <ele>107</ele>
        <time>2016-05-17T14:25:03Z</time>
      </trkpt>
      <trkpt lat="45.15107" lon="0.28011">
        <ele>108</ele>
        <time>2016-05-17T14:25:10Z</time>
      </trkpt>
      <trkpt lat="45.15103" lon="0.28008">
        <ele>108</ele>
        <time>2016-05-17T14:25:14Z</time>
      </trkpt>
      <trkpt lat="45.15098" lon="0.28008">
        <ele>107</ele>
        <time>2016-05-17T14:25:18Z</time>
      </trkpt>
      <trkpt lat="45.15091" lon="0.28009">
        <ele>108</ele>
        <time>2016-05-17T14:25:23Z</time>
      </trkpt>
      <trkpt lat="45.15085" lon="0.2801">
        <ele>109</ele>
        <time>2016-05-17T14:25:28Z</time>
      </trkpt>
      <trkpt lat="45.15078" lon="0.28012">
        <ele>110</ele>
        <time>2016-05-17T14:25:33Z</time>
      </trkpt>
      <trkpt lat="45.15073" lon="0.28012">
        <ele>110</ele>
        <time>2016-05-17T14:25:38Z</time>
      </trkpt>
      <trkpt lat="45.15069" lon="0.28014">
        <ele>110</ele>
        <time>2016-05-17T14:25:42Z</time>
      </trkpt>
      <trkpt lat="45.15065" lon="0.28015">
        <ele>112</ele>
        <time>2016-05-17T14:25:46Z</time>
      </trkpt>
      <trkpt lat="45.15062" lon="0.28016">
        <ele>117</ele>
        <time>2016-05-17T14:25:53Z</time>
      </trkpt>
      <trkpt lat="45.15054" lon="0.28015">
        <ele>110</ele>
        <time>2016-05-17T14:25:57Z</time>
      </trkpt>
      <trkpt lat="45.15048" lon="0.28014">
        <ele>110</ele>
        <time>2016-05-17T14:26:01Z</time>
      </trkpt>
      <trkpt lat="45.15044" lon="0.28013">
        <ele>109</ele>
        <time>2016-05-17T14:26:06Z</time>
      </trkpt>
      <trkpt lat="45.1504" lon="0.28013">
        <ele>109</ele>
        <time>2016-05-17T14:26:11Z</time>
      </trkpt>
      <trkpt lat="45.15036" lon="0.28013">
        <ele>112</ele>
        <time>2016-05-17T14:26:15Z</time>
      </trkpt>
      <trkpt lat="45.1503" lon="0.28012">
        <ele>115</ele>
        <time>2016-05-17T14:26:20Z</time>
      </trkpt>
      <trkpt lat="45.15025" lon="0.28011">
        <ele>116</ele>
        <time>2016-05-17T14:26:24Z</time>
      </trkpt>
      <trkpt lat="45.15021" lon="0.2801">
        <ele>118</ele>
        <time>2016-05-17T14:26:28Z</time>
      </trkpt>
      <trkpt lat="45.15016" lon="0.28011">
        <ele>118</ele>
        <time>2016-05-17T14:26:33Z</time>
      </trkpt>
      <trkpt lat="45.15007" lon="0.28009">
        <ele>114</ele>
        <time>2016-05-17T14:26:37Z</time>
      </trkpt>
      <trkpt lat="45.15" lon="0.28003">
        <ele>116</ele>
        <time>2016-05-17T14:26:41Z</time>
      </trkpt>
      <trkpt lat="45.14995" lon="0.28004">
        <ele>116</ele>
        <time>2016-05-17T14:26:45Z</time>
      </trkpt>
      <trkpt lat="45.1499" lon="0.28007">
        <ele>112</ele>
        <time>2016-05-17T14:26:50Z</time>
      </trkpt>
      <trkpt lat="45.14989" lon="0.28016">
        <ele>107</ele>
        <time>2016-05-17T14:26:54Z</time>
      </trkpt>
      <trkpt lat="45.14986" lon="0.28019">
        <ele>107</ele>
        <time>2016-05-17T14:27:00Z</time>
      </trkpt>
      <trkpt lat="45.14985" lon="0.28025">
        <ele>105</ele>
        <time>2016-05-17T14:27:06Z</time>
      </trkpt>
      <trkpt lat="45.1498" lon="0.28033">
        <ele>106</ele>
        <time>2016-05-17T14:27:11Z</time>
      </trkpt>
      <trkpt lat="45.14976" lon="0.28039">
        <ele>104</ele>
        <time>2016-05-17T14:27:15Z</time>
      </trkpt>
      <trkpt lat="45.14974" lon="0.28044">
        <ele>104</ele>
        <time>2016-05-17T14:27:21Z</time>
      </trkpt>
      <trkpt lat="45.14969" lon="0.28052">
        <ele>108</ele>
        <time>2016-05-17T14:27:25Z</time>
      </trkpt>
      <trkpt lat="45.14966" lon="0.28055">
        <ele>107</ele>
        <time>2016-05-17T14:27:29Z</time>
      </trkpt>
      <trkpt lat="45.14961" lon="0.28061">
        <ele>108</ele>
        <time>2016-05-17T14:27:34Z</time>
      </trkpt>
      <trkpt lat="45.14959" lon="0.28077">
        <ele>99</ele>
        <time>2016-05-17T14:27:39Z</time>
      </trkpt>
      <trkpt lat="45.14956" lon="0.28082">
        <ele>97</ele>
        <time>2016-05-17T14:27:43Z</time>
      </trkpt>
      <trkpt lat="45.14954" lon="0.28086">
        <ele>96</ele>
        <time>2016-05-17T14:27:48Z</time>
      </trkpt>
      <trkpt lat="45.14952" lon="0.28092">
        <ele>95</ele>
        <time>2016-05-17T14:27:52Z</time>
      </trkpt>
      <trkpt lat="45.1495" lon="0.28096">
        <ele>95</ele>
        <time>2016-05-17T14:27:59Z</time>
      </trkpt>
      <trkpt lat="45.14946" lon="0.28098">
        <ele>98</ele>
        <time>2016-05-17T14:28:03Z</time>
      </trkpt>
      <trkpt lat="45.14942" lon="0.28102">
        <ele>96</ele>
        <time>2016-05-17T14:28:07Z</time>
      </trkpt>
      <trkpt lat="45.14939" lon="0.28107">
        <ele>95</ele>
        <time>2016-05-17T14:28:11Z</time>
      </trkpt>
      <trkpt lat="45.14936" lon="0.28112">
        <ele>97</ele>
        <time>2016-05-17T14:28:15Z</time>
      </trkpt>
      <trkpt lat="45.1493" lon="0.28121">
        <ele>95</ele>
        <time>2016-05-17T14:28:20Z</time>
      </trkpt>
      <trkpt lat="45.14926" lon="0.28127">
        <ele>96</ele>
        <time>2016-05-17T14:28:24Z</time>
      </trkpt>
      <trkpt lat="45.14922" lon="0.28131">
        <ele>96</ele>
        <time>2016-05-17T14:28:28Z</time>
      </trkpt>
      <trkpt lat="45.14919" lon="0.28134">
        <ele>96</ele>
        <time>2016-05-17T14:28:33Z</time>
      </trkpt>
      <trkpt lat="45.14915" lon="0.28136">
        <ele>97</ele>
        <time>2016-05-17T14:28:37Z</time>
      </trkpt>
      <trkpt lat="45.14911" lon="0.28138">
        <ele>98</ele>
        <time>2016-05-17T14:28:41Z</time>
      </trkpt>
      <trkpt lat="45.14906" lon="0.2814">
        <ele>101</ele>
        <time>2016-05-17T14:28:46Z</time>
      </trkpt>
      <trkpt lat="45.14901" lon="0.28143">
        <ele>102</ele>
        <time>2016-05-17T14:28:50Z</time>
      </trkpt>
      <trkpt lat="45.149" lon="0.28147">
        <ele>100</ele>
        <time>2016-05-17T14:28:54Z</time>
      </trkpt>
      <trkpt lat="45.14895" lon="0.28152">
        <ele>103</ele>
        <time>2016-05-17T14:28:58Z</time>
      </trkpt>
      <trkpt lat="45.14891" lon="0.28155">
        <ele>103</ele>
        <time>2016-05-17T14:29:03Z</time>
      </trkpt>
      <trkpt lat="45.14886" lon="0.28159">
        <ele>105</ele>
        <time>2016-05-17T14:29:08Z</time>
      </trkpt>
      <trkpt lat="45.14882" lon="0.28161">
        <ele>106</ele>
        <time>2016-05-17T14:29:15Z</time>
      </trkpt>
      <trkpt lat="45.14878" lon="0.28163">
        <ele>108</ele>
        <time>2016-05-17T14:29:24Z</time>
      </trkpt>
      <trkpt lat="45.14874" lon="0.28165">
        <ele>108</ele>
        <time>2016-05-17T14:29:39Z</time>
      </trkpt>
      <trkpt lat="45.14869" lon="0.28161">
        <ele>107</ele>
        <time>2016-05-17T14:29:43Z</time>
      </trkpt>
      <trkpt lat="45.14857" lon="0.28157">
        <ele>108</ele>
        <time>2016-05-17T14:29:48Z</time>
      </trkpt>
      <trkpt lat="45.14854" lon="0.28154">
        <ele>105</ele>
        <time>2016-05-17T14:29:52Z</time>
      </trkpt>
      <trkpt lat="45.1485" lon="0.28151">
        <ele>103</ele>
        <time>2016-05-17T14:29:57Z</time>
      </trkpt>
      <trkpt lat="45.14847" lon="0.28148">
        <ele>106</ele>
        <time>2016-05-17T14:30:02Z</time>
      </trkpt>
      <trkpt lat="45.14838" lon="0.28145">
        <ele>103</ele>
        <time>2016-05-17T14:30:06Z</time>
      </trkpt>
      <trkpt lat="45.14834" lon="0.28142">
        <ele>101</ele>
        <time>2016-05-17T14:30:15Z</time>
      </trkpt>
      <trkpt lat="45.14827" lon="0.28139">
        <ele>101</ele>
        <time>2016-05-17T14:30:20Z</time>
      </trkpt>
      <trkpt lat="45.14823" lon="0.28135">
        <ele>105</ele>
        <time>2016-05-17T14:30:25Z</time>
      </trkpt>
      <trkpt lat="45.14819" lon="0.28132">
        <ele>102</ele>
        <time>2016-05-17T14:30:29Z</time>
      </trkpt>
      <trkpt lat="45.14812" lon="0.28129">
        <ele>101</ele>
        <time>2016-05-17T14:30:34Z</time>
      </trkpt>
      <trkpt lat="45.14802" lon="0.28122">
        <ele>95</ele>
        <time>2016-05-17T14:30:38Z</time>
      </trkpt>
      <trkpt lat="45.14798" lon="0.28117">
        <ele>96</ele>
        <time>2016-05-17T14:30:42Z</time>
      </trkpt>
      <trkpt lat="45.14795" lon="0.28113">
        <ele>100</ele>
        <time>2016-05-17T14:30:50Z</time>
      </trkpt>
      <trkpt lat="45.14792" lon="0.28111">
        <ele>101</ele>
        <time>2016-05-17T14:30:55Z</time>
      </trkpt>
      <trkpt lat="45.14785" lon="0.28106">
        <ele>108</ele>
        <time>2016-05-17T14:31:00Z</time>
      </trkpt>
      <trkpt lat="45.14781" lon="0.28105">
        <ele>110</ele>
        <time>2016-05-17T14:31:05Z</time>
      </trkpt>
      <trkpt lat="45.14775" lon="0.28101">
        <ele>111</ele>
        <time>2016-05-17T14:31:09Z</time>
      </trkpt>
      <trkpt lat="45.14767" lon="0.28099">
        <ele>107</ele>
        <time>2016-05-17T14:31:13Z</time>
      </trkpt>
      <trkpt lat="45.14761" lon="0.28099">
        <ele>106</ele>
        <time>2016-05-17T14:31:18Z</time>
      </trkpt>
      <trkpt lat="45.14755" lon="0.28096">
        <ele>107</ele>
        <time>2016-05-17T14:31:22Z</time>
      </trkpt>
      <trkpt lat="45.14751" lon="0.28094">
        <ele>110</ele>
        <time>2016-05-17T14:31:27Z</time>
      </trkpt>
      <trkpt lat="45.14747" lon="0.28092">
        <ele>113</ele>
        <time>2016-05-17T14:31:32Z</time>
      </trkpt>
      <trkpt lat="45.14743" lon="0.28092">
        <ele>111</ele>
        <time>2016-05-17T14:31:41Z</time>
      </trkpt>
      <trkpt lat="45.14737" lon="0.28088">
        <ele>107</ele>
        <time>2016-05-17T14:31:45Z</time>
      </trkpt>
      <trkpt lat="45.14734" lon="0.28085">
        <ele>104</ele>
        <time>2016-05-17T14:31:49Z</time>
      </trkpt>
      <trkpt lat="45.14731" lon="0.28083">
        <ele>106</ele>
        <time>2016-05-17T14:31:53Z</time>
      </trkpt>
      <trkpt lat="45.14728" lon="0.2808">
        <ele>110</ele>
        <time>2016-05-17T14:31:57Z</time>
      </trkpt>
      <trkpt lat="45.14725" lon="0.28072">
        <ele>112</ele>
        <time>2016-05-17T14:32:02Z</time>
      </trkpt>
      <trkpt lat="45.14724" lon="0.28067">
        <ele>116</ele>
        <time>2016-05-17T14:32:10Z</time>
      </trkpt>
      <trkpt lat="45.14722" lon="0.2806">
        <ele>116</ele>
        <time>2016-05-17T14:32:14Z</time>
      </trkpt>
      <trkpt lat="45.1472" lon="0.28057">
        <ele>118</ele>
        <time>2016-05-17T14:32:22Z</time>
      </trkpt>
      <trkpt lat="45.14715" lon="0.28047">
        <ele>116</ele>
        <time>2016-05-17T14:32:26Z</time>
      </trkpt>
      <trkpt lat="45.1471" lon="0.2804">
        <ele>112</ele>
        <time>2016-05-17T14:32:31Z</time>
      </trkpt>
      <trkpt lat="45.14708" lon="0.28032">
        <ele>112</ele>
        <time>2016-05-17T14:32:36Z</time>
      </trkpt>
      <trkpt lat="45.14708" lon="0.28024">
        <ele>114</ele>
        <time>2016-05-17T14:32:41Z</time>
      </trkpt>
      <trkpt lat="45.14707" lon="0.28019">
        <ele>114</ele>
        <time>2016-05-17T14:32:45Z</time>
      </trkpt>
      <trkpt lat="45.14706" lon="0.28011">
        <ele>115</ele>
        <time>2016-05-17T14:32:50Z</time>
      </trkpt>
      <trkpt lat="45.14701" lon="0.28005">
        <ele>111</ele>
        <time>2016-05-17T14:32:55Z</time>
      </trkpt>
      <trkpt lat="45.147" lon="0.28">
        <ele>111</ele>
        <time>2016-05-17T14:33:00Z</time>
      </trkpt>
      <trkpt lat="45.14699" lon="0.27993">
        <ele>114</ele>
        <time>2016-05-17T14:33:05Z</time>
      </trkpt>
      <trkpt lat="45.14694" lon="0.27983">
        <ele>108</ele>
        <time>2016-05-17T14:33:10Z</time>
      </trkpt>
      <trkpt lat="45.14691" lon="0.27979">
        <ele>106</ele>
        <time>2016-05-17T14:33:14Z</time>
      </trkpt>
      <trkpt lat="45.14685" lon="0.27975">
        <ele>105</ele>
        <time>2016-05-17T14:33:19Z</time>
      </trkpt>
      <trkpt lat="45.14682" lon="0.2797">
        <ele>106</ele>
        <time>2016-05-17T14:33:27Z</time>
      </trkpt>
      <trkpt lat="45.1468" lon="0.27965">
        <ele>107</ele>
        <time>2016-05-17T14:34:24Z</time>
      </trkpt>
      <trkpt lat="45.14679" lon="0.2796">
        <ele>107</ele>
        <time>2016-05-17T14:34:33Z</time>
      </trkpt>
      <trkpt lat="45.14677" lon="0.27955">
        <ele>112</ele>
        <time>2016-05-17T14:34:45Z</time>
      </trkpt>
      <trkpt lat="45.14681" lon="0.27955">
        <ele>115</ele>
        <time>2016-05-17T14:34:54Z</time>
      </trkpt>
      <trkpt lat="45.14685" lon="0.2795">
        <ele>115</ele>
        <time>2016-05-17T14:34:59Z</time>
      </trkpt>
      <trkpt lat="45.14691" lon="0.27947">
        <ele>115</ele>
        <time>2016-05-17T14:35:03Z</time>
      </trkpt>
      <trkpt lat="45.14694" lon="0.27948">
        <ele>121</ele>
        <time>2016-05-17T14:35:17Z</time>
      </trkpt>
      <trkpt lat="45.14704" lon="0.27941">
        <ele>116</ele>
        <time>2016-05-17T14:35:22Z</time>
      </trkpt>
      <trkpt lat="45.14709" lon="0.27941">
        <ele>118</ele>
        <time>2016-05-17T14:35:26Z</time>
      </trkpt>
      <trkpt lat="45.14712" lon="0.27939">
        <ele>120</ele>
        <time>2016-05-17T14:35:30Z</time>
      </trkpt>
      <trkpt lat="45.14717" lon="0.27935">
        <ele>120</ele>
        <time>2016-05-17T14:35:34Z</time>
      </trkpt>
      <trkpt lat="45.14722" lon="0.27931">
        <ele>120</ele>
        <time>2016-05-17T14:35:39Z</time>
      </trkpt>
      <trkpt lat="45.14728" lon="0.2793">
        <ele>120</ele>
        <time>2016-05-17T14:35:43Z</time>
      </trkpt>
      <trkpt lat="45.14732" lon="0.27929">
        <ele>119</ele>
        <time>2016-05-17T14:35:54Z</time>
      </trkpt>
      <trkpt lat="45.14736" lon="0.27927">
        <ele>120</ele>
        <time>2016-05-17T14:35:59Z</time>
      </trkpt>
      <trkpt lat="45.14741" lon="0.27923">
        <ele>120</ele>
        <time>2016-05-17T14:36:03Z</time>
      </trkpt>
      <trkpt lat="45.14748" lon="0.27918">
        <ele>117</ele>
        <time>2016-05-17T14:36:08Z</time>
      </trkpt>
      <trkpt lat="45.1475" lon="0.27918">
        <ele>118</ele>
        <time>2016-05-17T14:36:14Z</time>
      </trkpt>
      <trkpt lat="45.14759" lon="0.27906">
        <ele>116</ele>
        <time>2016-05-17T14:36:19Z</time>
      </trkpt>
      <trkpt lat="45.14761" lon="0.27903">
        <ele>118</ele>
        <time>2016-05-17T14:36:25Z</time>
      </trkpt>
      <trkpt lat="45.14767" lon="0.27898">
        <ele>117</ele>
        <time>2016-05-17T14:36:29Z</time>
      </trkpt>
      <trkpt lat="45.14773" lon="0.27895">
        <ele>117</ele>
        <time>2016-05-17T14:36:34Z</time>
      </trkpt>
      <trkpt lat="45.14777" lon="0.27892">
        <ele>115</ele>
        <time>2016-05-17T14:36:39Z</time>
      </trkpt>
      <trkpt lat="45.14781" lon="0.27891">
        <ele>119</ele>
        <time>2016-05-17T14:36:47Z</time>
      </trkpt>
      <trkpt lat="45.14785" lon="0.27885">
        <ele>118</ele>
        <time>2016-05-17T14:36:51Z</time>
      </trkpt>
      <trkpt lat="45.14793" lon="0.27879">
        <ele>117</ele>
        <time>2016-05-17T14:36:56Z</time>
      </trkpt>
      <trkpt lat="45.14795" lon="0.27877">
        <ele>117</ele>
        <time>2016-05-17T14:37:02Z</time>
      </trkpt>
      <trkpt lat="45.14801" lon="0.27875">
        <ele>118</ele>
        <time>2016-05-17T14:37:06Z</time>
      </trkpt>
      <trkpt lat="45.14806" lon="0.27875">
        <ele>120</ele>
        <time>2016-05-17T14:37:11Z</time>
      </trkpt>
      <trkpt lat="45.1481" lon="0.27872">
        <ele>120</ele>
        <time>2016-05-17T14:37:15Z</time>
      </trkpt>
      <trkpt lat="45.14817" lon="0.27868">
        <ele>117</ele>
        <time>2016-05-17T14:37:20Z</time>
      </trkpt>
      <trkpt lat="45.14821" lon="0.27866">
        <ele>118</ele>
        <time>2016-05-17T14:37:32Z</time>
      </trkpt>
      <trkpt lat="45.14824" lon="0.27861">
        <ele>117</ele>
        <time>2016-05-17T14:37:36Z</time>
      </trkpt>
      <trkpt lat="45.14828" lon="0.27856">
        <ele>113</ele>
        <time>2016-05-17T14:37:40Z</time>
      </trkpt>
      <trkpt lat="45.14831" lon="0.27855">
        <ele>113</ele>
        <time>2016-05-17T14:37:46Z</time>
      </trkpt>
      <trkpt lat="45.1484" lon="0.27851">
        <ele>114</ele>
        <time>2016-05-17T14:37:50Z</time>
      </trkpt>
      <trkpt lat="45.14847" lon="0.27849">
        <ele>116</ele>
        <time>2016-05-17T14:37:54Z</time>
      </trkpt>
      <trkpt lat="45.14851" lon="0.27846">
        <ele>116</ele>
        <time>2016-05-17T14:37:59Z</time>
      </trkpt>
      <trkpt lat="45.1486" lon="0.2784">
        <ele>116</ele>
        <time>2016-05-17T14:38:03Z</time>
      </trkpt>
      <trkpt lat="45.14864" lon="0.27834">
        <ele>116</ele>
        <time>2016-05-17T14:38:07Z</time>
      </trkpt>
      <trkpt lat="45.14868" lon="0.27827">
        <ele>116</ele>
        <time>2016-05-17T14:38:11Z</time>
      </trkpt>
      <trkpt lat="45.14871" lon="0.27826">
        <ele>115</ele>
        <time>2016-05-17T14:38:15Z</time>
      </trkpt>
      <trkpt lat="45.14877" lon="0.27824">
        <ele>116</ele>
        <time>2016-05-17T14:38:19Z</time>
      </trkpt>
      <trkpt lat="45.14881" lon="0.27824">
        <ele>117</ele>
        <time>2016-05-17T14:38:23Z</time>
      </trkpt>
      <trkpt lat="45.14888" lon="0.2782">
        <ele>117</ele>
        <time>2016-05-17T14:38:28Z</time>
      </trkpt>
      <trkpt lat="45.14894" lon="0.27818">
        <ele>116</ele>
        <time>2016-05-17T14:38:32Z</time>
      </trkpt>
      <trkpt lat="45.14899" lon="0.27815">
        <ele>116</ele>
        <time>2016-05-17T14:38:36Z</time>
      </trkpt>
      <trkpt lat="45.14904" lon="0.27815">
        <ele>121</ele>
        <time>2016-05-17T14:38:41Z</time>
      </trkpt>
      <trkpt lat="45.14908" lon="0.27812">
        <ele>121</ele>
        <time>2016-05-17T14:38:45Z</time>
      </trkpt>
      <trkpt lat="45.14912" lon="0.27808">
        <ele>121</ele>
        <time>2016-05-17T14:38:49Z</time>
      </trkpt>
      <trkpt lat="45.14918" lon="0.27806">
        <ele>122</ele>
        <time>2016-05-17T14:38:54Z</time>
      </trkpt>
      <trkpt lat="45.14923" lon="0.27803">
        <ele>119</ele>
        <time>2016-05-17T14:38:58Z</time>
      </trkpt>
      <trkpt lat="45.1493" lon="0.27792">
        <ele>112</ele>
        <time>2016-05-17T14:39:03Z</time>
      </trkpt>
      <trkpt lat="45.14934" lon="0.27788">
        <ele>113</ele>
        <time>2016-05-17T14:39:12Z</time>
      </trkpt>
      <trkpt lat="45.14941" lon="0.27783">
        <ele>110</ele>
        <time>2016-05-17T14:39:17Z</time>
      </trkpt>
      <trkpt lat="45.14946" lon="0.2778">
        <ele>110</ele>
        <time>2016-05-17T14:39:21Z</time>
      </trkpt>
      <trkpt lat="45.1495" lon="0.2778">
        <ele>108</ele>
        <time>2016-05-17T14:39:26Z</time>
      </trkpt>
      <trkpt lat="45.14954" lon="0.2778">
        <ele>109</ele>
        <time>2016-05-17T14:39:31Z</time>
      </trkpt>
      <trkpt lat="45.14958" lon="0.27777">
        <ele>112</ele>
        <time>2016-05-17T14:39:35Z</time>
      </trkpt>
      <trkpt lat="45.14964" lon="0.27771">
        <ele>111</ele>
        <time>2016-05-17T14:39:39Z</time>
      </trkpt>
      <trkpt lat="45.14967" lon="0.27771">
        <ele>113</ele>
        <time>2016-05-17T14:39:47Z</time>
      </trkpt>
      <trkpt lat="45.14972" lon="0.27768">
        <ele>112</ele>
        <time>2016-05-17T14:39:52Z</time>
      </trkpt>
      <trkpt lat="45.14975" lon="0.27765">
        <ele>111</ele>
        <time>2016-05-17T14:39:58Z</time>
      </trkpt>
      <trkpt lat="45.14979" lon="0.27763">
        <ele>112</ele>
        <time>2016-05-17T14:40:03Z</time>
      </trkpt>
      <trkpt lat="45.14986" lon="0.27758">
        <ele>111</ele>
        <time>2016-05-17T14:40:08Z</time>
      </trkpt>
      <trkpt lat="45.14992" lon="0.27751">
        <ele>109</ele>
        <time>2016-05-17T14:40:12Z</time>
      </trkpt>
      <trkpt lat="45.14996" lon="0.27748">
        <ele>111</ele>
        <time>2016-05-17T14:40:16Z</time>
      </trkpt>
      <trkpt lat="45.15" lon="0.27747">
        <ele>111</ele>
        <time>2016-05-17T14:40:20Z</time>
      </trkpt>
      <trkpt lat="45.15004" lon="0.27745">
        <ele>111</ele>
        <time>2016-05-17T14:40:24Z</time>
      </trkpt>
      <trkpt lat="45.15011" lon="0.27736">
        <ele>105</ele>
        <time>2016-05-17T14:40:28Z</time>
      </trkpt>
      <trkpt lat="45.15018" lon="0.2773">
        <ele>104</ele>
        <time>2016-05-17T14:40:32Z</time>
      </trkpt>
      <trkpt lat="45.15022" lon="0.27729">
        <ele>105</ele>
        <time>2016-05-17T14:40:37Z</time>
      </trkpt>
      <trkpt lat="45.1503" lon="0.27723">
        <ele>104</ele>
        <time>2016-05-17T14:40:42Z</time>
      </trkpt>
      <trkpt lat="45.15034" lon="0.27723">
        <ele>105</ele>
        <time>2016-05-17T14:40:47Z</time>
      </trkpt>
      <trkpt lat="45.1504" lon="0.27717">
        <ele>104</ele>
        <time>2016-05-17T14:40:51Z</time>
      </trkpt>
      <trkpt lat="45.15046" lon="0.27712">
        <ele>104</ele>
        <time>2016-05-17T14:40:56Z</time>
      </trkpt>
      <trkpt lat="45.15051" lon="0.27708">
        <ele>105</ele>
        <time>2016-05-17T14:41:00Z</time>
      </trkpt>
      <trkpt lat="45.15055" lon="0.277">
        <ele>104</ele>
        <time>2016-05-17T14:41:05Z</time>
      </trkpt>
      <trkpt lat="45.15058" lon="0.27698">
        <ele>105</ele>
        <time>2016-05-17T14:41:09Z</time>
      </trkpt>
      <trkpt lat="45.15061" lon="0.27694">
        <ele>106</ele>
        <time>2016-05-17T14:41:13Z</time>
      </trkpt>
      <trkpt lat="45.15064" lon="0.27688">
        <ele>106</ele>
        <time>2016-05-17T14:41:17Z</time>
      </trkpt>
      <trkpt lat="45.15064" lon="0.2767">
        <ele>99</ele>
        <time>2016-05-17T14:41:22Z</time>
      </trkpt>
      <trkpt lat="45.15066" lon="0.27661">
        <ele>97</ele>
        <time>2016-05-17T14:41:27Z</time>
      </trkpt>
      <trkpt lat="45.15069" lon="0.27658">
        <ele>99</ele>
        <time>2016-05-17T14:41:31Z</time>
      </trkpt>
      <trkpt lat="45.15071" lon="0.27653">
        <ele>101</ele>
        <time>2016-05-17T14:41:35Z</time>
      </trkpt>
      <trkpt lat="45.15073" lon="0.27643">
        <ele>100</ele>
        <time>2016-05-17T14:41:40Z</time>
      </trkpt>
      <trkpt lat="45.15074" lon="0.27638">
        <ele>99</ele>
        <time>2016-05-17T14:41:44Z</time>
      </trkpt>
      <trkpt lat="45.15076" lon="0.27632">
        <ele>100</ele>
        <time>2016-05-17T14:41:48Z</time>
      </trkpt>
      <trkpt lat="45.15078" lon="0.27624">
        <ele>99</ele>
        <time>2016-05-17T14:41:52Z</time>
      </trkpt>
      <trkpt lat="45.15082" lon="0.27616">
        <ele>99</ele>
        <time>2016-05-17T14:41:57Z</time>
      </trkpt>
      <trkpt lat="45.15084" lon="0.27609">
        <ele>99</ele>
        <time>2016-05-17T14:42:01Z</time>
      </trkpt>
      <trkpt lat="45.15086" lon="0.27603">
        <ele>100</ele>
        <time>2016-05-17T14:42:06Z</time>
      </trkpt>
      <trkpt lat="45.15087" lon="0.27599">
        <ele>101</ele>
        <time>2016-05-17T14:42:10Z</time>
      </trkpt>
      <trkpt lat="45.1509" lon="0.27591">
        <ele>100</ele>
        <time>2016-05-17T14:42:15Z</time>
      </trkpt>
      <trkpt lat="45.15092" lon="0.27586">
        <ele>102</ele>
        <time>2016-05-17T14:42:20Z</time>
      </trkpt>
      <trkpt lat="45.15095" lon="0.27579">
        <ele>104</ele>
        <time>2016-05-17T14:42:25Z</time>
      </trkpt>
      <trkpt lat="45.15097" lon="0.27573">
        <ele>104</ele>
        <time>2016-05-17T14:42:29Z</time>
      </trkpt>
      <trkpt lat="45.15099" lon="0.27568">
        <ele>105</ele>
        <time>2016-05-17T14:42:34Z</time>
      </trkpt>
      <trkpt lat="45.151" lon="0.2756">
        <ele>102</ele>
        <time>2016-05-17T14:42:38Z</time>
      </trkpt>
      <trkpt lat="45.15102" lon="0.27551">
        <ele>102</ele>
        <time>2016-05-17T14:42:43Z</time>
      </trkpt>
      <trkpt lat="45.15104" lon="0.27545">
        <ele>103</ele>
        <time>2016-05-17T14:42:47Z</time>
      </trkpt>
      <trkpt lat="45.15104" lon="0.27531">
        <ele>97</ele>
        <time>2016-05-17T14:42:51Z</time>
      </trkpt>
      <trkpt lat="45.15104" lon="0.27521">
        <ele>95</ele>
        <time>2016-05-17T14:42:55Z</time>
      </trkpt>
      <trkpt lat="45.15108" lon="0.27517">
        <ele>96</ele>
        <time>2016-05-17T14:43:00Z</time>
      </trkpt>
      <trkpt lat="45.15111" lon="0.27498">
        <ele>93</ele>
        <time>2016-05-17T14:43:05Z</time>
      </trkpt>
      <trkpt lat="45.15111" lon="0.27491">
        <ele>89</ele>
        <time>2016-05-17T14:43:10Z</time>
      </trkpt>
      <trkpt lat="45.15113" lon="0.27487">
        <ele>93</ele>
        <time>2016-05-17T14:43:16Z</time>
      </trkpt>
      <trkpt lat="45.15116" lon="0.27481">
        <ele>94</ele>
        <time>2016-05-17T14:43:21Z</time>
      </trkpt>
      <trkpt lat="45.15118" lon="0.27474">
        <ele>95</ele>
        <time>2016-05-17T14:43:25Z</time>
      </trkpt>
      <trkpt lat="45.15121" lon="0.27461">
        <ele>91</ele>
        <time>2016-05-17T14:43:29Z</time>
      </trkpt>
      <trkpt lat="45.15123" lon="0.27455">
        <ele>91</ele>
        <time>2016-05-17T14:43:34Z</time>
      </trkpt>
      <trkpt lat="45.15126" lon="0.2745">
        <ele>95</ele>
        <time>2016-05-17T14:43:38Z</time>
      </trkpt>
      <trkpt lat="45.15127" lon="0.27446">
        <ele>99</ele>
        <time>2016-05-17T14:43:43Z</time>
      </trkpt>
      <trkpt lat="45.15129" lon="0.27437">
        <ele>99</ele>
        <time>2016-05-17T14:43:48Z</time>
      </trkpt>
      <trkpt lat="45.1513" lon="0.27427">
        <ele>93</ele>
        <time>2016-05-17T14:43:52Z</time>
      </trkpt>
      <trkpt lat="45.15132" lon="0.27418">
        <ele>95</ele>
        <time>2016-05-17T14:43:57Z</time>
      </trkpt>
      <trkpt lat="45.15135" lon="0.2741">
        <ele>98</ele>
        <time>2016-05-17T14:44:02Z</time>
      </trkpt>
      <trkpt lat="45.15137" lon="0.27406">
        <ele>101</ele>
        <time>2016-05-17T14:44:07Z</time>
      </trkpt>
      <trkpt lat="45.15141" lon="0.27399">
        <ele>102</ele>
        <time>2016-05-17T14:44:12Z</time>
      </trkpt>
      <trkpt lat="45.15144" lon="0.27392">
        <ele>104</ele>
        <time>2016-05-17T14:44:17Z</time>
      </trkpt>
      <trkpt lat="45.15148" lon="0.27384">
        <ele>103</ele>
        <time>2016-05-17T14:44:21Z</time>
      </trkpt>
      <trkpt lat="45.1515" lon="0.27376">
        <ele>104</ele>
        <time>2016-05-17T14:44:25Z</time>
      </trkpt>
      <trkpt lat="45.15152" lon="0.2737">
        <ele>105</ele>
        <time>2016-05-17T14:44:29Z</time>
      </trkpt>
      <trkpt lat="45.15154" lon="0.27363">
        <ele>106</ele>
        <time>2016-05-17T14:44:34Z</time>
      </trkpt>
      <trkpt lat="45.15155" lon="0.27356">
        <ele>106</ele>
        <time>2016-05-17T14:44:38Z</time>
      </trkpt>
      <trkpt lat="45.1516" lon="0.27349">
        <ele>108</ele>
        <time>2016-05-17T14:44:43Z</time>
      </trkpt>
      <trkpt lat="45.15161" lon="0.27342">
        <ele>108</ele>
        <time>2016-05-17T14:44:47Z</time>
      </trkpt>
      <trkpt lat="45.15162" lon="0.27334">
        <ele>108</ele>
        <time>2016-05-17T14:44:51Z</time>
      </trkpt>
      <trkpt lat="45.15163" lon="0.27327">
        <ele>108</ele>
        <time>2016-05-17T14:44:55Z</time>
      </trkpt>
      <trkpt lat="45.15166" lon="0.27321">
        <ele>110</ele>
        <time>2016-05-17T14:44:59Z</time>
      </trkpt>
      <trkpt lat="45.15169" lon="0.27316">
        <ele>110</ele>
        <time>2016-05-17T14:45:03Z</time>
      </trkpt>
      <trkpt lat="45.1517" lon="0.27306">
        <ele>109</ele>
        <time>2016-05-17T14:45:07Z</time>
      </trkpt>
      <trkpt lat="45.15172" lon="0.27299">
        <ele>108</ele>
        <time>2016-05-17T14:45:11Z</time>
      </trkpt>
      <trkpt lat="45.15173" lon="0.27293">
        <ele>109</ele>
        <time>2016-05-17T14:45:15Z</time>
      </trkpt>
      <trkpt lat="45.15176" lon="0.27287">
        <ele>113</ele>
        <time>2016-05-17T14:45:20Z</time>
      </trkpt>
      <trkpt lat="45.15177" lon="0.27282">
        <ele>113</ele>
        <time>2016-05-17T14:45:24Z</time>
      </trkpt>
      <trkpt lat="45.15181" lon="0.27277">
        <ele>115</ele>
        <time>2016-05-17T14:45:28Z</time>
      </trkpt>
      <trkpt lat="45.15182" lon="0.27268">
        <ele>113</ele>
        <time>2016-05-17T14:45:32Z</time>
      </trkpt>
      <trkpt lat="45.15183" lon="0.27261">
        <ele>114</ele>
        <time>2016-05-17T14:45:36Z</time>
      </trkpt>
      <trkpt lat="45.15185" lon="0.27256">
        <ele>116</ele>
        <time>2016-05-17T14:45:40Z</time>
      </trkpt>
      <trkpt lat="45.15184" lon="0.27251">
        <ele>115</ele>
        <time>2016-05-17T14:45:44Z</time>
      </trkpt>
      <trkpt lat="45.15188" lon="0.27244">
        <ele>115</ele>
        <time>2016-05-17T14:45:48Z</time>
      </trkpt>
      <trkpt lat="45.15188" lon="0.27237">
        <ele>115</ele>
        <time>2016-05-17T14:45:53Z</time>
      </trkpt>
      <trkpt lat="45.15191" lon="0.27232">
        <ele>118</ele>
        <time>2016-05-17T14:45:57Z</time>
      </trkpt>
      <trkpt lat="45.15195" lon="0.27227">
        <ele>119</ele>
        <time>2016-05-17T14:46:02Z</time>
      </trkpt>
      <trkpt lat="45.15196" lon="0.27215">
        <ele>116</ele>
        <time>2016-05-17T14:46:06Z</time>
      </trkpt>
      <trkpt lat="45.15199" lon="0.27208">
        <ele>116</ele>
        <time>2016-05-17T14:46:11Z</time>
      </trkpt>
      <trkpt lat="45.152" lon="0.27203">
        <ele>118</ele>
        <time>2016-05-17T14:46:15Z</time>
      </trkpt>
      <trkpt lat="45.15201" lon="0.27197">
        <ele>120</ele>
        <time>2016-05-17T14:46:20Z</time>
      </trkpt>
      <trkpt lat="45.15207" lon="0.27186">
        <ele>118</ele>
        <time>2016-05-17T14:46:25Z</time>
      </trkpt>
      <trkpt lat="45.15208" lon="0.27179">
        <ele>117</ele>
        <time>2016-05-17T14:46:29Z</time>
      </trkpt>
      <trkpt lat="45.15209" lon="0.27173">
        <ele>119</ele>
        <time>2016-05-17T14:46:33Z</time>
      </trkpt>
      <trkpt lat="45.15211" lon="0.27167">
        <ele>119</ele>
        <time>2016-05-17T14:46:38Z</time>
      </trkpt>
      <trkpt lat="45.15213" lon="0.27158">
        <ele>118</ele>
        <time>2016-05-17T14:46:43Z</time>
      </trkpt>
      <trkpt lat="45.15217" lon="0.27153">
        <ele>119</ele>
        <time>2016-05-17T14:46:47Z</time>
      </trkpt>
      <trkpt lat="45.15218" lon="0.27149">
        <ele>120</ele>
        <time>2016-05-17T14:46:51Z</time>
      </trkpt>
      <trkpt lat="45.15218" lon="0.27126">
        <ele>111</ele>
        <time>2016-05-17T14:46:56Z</time>
      </trkpt>
      <trkpt lat="45.15219" lon="0.27118">
        <ele>108</ele>
        <time>2016-05-17T14:47:00Z</time>
      </trkpt>
      <trkpt lat="45.15221" lon="0.27116">
        <ele>110</ele>
        <time>2016-05-17T14:47:05Z</time>
      </trkpt>
      <trkpt lat="45.15225" lon="0.27111">
        <ele>113</ele>
        <time>2016-05-17T14:47:09Z</time>
      </trkpt>
      <trkpt lat="45.15227" lon="0.27105">
        <ele>114</ele>
        <time>2016-05-17T14:47:22Z</time>
      </trkpt>
      <trkpt lat="45.15231" lon="0.27106">
        <ele>115</ele>
        <time>2016-05-17T14:47:29Z</time>
      </trkpt>
      <trkpt lat="45.15234" lon="0.27108">
        <ele>117</ele>
        <time>2016-05-17T14:47:34Z</time>
      </trkpt>
      <trkpt lat="45.15239" lon="0.27108">
        <ele>116</ele>
        <time>2016-05-17T14:47:38Z</time>
      </trkpt>
      <trkpt lat="45.15245" lon="0.27107">
        <ele>111</ele>
        <time>2016-05-17T14:47:42Z</time>
      </trkpt>
      <trkpt lat="45.15248" lon="0.27105">
        <ele>111</ele>
        <time>2016-05-17T14:47:46Z</time>
      </trkpt>
      <trkpt lat="45.15255" lon="0.27105">
        <ele>112</ele>
        <time>2016-05-17T14:47:51Z</time>
      </trkpt>
      <trkpt lat="45.15259" lon="0.27105">
        <ele>114</ele>
        <time>2016-05-17T14:47:58Z</time>
      </trkpt>
      <trkpt lat="45.15263" lon="0.27106">
        <ele>115</ele>
        <time>2016-05-17T14:48:03Z</time>
      </trkpt>
      <trkpt lat="45.15267" lon="0.27104">
        <ele>118</ele>
        <time>2016-05-17T14:48:07Z</time>
      </trkpt>
      <trkpt lat="45.15272" lon="0.27105">
        <ele>120</ele>
        <time>2016-05-17T14:48:11Z</time>
      </trkpt>
      <trkpt lat="45.15277" lon="0.27103">
        <ele>121</ele>
        <time>2016-05-17T14:48:16Z</time>
      </trkpt>
      <trkpt lat="45.15281" lon="0.27103">
        <ele>123</ele>
        <time>2016-05-17T14:48:21Z</time>
      </trkpt>
      <trkpt lat="45.15286" lon="0.271">
        <ele>122</ele>
        <time>2016-05-17T14:48:25Z</time>
      </trkpt>
      <trkpt lat="45.15292" lon="0.27098">
        <ele>122</ele>
        <time>2016-05-17T14:48:29Z</time>
      </trkpt>
      <trkpt lat="45.15297" lon="0.27098">
        <ele>119</ele>
        <time>2016-05-17T14:48:33Z</time>
      </trkpt>
      <trkpt lat="45.15305" lon="0.27096">
        <ele>114</ele>
        <time>2016-05-17T14:48:37Z</time>
      </trkpt>
      <trkpt lat="45.15309" lon="0.27096">
        <ele>117</ele>
        <time>2016-05-17T14:48:41Z</time>
      </trkpt>
      <trkpt lat="45.15315" lon="0.27094">
        <ele>118</ele>
        <time>2016-05-17T14:48:46Z</time>
      </trkpt>
      <trkpt lat="45.15319" lon="0.27093">
        <ele>116</ele>
        <time>2016-05-17T14:48:50Z</time>
      </trkpt>
      <trkpt lat="45.15328" lon="0.27091">
        <ele>112</ele>
        <time>2016-05-17T14:48:55Z</time>
      </trkpt>
      <trkpt lat="45.15336" lon="0.27088">
        <ele>112</ele>
        <time>2016-05-17T14:48:59Z</time>
      </trkpt>
      <trkpt lat="45.1534" lon="0.27087">
        <ele>110</ele>
        <time>2016-05-17T14:49:04Z</time>
      </trkpt>
      <trkpt lat="45.15349" lon="0.2708">
        <ele>109</ele>
        <time>2016-05-17T14:49:09Z</time>
      </trkpt>
      <trkpt lat="45.15356" lon="0.27075">
        <ele>106</ele>
        <time>2016-05-17T14:49:13Z</time>
      </trkpt>
      <trkpt lat="45.15364" lon="0.27072">
        <ele>107</ele>
        <time>2016-05-17T14:49:18Z</time>
      </trkpt>
      <trkpt lat="45.15369" lon="0.27069">
        <ele>110</ele>
        <time>2016-05-17T14:49:22Z</time>
      </trkpt>
      <trkpt lat="45.15375" lon="0.27065">
        <ele>110</ele>
        <time>2016-05-17T14:49:27Z</time>
      </trkpt>
      <trkpt lat="45.15379" lon="0.27062">
        <ele>110</ele>
        <time>2016-05-17T14:49:31Z</time>
      </trkpt>
      <trkpt lat="45.15386" lon="0.27058">
        <ele>110</ele>
        <time>2016-05-17T14:49:36Z</time>
      </trkpt>
      <trkpt lat="45.15392" lon="0.27052">
        <ele>109</ele>
        <time>2016-05-17T14:49:41Z</time>
      </trkpt>
      <trkpt lat="45.15398" lon="0.27048">
        <ele>109</ele>
        <time>2016-05-17T14:49:45Z</time>
      </trkpt>
      <trkpt lat="45.15403" lon="0.27045">
        <ele>108</ele>
        <time>2016-05-17T14:49:49Z</time>
      </trkpt>
      <trkpt lat="45.15407" lon="0.27041">
        <ele>108</ele>
        <time>2016-05-17T14:49:53Z</time>
      </trkpt>
      <trkpt lat="45.15413" lon="0.27039">
        <ele>111</ele>
        <time>2016-05-17T14:49:58Z</time>
      </trkpt>
      <trkpt lat="45.15418" lon="0.27032">
        <ele>111</ele>
        <time>2016-05-17T14:50:03Z</time>
      </trkpt>
      <trkpt lat="45.15423" lon="0.2703">
        <ele>111</ele>
        <time>2016-05-17T14:50:07Z</time>
      </trkpt>
      <trkpt lat="45.15428" lon="0.27028">
        <ele>109</ele>
        <time>2016-05-17T14:50:11Z</time>
      </trkpt>
      <trkpt lat="45.15433" lon="0.27024">
        <ele>108</ele>
        <time>2016-05-17T14:50:15Z</time>
      </trkpt>
      <trkpt lat="45.15437" lon="0.27026">
        <ele>108</ele>
        <time>2016-05-17T14:50:19Z</time>
      </trkpt>
      <trkpt lat="45.15442" lon="0.27023">
        <ele>109</ele>
        <time>2016-05-17T14:50:24Z</time>
      </trkpt>
      <trkpt lat="45.15449" lon="0.27019">
        <ele>110</ele>
        <time>2016-05-17T14:50:28Z</time>
      </trkpt>
      <trkpt lat="45.15455" lon="0.27016">
        <ele>109</ele>
        <time>2016-05-17T14:50:32Z</time>
      </trkpt>
      <trkpt lat="45.15461" lon="0.27011">
        <ele>110</ele>
        <time>2016-05-17T14:50:36Z</time>
      </trkpt>
      <trkpt lat="45.15467" lon="0.27006">
        <ele>109</ele>
        <time>2016-05-17T14:50:41Z</time>
      </trkpt>
      <trkpt lat="45.1547" lon="0.27003">
        <ele>110</ele>
        <time>2016-05-17T14:50:45Z</time>
      </trkpt>
      <trkpt lat="45.15472" lon="0.27">
        <ele>109</ele>
        <time>2016-05-17T14:50:49Z</time>
      </trkpt>
      <trkpt lat="45.15478" lon="0.26996">
        <ele>110</ele>
        <time>2016-05-17T14:50:54Z</time>
      </trkpt>
      <trkpt lat="45.15483" lon="0.26992">
        <ele>111</ele>
        <time>2016-05-17T14:50:58Z</time>
      </trkpt>
      <trkpt lat="45.15489" lon="0.26985">
        <ele>109</ele>
        <time>2016-05-17T14:51:03Z</time>
      </trkpt>
      <trkpt lat="45.15492" lon="0.26982">
        <ele>110</ele>
        <time>2016-05-17T14:51:08Z</time>
      </trkpt>
      <trkpt lat="45.15496" lon="0.2698">
        <ele>112</ele>
        <time>2016-05-17T14:51:12Z</time>
      </trkpt>
      <trkpt lat="45.15502" lon="0.26976">
        <ele>112</ele>
        <time>2016-05-17T14:51:16Z</time>
      </trkpt>
      <trkpt lat="45.1551" lon="0.26972">
        <ele>111</ele>
        <time>2016-05-17T14:51:21Z</time>
      </trkpt>
      <trkpt lat="45.15513" lon="0.2697">
        <ele>111</ele>
        <time>2016-05-17T14:51:28Z</time>
      </trkpt>
      <trkpt lat="45.15521" lon="0.26966">
        <ele>111</ele>
        <time>2016-05-17T14:51:33Z</time>
      </trkpt>
      <trkpt lat="45.15527" lon="0.26963">
        <ele>110</ele>
        <time>2016-05-17T14:51:38Z</time>
      </trkpt>
      <trkpt lat="45.15533" lon="0.26961">
        <ele>106</ele>
        <time>2016-05-17T14:51:42Z</time>
      </trkpt>
      <trkpt lat="45.15538" lon="0.26958">
        <ele>105</ele>
        <time>2016-05-17T14:51:47Z</time>
      </trkpt>
      <trkpt lat="45.15543" lon="0.26955">
        <ele>107</ele>
        <time>2016-05-17T14:51:52Z</time>
      </trkpt>
      <trkpt lat="45.15547" lon="0.2695">
        <ele>107</ele>
        <time>2016-05-17T14:51:56Z</time>
      </trkpt>
      <trkpt lat="45.15549" lon="0.26948">
        <ele>108</ele>
        <time>2016-05-17T14:52:01Z</time>
      </trkpt>
      <trkpt lat="45.15555" lon="0.26944">
        <ele>106</ele>
        <time>2016-05-17T14:52:06Z</time>
      </trkpt>
      <trkpt lat="45.15561" lon="0.26943">
        <ele>104</ele>
        <time>2016-05-17T14:52:10Z</time>
      </trkpt>
      <trkpt lat="45.15567" lon="0.2694">
        <ele>104</ele>
        <time>2016-05-17T14:52:15Z</time>
      </trkpt>
      <trkpt lat="45.15571" lon="0.26938">
        <ele>103</ele>
        <time>2016-05-17T14:52:19Z</time>
      </trkpt>
      <trkpt lat="45.15577" lon="0.26938">
        <ele>104</ele>
        <time>2016-05-17T14:52:24Z</time>
      </trkpt>
      <trkpt lat="45.15582" lon="0.2694">
        <ele>104</ele>
        <time>2016-05-17T14:52:28Z</time>
      </trkpt>
      <trkpt lat="45.15587" lon="0.2694">
        <ele>104</ele>
        <time>2016-05-17T14:52:32Z</time>
      </trkpt>
      <trkpt lat="45.15592" lon="0.2694">
        <ele>103</ele>
        <time>2016-05-17T14:52:36Z</time>
      </trkpt>
      <trkpt lat="45.15596" lon="0.26944">
        <ele>103</ele>
        <time>2016-05-17T14:52:41Z</time>
      </trkpt>
      <trkpt lat="45.15602" lon="0.26946">
        <ele>106</ele>
        <time>2016-05-17T14:52:46Z</time>
      </trkpt>
      <trkpt lat="45.15604" lon="0.2695">
        <ele>108</ele>
        <time>2016-05-17T14:52:50Z</time>
      </trkpt>
      <trkpt lat="45.15608" lon="0.26951">
        <ele>111</ele>
        <time>2016-05-17T14:52:55Z</time>
      </trkpt>
      <trkpt lat="45.15614" lon="0.2695">
        <ele>110</ele>
        <time>2016-05-17T14:52:59Z</time>
      </trkpt>
      <trkpt lat="45.15623" lon="0.26948">
        <ele>109</ele>
        <time>2016-05-17T14:53:04Z</time>
      </trkpt>
      <trkpt lat="45.15629" lon="0.26947">
        <ele>109</ele>
        <time>2016-05-17T14:53:08Z</time>
      </trkpt>
      <trkpt lat="45.15637" lon="0.26945">
        <ele>106</ele>
        <time>2016-05-17T14:53:13Z</time>
      </trkpt>
      <trkpt lat="45.15644" lon="0.26944">
        <ele>106</ele>
        <time>2016-05-17T14:53:17Z</time>
      </trkpt>
      <trkpt lat="45.15648" lon="0.26943">
        <ele>106</ele>
        <time>2016-05-17T14:53:21Z</time>
      </trkpt>
      <trkpt lat="45.15654" lon="0.26938">
        <ele>103</ele>
        <time>2016-05-17T14:53:25Z</time>
      </trkpt>
      <trkpt lat="45.15658" lon="0.26939">
        <ele>103</ele>
        <time>2016-05-17T14:53:29Z</time>
      </trkpt>
      <trkpt lat="45.15664" lon="0.26938">
        <ele>103</ele>
        <time>2016-05-17T14:53:33Z</time>
      </trkpt>
      <trkpt lat="45.15669" lon="0.2694">
        <ele>101</ele>
        <time>2016-05-17T14:53:37Z</time>
      </trkpt>
      <trkpt lat="45.15673" lon="0.26945">
        <ele>101</ele>
        <time>2016-05-17T14:53:41Z</time>
      </trkpt>
      <trkpt lat="45.15679" lon="0.26948">
        <ele>101</ele>
        <time>2016-05-17T14:53:46Z</time>
      </trkpt>
      <trkpt lat="45.15684" lon="0.2695">
        <ele>101</ele>
        <time>2016-05-17T14:53:50Z</time>
      </trkpt>
      <trkpt lat="45.15688" lon="0.26958">
        <ele>101</ele>
        <time>2016-05-17T14:53:55Z</time>
      </trkpt>
      <trkpt lat="45.15693" lon="0.26962">
        <ele>104</ele>
        <time>2016-05-17T14:54:00Z</time>
      </trkpt>
      <trkpt lat="45.15698" lon="0.26964">
        <ele>105</ele>
        <time>2016-05-17T14:54:04Z</time>
      </trkpt>
      <trkpt lat="45.15703" lon="0.26967">
        <ele>107</ele>
        <time>2016-05-17T14:54:08Z</time>
      </trkpt>
      <trkpt lat="45.15707" lon="0.2697">
        <ele>109</ele>
        <time>2016-05-17T14:54:12Z</time>
      </trkpt>
      <trkpt lat="45.15712" lon="0.26969">
        <ele>110</ele>
        <time>2016-05-17T14:54:16Z</time>
      </trkpt>
      <trkpt lat="45.15716" lon="0.26971">
        <ele>111</ele>
        <time>2016-05-17T14:54:20Z</time>
      </trkpt>
      <trkpt lat="45.15721" lon="0.26975">
        <ele>112</ele>
        <time>2016-05-17T14:54:24Z</time>
      </trkpt>
      <trkpt lat="45.15728" lon="0.26978">
        <ele>110</ele>
        <time>2016-05-17T14:54:29Z</time>
      </trkpt>
      <trkpt lat="45.15734" lon="0.26976">
        <ele>109</ele>
        <time>2016-05-17T14:54:33Z</time>
      </trkpt>
      <trkpt lat="45.15741" lon="0.26979">
        <ele>107</ele>
        <time>2016-05-17T14:54:38Z</time>
      </trkpt>
      <trkpt lat="45.15747" lon="0.26982">
        <ele>107</ele>
        <time>2016-05-17T14:54:43Z</time>
      </trkpt>
      <trkpt lat="45.15752" lon="0.26982">
        <ele>107</ele>
        <time>2016-05-17T14:54:47Z</time>
      </trkpt>
      <trkpt lat="45.15756" lon="0.2699">
        <ele>105</ele>
        <time>2016-05-17T14:54:51Z</time>
      </trkpt>
      <trkpt lat="45.1576" lon="0.26995">
        <ele>106</ele>
        <time>2016-05-17T14:54:55Z</time>
      </trkpt>
      <trkpt lat="45.15767" lon="0.26996">
        <ele>101</ele>
        <time>2016-05-17T14:54:59Z</time>
      </trkpt>
      <trkpt lat="45.15771" lon="0.26999">
        <ele>101</ele>
        <time>2016-05-17T14:55:03Z</time>
      </trkpt>
      <trkpt lat="45.15776" lon="0.27004">
        <ele>101</ele>
        <time>2016-05-17T14:55:07Z</time>
      </trkpt>
      <trkpt lat="45.15781" lon="0.27008">
        <ele>102</ele>
        <time>2016-05-17T14:55:12Z</time>
      </trkpt>
      <trkpt lat="45.15785" lon="0.27014">
        <ele>101</ele>
        <time>2016-05-17T14:55:16Z</time>
      </trkpt>
      <trkpt lat="45.15788" lon="0.27016">
        <ele>104</ele>
        <time>2016-05-17T14:55:20Z</time>
      </trkpt>
      <trkpt lat="45.15793" lon="0.27024">
        <ele>105</ele>
        <time>2016-05-17T14:55:25Z</time>
      </trkpt>
      <trkpt lat="45.15796" lon="0.27027">
        <ele>107</ele>
        <time>2016-05-17T14:55:29Z</time>
      </trkpt>
      <trkpt lat="45.158" lon="0.27029">
        <ele>105</ele>
        <time>2016-05-17T14:55:33Z</time>
      </trkpt>
      <trkpt lat="45.15803" lon="0.27034">
        <ele>108</ele>
        <time>2016-05-17T14:55:38Z</time>
      </trkpt>
      <trkpt lat="45.15807" lon="0.27037">
        <ele>107</ele>
        <time>2016-05-17T14:55:42Z</time>
      </trkpt>
      <trkpt lat="45.15813" lon="0.27045">
        <ele>106</ele>
        <time>2016-05-17T14:55:47Z</time>
      </trkpt>
      <trkpt lat="45.1582" lon="0.27049">
        <ele>103</ele>
        <time>2016-05-17T14:55:52Z</time>
      </trkpt>
      <trkpt lat="45.15823" lon="0.27052">
        <ele>104</ele>
        <time>2016-05-17T14:55:56Z</time>
      </trkpt>
      <trkpt lat="45.15827" lon="0.27059">
        <ele>102</ele>
        <time>2016-05-17T14:56:00Z</time>
      </trkpt>
      <trkpt lat="45.15833" lon="0.27064">
        <ele>103</ele>
        <time>2016-05-17T14:56:05Z</time>
      </trkpt>
      <trkpt lat="45.15836" lon="0.27068">
        <ele>105</ele>
        <time>2016-05-17T14:56:09Z</time>
      </trkpt>
      <trkpt lat="45.15842" lon="0.2707">
        <ele>103</ele>
        <time>2016-05-17T14:56:14Z</time>
      </trkpt>
      <trkpt lat="45.15847" lon="0.27074">
        <ele>103</ele>
        <time>2016-05-17T14:56:19Z</time>
      </trkpt>
      <trkpt lat="45.1585" lon="0.27077">
        <ele>106</ele>
        <time>2016-05-17T14:56:24Z</time>
      </trkpt>
      <trkpt lat="45.15856" lon="0.2708">
        <ele>102</ele>
        <time>2016-05-17T14:56:28Z</time>
      </trkpt>
      <trkpt lat="45.15865" lon="0.27084">
        <ele>96</ele>
        <time>2016-05-17T14:56:33Z</time>
      </trkpt>
      <trkpt lat="45.15872" lon="0.2709">
        <ele>95</ele>
        <time>2016-05-17T14:56:37Z</time>
      </trkpt>
      <trkpt lat="45.15877" lon="0.27096">
        <ele>94</ele>
        <time>2016-05-17T14:56:42Z</time>
      </trkpt>
      <trkpt lat="45.1588" lon="0.27101">
        <ele>96</ele>
        <time>2016-05-17T14:56:46Z</time>
      </trkpt>
      <trkpt lat="45.15882" lon="0.27107">
        <ele>97</ele>
        <time>2016-05-17T14:56:51Z</time>
      </trkpt>
      <trkpt lat="45.15883" lon="0.27115">
        <ele>96</ele>
        <time>2016-05-17T14:56:56Z</time>
      </trkpt>
      <trkpt lat="45.15886" lon="0.2712">
        <ele>98</ele>
        <time>2016-05-17T14:57:00Z</time>
      </trkpt>
      <trkpt lat="45.15893" lon="0.27126">
        <ele>96</ele>
        <time>2016-05-17T14:57:05Z</time>
      </trkpt>
      <trkpt lat="45.15899" lon="0.27129">
        <ele>91</ele>
        <time>2016-05-17T14:57:09Z</time>
      </trkpt>
      <trkpt lat="45.15905" lon="0.27133">
        <ele>92</ele>
        <time>2016-05-17T14:57:14Z</time>
      </trkpt>
      <trkpt lat="45.15912" lon="0.27136">
        <ele>90</ele>
        <time>2016-05-17T14:57:18Z</time>
      </trkpt>
      <trkpt lat="45.15917" lon="0.27141">
        <ele>91</ele>
        <time>2016-05-17T14:57:22Z</time>
      </trkpt>
      <trkpt lat="45.15921" lon="0.27144">
        <ele>93</ele>
        <time>2016-05-17T14:57:27Z</time>
      </trkpt>
      <trkpt lat="45.15924" lon="0.27148">
        <ele>95</ele>
        <time>2016-05-17T14:57:32Z</time>
      </trkpt>
      <trkpt lat="45.15927" lon="0.27153">
        <ele>98</ele>
        <time>2016-05-17T14:57:37Z</time>
      </trkpt>
      <trkpt lat="45.15931" lon="0.27156">
        <ele>97</ele>
        <time>2016-05-17T14:57:41Z</time>
      </trkpt>
      <trkpt lat="45.15937" lon="0.2716">
        <ele>95</ele>
        <time>2016-05-17T14:57:46Z</time>
      </trkpt>
      <trkpt lat="45.15942" lon="0.27163">
        <ele>93</ele>
        <time>2016-05-17T14:57:50Z</time>
      </trkpt>
      <trkpt lat="45.15949" lon="0.27169">
        <ele>92</ele>
        <time>2016-05-17T14:57:55Z</time>
      </trkpt>
      <trkpt lat="45.15952" lon="0.27173">
        <ele>90</ele>
        <time>2016-05-17T14:57:59Z</time>
      </trkpt>
      <trkpt lat="45.15957" lon="0.27177">
        <ele>89</ele>
        <time>2016-05-17T14:58:03Z</time>
      </trkpt>
      <trkpt lat="45.1596" lon="0.27182">
        <ele>89</ele>
        <time>2016-05-17T14:58:07Z</time>
      </trkpt>
      <trkpt lat="45.15964" lon="0.27188">
        <ele>88</ele>
        <time>2016-05-17T14:58:12Z</time>
      </trkpt>
      <trkpt lat="45.15967" lon="0.27193">
        <ele>89</ele>
        <time>2016-05-17T14:58:16Z</time>
      </trkpt>
      <trkpt lat="45.1597" lon="0.27198">
        <ele>89</ele>
        <time>2016-05-17T14:58:20Z</time>
      </trkpt>
      <trkpt lat="45.15972" lon="0.27204">
        <ele>89</ele>
        <time>2016-05-17T14:58:25Z</time>
      </trkpt>
      <trkpt lat="45.15972" lon="0.27208">
        <ele>93</ele>
        <time>2016-05-17T14:58:29Z</time>
      </trkpt>
      <trkpt lat="45.15975" lon="0.27216">
        <ele>92</ele>
        <time>2016-05-17T14:58:33Z</time>
      </trkpt>
      <trkpt lat="45.15979" lon="0.27222">
        <ele>90</ele>
        <time>2016-05-17T14:58:37Z</time>
      </trkpt>
      <trkpt lat="45.15981" lon="0.27228">
        <ele>92</ele>
        <time>2016-05-17T14:58:42Z</time>
      </trkpt>
      <trkpt lat="45.15982" lon="0.27235">
        <ele>94</ele>
        <time>2016-05-17T14:58:46Z</time>
      </trkpt>
      <trkpt lat="45.15985" lon="0.27247">
        <ele>91</ele>
        <time>2016-05-17T14:58:51Z</time>
      </trkpt>
      <trkpt lat="45.15988" lon="0.27251">
        <ele>91</ele>
        <time>2016-05-17T14:58:55Z</time>
      </trkpt>
      <trkpt lat="45.15988" lon="0.27256">
        <ele>92</ele>
        <time>2016-05-17T14:58:59Z</time>
      </trkpt>
      <trkpt lat="45.15994" lon="0.27265">
        <ele>90</ele>
        <time>2016-05-17T14:59:03Z</time>
      </trkpt>
      <trkpt lat="45.15998" lon="0.27272">
        <ele>90</ele>
        <time>2016-05-17T14:59:08Z</time>
      </trkpt>
      <trkpt lat="45.16" lon="0.27278">
        <ele>92</ele>
        <time>2016-05-17T14:59:14Z</time>
      </trkpt>
      <trkpt lat="45.16001" lon="0.27282">
        <ele>91</ele>
        <time>2016-05-17T14:59:19Z</time>
      </trkpt>
      <trkpt lat="45.16002" lon="0.2729">
        <ele>88</ele>
        <time>2016-05-17T14:59:24Z</time>
      </trkpt>
      <trkpt lat="45.16" lon="0.27295">
        <ele>89</ele>
        <time>2016-05-17T14:59:28Z</time>
      </trkpt>
      <trkpt lat="45.15997" lon="0.27303">
        <ele>92</ele>
        <time>2016-05-17T14:59:33Z</time>
      </trkpt>
      <trkpt lat="45.15997" lon="0.27314">
        <ele>89</ele>
        <time>2016-05-17T14:59:37Z</time>
      </trkpt>
      <trkpt lat="45.15996" lon="0.27322">
        <ele>87</ele>
        <time>2016-05-17T14:59:41Z</time>
      </trkpt>
      <trkpt lat="45.15995" lon="0.2733">
        <ele>87</ele>
        <time>2016-05-17T14:59:46Z</time>
      </trkpt>
      <trkpt lat="45.15995" lon="0.27338">
        <ele>87</ele>
        <time>2016-05-17T14:59:50Z</time>
      </trkpt>
      <trkpt lat="45.15994" lon="0.27345">
        <ele>87</ele>
        <time>2016-05-17T14:59:54Z</time>
      </trkpt>
      <trkpt lat="45.15994" lon="0.27355">
        <ele>86</ele>
        <time>2016-05-17T14:59:59Z</time>
      </trkpt>
      <trkpt lat="45.15994" lon="0.27361">
        <ele>87</ele>
        <time>2016-05-17T15:00:04Z</time>
      </trkpt>
      <trkpt lat="45.15995" lon="0.27378">
        <ele>90</ele>
        <time>2016-05-17T15:00:09Z</time>
      </trkpt>
      <trkpt lat="45.15996" lon="0.27385">
        <ele>88</ele>
        <time>2016-05-17T15:00:13Z</time>
      </trkpt>
      <trkpt lat="45.15995" lon="0.2739">
        <ele>88</ele>
        <time>2016-05-17T15:00:19Z</time>
      </trkpt>
      <trkpt lat="45.15993" lon="0.27398">
        <ele>89</ele>
        <time>2016-05-17T15:00:23Z</time>
      </trkpt>
      <trkpt lat="45.15993" lon="0.27406">
        <ele>87</ele>
        <time>2016-05-17T15:00:28Z</time>
      </trkpt>
      <trkpt lat="45.15995" lon="0.27416">
        <ele>85</ele>
        <time>2016-05-17T15:00:33Z</time>
      </trkpt>
      <trkpt lat="45.15993" lon="0.27423">
        <ele>86</ele>
        <time>2016-05-17T15:00:37Z</time>
      </trkpt>
      <trkpt lat="45.15993" lon="0.27428">
        <ele>84</ele>
        <time>2016-05-17T15:00:41Z</time>
      </trkpt>
      <trkpt lat="45.15992" lon="0.27436">
        <ele>85</ele>
        <time>2016-05-17T15:00:46Z</time>
      </trkpt>
      <trkpt lat="45.15992" lon="0.27443">
        <ele>86</ele>
        <time>2016-05-17T15:00:50Z</time>
      </trkpt>
      <trkpt lat="45.15992" lon="0.27449">
        <ele>85</ele>
        <time>2016-05-17T15:00:54Z</time>
      </trkpt>
      <trkpt lat="45.15993" lon="0.27459">
        <ele>84</ele>
        <time>2016-05-17T15:00:59Z</time>
      </trkpt>
      <trkpt lat="45.15994" lon="0.27466">
        <ele>83</ele>
        <time>2016-05-17T15:01:03Z</time>
      </trkpt>
      <trkpt lat="45.15993" lon="0.27473">
        <ele>82</ele>
        <time>2016-05-17T15:01:07Z</time>
      </trkpt>
      <trkpt lat="45.15994" lon="0.27484">
        <ele>80</ele>
        <time>2016-05-17T15:01:12Z</time>
      </trkpt>
      <trkpt lat="45.15992" lon="0.27489">
        <ele>79</ele>
        <time>2016-05-17T15:01:16Z</time>
      </trkpt>
      <trkpt lat="45.15996" lon="0.27498">
        <ele>77</ele>
        <time>2016-05-17T15:01:20Z</time>
      </trkpt>
      <trkpt lat="45.15997" lon="0.27507">
        <ele>75</ele>
        <time>2016-05-17T15:01:24Z</time>
      </trkpt>
      <trkpt lat="45.15999" lon="0.27515">
        <ele>73</ele>
        <time>2016-05-17T15:01:28Z</time>
      </trkpt>
      <trkpt lat="45.15998" lon="0.27523">
        <ele>74</ele>
        <time>2016-05-17T15:01:32Z</time>
      </trkpt>
      <trkpt lat="45.16" lon="0.27531">
        <ele>72</ele>
        <time>2016-05-17T15:01:36Z</time>
      </trkpt>
      <trkpt lat="45.16003" lon="0.2754">
        <ele>70</ele>
        <time>2016-05-17T15:01:40Z</time>
      </trkpt>
      <trkpt lat="45.16005" lon="0.27545">
        <ele>71</ele>
        <time>2016-05-17T15:01:46Z</time>
      </trkpt>
      <trkpt lat="45.16004" lon="0.27549">
        <ele>75</ele>
        <time>2016-05-17T15:01:56Z</time>
      </trkpt>
      <trkpt lat="45.16001" lon="0.27558">
        <ele>75</ele>
        <time>2016-05-17T15:02:00Z</time>
      </trkpt>
      <trkpt lat="45.16002" lon="0.27566">
        <ele>73</ele>
        <time>2016-05-17T15:02:05Z</time>
      </trkpt>
      <trkpt lat="45.16001" lon="0.27575">
        <ele>74</ele>
        <time>2016-05-17T15:02:10Z</time>
      </trkpt>
      <trkpt lat="45.16002" lon="0.27582">
        <ele>73</ele>
        <time>2016-05-17T15:02:14Z</time>
      </trkpt>
      <trkpt lat="45.16004" lon="0.2759">
        <ele>72</ele>
        <time>2016-05-17T15:02:19Z</time>
      </trkpt>
      <trkpt lat="45.16003" lon="0.27599">
        <ele>69</ele>
        <time>2016-05-17T15:02:24Z</time>
      </trkpt>
      <trkpt lat="45.16003" lon="0.27607">
        <ele>69</ele>
        <time>2016-05-17T15:02:28Z</time>
      </trkpt>
      <trkpt lat="45.16007" lon="0.27617">
        <ele>66</ele>
        <time>2016-05-17T15:02:33Z</time>
      </trkpt>
      <trkpt lat="45.16008" lon="0.27624">
        <ele>68</ele>
        <time>2016-05-17T15:02:38Z</time>
      </trkpt>
      <trkpt lat="45.16009" lon="0.27633">
        <ele>68</ele>
        <time>2016-05-17T15:02:43Z</time>
      </trkpt>
      <trkpt lat="45.1601" lon="0.27641">
        <ele>68</ele>
        <time>2016-05-17T15:02:47Z</time>
      </trkpt>
      <trkpt lat="45.1601" lon="0.27647">
        <ele>68</ele>
        <time>2016-05-17T15:02:51Z</time>
      </trkpt>
      <trkpt lat="45.16012" lon="0.27656">
        <ele>69</ele>
        <time>2016-05-17T15:02:55Z</time>
      </trkpt>
      <trkpt lat="45.16013" lon="0.27665">
        <ele>68</ele>
        <time>2016-05-17T15:03:00Z</time>
      </trkpt>
      <trkpt lat="45.16013" lon="0.27672">
        <ele>70</ele>
        <time>2016-05-17T15:03:05Z</time>
      </trkpt>
      <trkpt lat="45.16012" lon="0.2768">
        <ele>70</ele>
        <time>2016-05-17T15:03:09Z</time>
      </trkpt>
      <trkpt lat="45.16014" lon="0.27687">
        <ele>68</ele>
        <time>2016-05-17T15:03:13Z</time>
      </trkpt>
      <trkpt lat="45.16014" lon="0.27696">
        <ele>66</ele>
        <time>2016-05-17T15:03:18Z</time>
      </trkpt>
      <trkpt lat="45.16019" lon="0.27706">
        <ele>66</ele>
        <time>2016-05-17T15:03:23Z</time>
      </trkpt>
      <trkpt lat="45.1602" lon="0.27712">
        <ele>67</ele>
        <time>2016-05-17T15:03:27Z</time>
      </trkpt>
      <trkpt lat="45.16022" lon="0.27719">
        <ele>67</ele>
        <time>2016-05-17T15:03:31Z</time>
      </trkpt>
      <trkpt lat="45.16022" lon="0.27728">
        <ele>66</ele>
        <time>2016-05-17T15:03:36Z</time>
      </trkpt>
      <trkpt lat="45.16022" lon="0.27734">
        <ele>65</ele>
        <time>2016-05-17T15:03:40Z</time>
      </trkpt>
      <trkpt lat="45.16024" lon="0.27742">
        <ele>65</ele>
        <time>2016-05-17T15:03:44Z</time>
      </trkpt>
      <trkpt lat="45.16024" lon="0.27751">
        <ele>64</ele>
        <time>2016-05-17T15:03:49Z</time>
      </trkpt>
      <trkpt lat="45.16023" lon="0.27758">
        <ele>68</ele>
        <time>2016-05-17T15:03:54Z</time>
      </trkpt>
      <trkpt lat="45.16023" lon="0.27764">
        <ele>68</ele>
        <time>2016-05-17T15:03:58Z</time>
      </trkpt>
      <trkpt lat="45.16023" lon="0.27771">
        <ele>67</ele>
        <time>2016-05-17T15:04:02Z</time>
      </trkpt>
      <trkpt lat="45.16023" lon="0.2778">
        <ele>67</ele>
        <time>2016-05-17T15:04:07Z</time>
      </trkpt>
      <trkpt lat="45.16025" lon="0.27787">
        <ele>69</ele>
        <time>2016-05-17T15:04:11Z</time>
      </trkpt>
      <trkpt lat="45.16024" lon="0.27793">
        <ele>70</ele>
        <time>2016-05-17T15:04:15Z</time>
      </trkpt>
      <trkpt lat="45.16023" lon="0.27799">
        <ele>75</ele>
        <time>2016-05-17T15:04:20Z</time>
      </trkpt>
      <trkpt lat="45.16026" lon="0.27805">
        <ele>75</ele>
        <time>2016-05-17T15:04:24Z</time>
      </trkpt>
      <trkpt lat="45.16027" lon="0.27813">
        <ele>73</ele>
        <time>2016-05-17T15:04:28Z</time>
      </trkpt>
      <trkpt lat="45.16028" lon="0.27821">
        <ele>74</ele>
        <time>2016-05-17T15:04:33Z</time>
      </trkpt>
      <trkpt lat="45.16031" lon="0.27827">
        <ele>75</ele>
        <time>2016-05-17T15:04:37Z</time>
      </trkpt>
      <trkpt lat="45.16036" lon="0.27832">
        <ele>75</ele>
        <time>2016-05-17T15:04:41Z</time>
      </trkpt>
      <trkpt lat="45.16041" lon="0.27833">
        <ele>75</ele>
        <time>2016-05-17T15:04:45Z</time>
      </trkpt>
      <trkpt lat="45.16045" lon="0.27835">
        <ele>81</ele>
        <time>2016-05-17T15:04:51Z</time>
      </trkpt>
      <trkpt lat="45.16048" lon="0.27834">
        <ele>84</ele>
        <time>2016-05-17T15:05:01Z</time>
      </trkpt>
      <trkpt lat="45.16055" lon="0.27835">
        <ele>83</ele>
        <time>2016-05-17T15:05:06Z</time>
      </trkpt>
      <trkpt lat="45.16061" lon="0.27841">
        <ele>85</ele>
        <time>2016-05-17T15:05:11Z</time>
      </trkpt>
      <trkpt lat="45.16064" lon="0.27843">
        <ele>85</ele>
        <time>2016-05-17T15:05:18Z</time>
      </trkpt>
      <trkpt lat="45.16067" lon="0.27847">
        <ele>85</ele>
        <time>2016-05-17T15:05:24Z</time>
      </trkpt>
      <trkpt lat="45.16069" lon="0.27847">
        <ele>85</ele>
        <time>2016-05-17T15:05:28Z</time>
      </trkpt>
      <trkpt lat="45.16069" lon="0.27847">
        <ele>85</ele>
        <time>2016-05-17T15:05:28Z</time>
      </trkpt>
    </trkseg>
  </trk>
</gpx>